[[{"header":{"parameterUnit":"m.s-1","parameterCategory":1,"la1":30.6,"la2":29.2853,"lo1":-89.7004,"lo2":-87.6739,"dy":0.0162,"dx":0.0183,"nx":112,"ny":82,"refTime":"2023-09-08T06:00:00:Z","depth":0,"parameterNumber":2,"parameterNumberName":"U-component_of_WINDS"},"data":[0.0,0.0,0.0,0.0,0.0,0.0,0.0,0.0,0.0,0.0,0.0,0.0,0.0,0.0,0.0,0.0,0.0,0.0,0.0,0.0,0.0,0.0,0.0,0.0,0.0,0.0,0.0,0.0,0.0,0.0,0.0,0.0,0.0,0.0,0.0,0.0,0.0,0.0,0.0,0.0,0.0,0.0,0.0,0.0,0.0,0.0,0.0,0.0,0.0,0.0,0.0,0.0,0.0,0.0,0.0,0.0,0.0,0.0,0.0,0.0,0.0,0.0,0.0,0.0,0.0,0.0,0.0,0.0,0.0,0.0,0.0,0.0,0.0,0.0,0.0,0.0,0.0,0.0,0.0,0.0,0.0,0.0,0.0,0.0,0.0,0.0,0.0,0.0,0.0,0.0,-3.0898,-3.0878,-3.0769,-3.0673,-3.0594,-3.0537,-3.0374,-3.0028,0.0,0.0,0.0,0.0,0.0,0.0,0.0,0.0,0.0,0.0,0.0,0.0,0.0,0.0,0.0,0.0,0.0,0.0,0.0,0.0,0.0,0.0,0.0,0.0,0.0,0.0,0.0,0.0,0.0,0.0,0.0,0.0,0.0,0.0,0.0,0.0,0.0,0.0,0.0,0.0,0.0,0.0,0.0,0.0,0.0,0.0,0.0,0.0,0.0,0.0,0.0,0.0,0.0,0.0,0.0,0.0,0.0,0.0,0.0,0.0,0.0,0.0,0.0,0.0,0.0,0.0,0.0,0.0,0.0,0.0,0.0,0.0,0.0,0.0,0.0,0.0,0.0,0.0,0.0,0.0,0.0,0.0,0.0,0.0,0.0,0.0,0.0,0.0,0.0,0.0,0.0,0.0,0.0,0.0,0.0,0.0,0.0,0.0,0.0,0.0,0.0,0.0,0.0,0.0,-3.0858,-3.0745,-3.0718,-3.0657,-3.0521,-3.0507,-3.0374,-3.0028,0.0,0.0,0.0,0.0,0.0,0.0,0.0,0.0,0.0,0.0,0.0,0.0,0.0,0.0,0.0,0.0,0.0,0.0,0.0,0.0,0.0,0.0,0.0,0.0,0.0,0.0,0.0,0.0,0.0,0.0,0.0,0.0,0.0,0.0,0.0,0.0,0.0,0.0,0.0,0.0,0.0,0.0,0.0,0.0,0.0,0.0,0.0,0.0,0.0,0.0,0.0,0.0,0.0,0.0,0.0,0.0,0.0,0.0,0.0,0.0,0.0,0.0,0.0,0.0,0.0,0.0,0.0,0.0,0.0,0.0,0.0,0.0,0.0,0.0,0.0,0.0,0.0,0.0,0.0,0.0,0.0,0.0,0.0,0.0,0.0,0.0,0.0,0.0,0.0,0.0,0.0,0.0,0.0,0.0,0.0,0.0,0.0,0.0,0.0,0.0,0.0,0.0,0.0,-3.0837,-3.0769,-3.0716,-3.0624,-3.0568,-3.0507,-3.0472,-3.0259,-2.9861,-2.9746,0.0,0.0,0.0,0.0,0.0,0.0,0.0,0.0,0.0,0.0,0.0,0.0,0.0,0.0,0.0,0.0,0.0,0.0,0.0,0.0,0.0,0.0,0.0,0.0,0.0,0.0,0.0,0.0,0.0,0.0,0.0,0.0,0.0,0.0,0.0,0.0,0.0,0.0,0.0,0.0,0.0,0.0,0.0,0.0,0.0,0.0,0.0,0.0,0.0,0.0,0.0,0.0,0.0,0.0,0.0,0.0,0.0,0.0,0.0,0.0,0.0,0.0,0.0,0.0,0.0,0.0,0.0,0.0,0.0,0.0,0.0,0.0,0.0,0.0,0.0,0.0,0.0,0.0,0.0,0.0,0.0,0.0,0.0,0.0,0.0,0.0,0.0,0.0,0.0,0.0,0.0,0.0,0.0,0.0,0.0,0.0,0.0,0.0,0.0,0.0,0.0,0.0,-3.0769,-3.0687,-3.0665,-3.0561,-3.049,-3.0482,-3.0367,-3.0142,-2.9731,-2.9643,0.0,0.0,0.0,0.0,0.0,0.0,0.0,0.0,0.0,0.0,0.0,0.0,0.0,0.0,0.0,0.0,0.0,0.0,0.0,0.0,0.0,0.0,0.0,0.0,0.0,0.0,0.0,0.0,0.0,0.0,0.0,0.0,0.0,0.0,0.0,0.0,0.0,0.0,0.0,0.0,0.0,0.0,0.0,0.0,0.0,0.0,0.0,0.0,0.0,0.0,0.0,0.0,0.0,0.0,0.0,0.0,0.0,0.0,0.0,0.0,0.0,0.0,0.0,0.0,0.0,0.0,0.0,0.0,0.0,0.0,0.0,0.0,0.0,0.0,0.0,0.0,0.0,0.0,0.0,0.0,0.0,0.0,0.0,0.0,0.0,0.0,0.0,0.0,0.0,0.0,0.0,0.0,0.0,0.0,0.0,0.0,0.0,0.0,0.0,0.0,0.0,0.0,-3.0716,-3.0642,-3.0529,-3.0507,-3.0472,-3.0414,-3.0163,-2.9939,-2.9713,-2.9532,0.0,0.0,0.0,0.0,0.0,0.0,0.0,0.0,0.0,0.0,0.0,0.0,0.0,0.0,0.0,0.0,0.0,0.0,0.0,0.0,0.0,0.0,0.0,0.0,0.0,0.0,0.0,0.0,0.0,0.0,0.0,0.0,0.0,0.0,0.0,0.0,0.0,0.0,0.0,0.0,0.0,0.0,0.0,0.0,0.0,0.0,0.0,0.0,0.0,0.0,0.0,0.0,0.0,0.0,0.0,0.0,0.0,0.0,0.0,0.0,0.0,0.0,0.0,0.0,0.0,0.0,0.0,0.0,0.0,0.0,0.0,0.0,0.0,0.0,0.0,0.0,0.0,0.0,0.0,0.0,0.0,0.0,0.0,0.0,0.0,0.0,0.0,0.0,0.0,0.0,0.0,0.0,0.0,0.0,0.0,0.0,0.0,0.0,0.0,0.0,0.0,0.0,-3.0669,-3.0611,-3.0516,-3.0462,-3.0428,-3.041,-3.015,-2.9924,-2.9713,0.0,0.0,0.0,0.0,0.0,0.0,0.0,0.0,0.0,0.0,0.0,0.0,0.0,0.0,0.0,0.0,0.0,0.0,0.0,0.0,0.0,0.0,0.0,0.0,0.0,0.0,0.0,0.0,0.0,0.0,0.0,0.0,0.0,0.0,0.0,0.0,0.0,0.0,0.0,0.0,0.0,0.0,0.0,0.0,0.0,0.0,0.0,0.0,0.0,0.0,0.0,0.0,0.0,0.0,0.0,0.0,0.0,0.0,0.0,0.0,0.0,0.0,0.0,0.0,0.0,0.0,0.0,0.0,0.0,0.0,0.0,0.0,0.0,0.0,0.0,0.0,0.0,0.0,0.0,0.0,0.0,0.0,0.0,0.0,0.0,0.0,0.0,0.0,0.0,0.0,0.0,0.0,0.0,0.0,0.0,0.0,0.0,0.0,0.0,0.0,0.0,0.0,-3.068,-3.0617,-3.0545,-3.0472,-3.0428,-3.0398,-3.0398,-3.0095,-2.9845,-2.9713,0.0,0.0,0.0,0.0,0.0,0.0,0.0,0.0,0.0,0.0,0.0,0.0,0.0,0.0,0.0,0.0,0.0,0.0,0.0,0.0,0.0,0.0,0.0,0.0,0.0,0.0,0.0,0.0,0.0,0.0,0.0,0.0,0.0,0.0,0.0,0.0,0.0,0.0,0.0,0.0,0.0,0.0,0.0,0.0,0.0,0.0,0.0,0.0,0.0,0.0,0.0,0.0,0.0,0.0,0.0,0.0,0.0,0.0,0.0,0.0,0.0,0.0,0.0,0.0,0.0,0.0,0.0,0.0,0.0,0.0,0.0,0.0,0.0,0.0,0.0,0.0,0.0,0.0,0.0,0.0,0.0,0.0,0.0,0.0,0.0,0.0,0.0,0.0,0.0,0.0,0.0,0.0,0.0,0.0,0.0,0.0,0.0,0.0,0.0,0.0,0.0,0.0,-3.0611,-3.0545,-3.0472,-3.0402,-3.0398,-3.0398,-3.0398,-2.9977,-2.9696,0.0,0.0,0.0,0.0,0.0,0.0,0.0,0.0,0.0,0.0,0.0,0.0,0.0,0.0,0.0,0.0,0.0,0.0,0.0,0.0,0.0,0.0,0.0,0.0,0.0,0.0,0.0,0.0,0.0,0.0,0.0,0.0,0.0,0.0,0.0,0.0,0.0,0.0,0.0,0.0,0.0,0.0,0.0,0.0,0.0,0.0,0.0,0.0,0.0,0.0,0.0,0.0,0.0,0.0,0.0,0.0,0.0,0.0,0.0,0.0,0.0,0.0,0.0,0.0,0.0,0.0,0.0,0.0,0.0,0.0,0.0,0.0,0.0,0.0,0.0,0.0,0.0,0.0,0.0,0.0,0.0,0.0,0.0,0.0,0.0,0.0,0.0,0.0,0.0,0.0,0.0,0.0,0.0,0.0,0.0,0.0,0.0,0.0,0.0,0.0,0.0,0.0,0.0,-3.0611,-3.0545,-3.0472,-3.0402,-3.0398,-3.0398,-3.0398,-2.9977,-2.9696,-2.9696,0.0,0.0,0.0,0.0,0.0,0.0,0.0,0.0,0.0,0.0,0.0,0.0,0.0,0.0,0.0,0.0,0.0,0.0,0.0,0.0,0.0,0.0,0.0,0.0,0.0,0.0,0.0,0.0,0.0,0.0,0.0,0.0,0.0,0.0,0.0,0.0,0.0,0.0,0.0,0.0,0.0,0.0,0.0,0.0,0.0,0.0,0.0,0.0,0.0,0.0,0.0,0.0,0.0,0.0,0.0,0.0,0.0,0.0,0.0,0.0,0.0,0.0,0.0,0.0,0.0,0.0,0.0,0.0,0.0,0.0,0.0,0.0,0.0,0.0,0.0,0.0,0.0,0.0,0.0,0.0,0.0,0.0,0.0,0.0,0.0,0.0,0.0,0.0,0.0,0.0,0.0,0.0,0.0,0.0,0.0,0.0,0.0,0.0,0.0,0.0,0.0,0.0,-3.0568,-3.0498,-3.0451,-3.039,-3.0398,-3.0398,-3.0398,-2.9977,-2.9696,-2.9696,0.0,0.0,0.0,0.0,0.0,0.0,0.0,0.0,0.0,0.0,0.0,0.0,0.0,0.0,0.0,0.0,0.0,0.0,0.0,0.0,0.0,0.0,0.0,0.0,0.0,0.0,0.0,0.0,0.0,0.0,0.0,0.0,0.0,0.0,0.0,0.0,0.0,0.0,0.0,0.0,0.0,0.0,0.0,0.0,0.0,0.0,0.0,0.0,0.0,0.0,0.0,0.0,0.0,0.0,0.0,0.0,0.0,0.0,0.0,0.0,0.0,0.0,0.0,0.0,0.0,0.0,0.0,0.0,0.0,0.0,0.0,0.0,0.0,0.0,0.0,0.0,0.0,0.0,0.0,0.0,0.0,0.0,0.0,0.0,0.0,0.0,0.0,0.0,0.0,0.0,0.0,0.0,0.0,0.0,0.0,0.0,0.0,0.0,0.0,0.0,0.0,0.0,-3.0516,-3.0441,-3.0398,-3.0398,-3.0398,-3.0398,-3.0367,-2.9962,-2.9696,-2.9678,0.0,0.0,0.0,0.0,0.0,0.0,0.0,0.0,0.0,0.0,0.0,0.0,0.0,0.0,0.0,0.0,0.0,0.0,0.0,0.0,0.0,0.0,0.0,0.0,0.0,0.0,0.0,0.0,0.0,0.0,0.0,0.0,0.0,0.0,0.0,0.0,0.0,0.0,0.0,0.0,0.0,0.0,0.0,0.0,0.0,0.0,0.0,0.0,0.0,0.0,0.0,0.0,0.0,0.0,0.0,0.0,0.0,0.0,0.0,0.0,-4.1191,0.0,0.0,0.0,0.0,0.0,0.0,0.0,0.0,0.0,0.0,0.0,0.0,0.0,0.0,0.0,0.0,0.0,0.0,0.0,0.0,0.0,0.0,0.0,0.0,0.0,0.0,0.0,0.0,0.0,0.0,0.0,0.0,0.0,0.0,0.0,0.0,0.0,0.0,0.0,0.0,0.0,-3.0507,-3.0441,-3.0398,-3.0398,-3.0398,-3.0311,-3.0089,-2.9845,-2.9625,-2.9455,-2.916,0.0,0.0,0.0,0.0,0.0,0.0,0.0,0.0,0.0,0.0,0.0,0.0,0.0,0.0,0.0,0.0,0.0,0.0,0.0,0.0,0.0,0.0,0.0,0.0,0.0,0.0,0.0,0.0,0.0,0.0,0.0,0.0,0.0,0.0,0.0,0.0,0.0,0.0,0.0,0.0,0.0,0.0,0.0,0.0,0.0,0.0,0.0,0.0,0.0,0.0,0.0,0.0,0.0,0.0,0.0,0.0,0.0,0.0,0.0,0.0,-4.1191,0.0,0.0,0.0,0.0,0.0,0.0,0.0,0.0,0.0,0.0,0.0,0.0,0.0,0.0,0.0,0.0,0.0,0.0,0.0,0.0,0.0,0.0,0.0,0.0,0.0,0.0,0.0,0.0,0.0,0.0,0.0,0.0,0.0,0.0,0.0,0.0,0.0,0.0,0.0,0.0,-3.0452,-3.0417,-3.0398,-3.0398,-3.0398,-3.0299,-3.0013,-2.9813,-2.9607,-2.9394,-2.9156,0.0,0.0,0.0,0.0,0.0,0.0,0.0,0.0,0.0,0.0,0.0,0.0,0.0,0.0,0.0,0.0,0.0,0.0,0.0,0.0,0.0,0.0,0.0,0.0,0.0,0.0,0.0,0.0,0.0,0.0,0.0,0.0,0.0,0.0,0.0,0.0,0.0,0.0,0.0,0.0,0.0,0.0,0.0,0.0,0.0,0.0,0.0,0.0,0.0,0.0,0.0,0.0,0.0,-4.1191,-4.1191,-4.1191,-4.1191,-4.1191,-4.1191,-4.1191,-4.1191,-4.1191,-4.1191,0.0,0.0,0.0,0.0,0.0,0.0,0.0,0.0,0.0,0.0,0.0,0.0,0.0,0.0,0.0,0.0,0.0,0.0,0.0,0.0,0.0,0.0,0.0,0.0,-3.5996,-3.5996,-3.5996,0.0,0.0,0.0,0.0,0.0,0.0,0.0,0.0,0.0,0.0,0.0,-3.0402,-3.0398,-3.0398,-3.0398,-3.0398,-3.0286,-2.9969,-2.9796,-2.9588,-2.9351,-2.9134,-2.8994,0.0,0.0,0.0,0.0,0.0,0.0,0.0,0.0,0.0,0.0,0.0,0.0,0.0,0.0,0.0,0.0,0.0,0.0,0.0,0.0,0.0,0.0,0.0,0.0,0.0,0.0,0.0,0.0,0.0,0.0,0.0,0.0,-3.4236,-3.5422,0.0,0.0,0.0,0.0,0.0,0.0,0.0,0.0,0.0,0.0,0.0,0.0,0.0,-4.0529,-4.0591,-4.1007,-4.1195,-4.1202,-4.1207,-4.1191,-4.1191,-4.1191,-4.1191,-4.1191,-4.1191,0.0,-4.1191,-4.1191,0.0,0.0,0.0,0.0,0.0,0.0,0.0,0.0,0.0,0.0,0.0,0.0,0.0,0.0,0.0,0.0,0.0,0.0,0.0,0.0,0.0,0.0,-3.5996,-3.5996,-3.5996,-3.5996,0.0,-3.541,-3.4863,-3.4863,-3.4258,0.0,0.0,0.0,0.0,0.0,0.0,0.0,-3.041,-3.0398,-3.0398,-3.0398,-3.0398,-3.0215,-2.9782,-2.9713,-2.9514,-2.9089,-2.9017,-2.8994,-2.8994,-2.8994,0.0,0.0,0.0,0.0,0.0,0.0,0.0,0.0,0.0,0.0,0.0,0.0,0.0,0.0,0.0,0.0,0.0,0.0,0.0,0.0,0.0,0.0,0.0,0.0,0.0,0.0,0.0,0.0,0.0,-3.3807,-3.399,-3.4495,-3.4412,-3.4486,0.0,0.0,0.0,0.0,0.0,0.0,0.0,0.0,0.0,-4.0466,-4.0501,-4.0507,-4.0498,-4.0704,-4.0948,-4.1193,-4.1199,-4.1201,-4.1191,-4.1191,-4.1191,-4.1191,-4.1191,-4.1191,-4.1191,-4.1191,-4.1191,-4.1191,0.0,0.0,0.0,0.0,-4.0767,-4.0101,-3.9543,-3.9247,-3.8967,-3.8238,0.0,0.0,0.0,0.0,0.0,0.0,0.0,0.0,0.0,0.0,-3.5996,-3.5996,-3.5996,-3.5996,-3.5996,-3.5312,-3.4707,0.0,-3.4353,-3.3761,-3.2785,0.0,0.0,0.0,0.0,-3.0398,-3.0398,-3.0398,-3.0398,-3.0398,-3.0398,-3.0215,-2.9748,-2.9696,-2.9495,-2.9021,-2.8994,-2.8994,-2.8994,-2.8994,-2.8994,0.0,0.0,0.0,0.0,0.0,0.0,0.0,0.0,0.0,0.0,0.0,0.0,0.0,0.0,0.0,0.0,0.0,0.0,0.0,0.0,0.0,0.0,0.0,0.0,0.0,0.0,0.0,0.0,-3.3807,-3.3807,-3.3807,-3.3807,-3.3807,0.0,0.0,0.0,0.0,0.0,0.0,-3.8569,-3.9065,-3.9565,-4.0162,-4.0392,-4.0506,-4.0494,-4.0498,-4.0675,-4.102,-4.1076,-4.1136,-4.1191,-4.1133,-4.1094,-4.1094,-4.1074,-4.1094,-4.1133,-4.1172,-4.1191,-4.1191,-4.1191,-4.1191,-4.1191,-4.1191,-4.0625,-3.9863,-3.9863,-3.9609,-3.9238,-3.9004,-3.8789,-3.8437,-3.7559,0.0,0.0,0.0,0.0,-3.5996,-3.5996,-3.5996,-3.5996,-3.5996,-3.5996,-3.5937,-3.5723,-3.5156,-3.4629,0.0,-3.4109,-3.3448,-3.1913,0.0,0.0,0.0,0.0,-3.0398,-3.0398,-3.0398,-3.0398,-3.0398,-3.0398,-3.0228,-2.9796,-2.9763,-2.9588,-2.9134,-2.9089,-2.9067,-2.9017,-2.8994,-2.8994,-2.8994,0.0,0.0,0.0,0.0,0.0,0.0,0.0,0.0,0.0,0.0,0.0,0.0,0.0,0.0,0.0,0.0,0.0,0.0,0.0,0.0,0.0,0.0,0.0,0.0,0.0,0.0,0.0,0.0,0.0,-3.3807,-3.3807,0.0,0.0,0.0,0.0,-3.473,-3.5761,-3.6504,-3.6801,-3.8392,-3.9315,-3.9354,-4.0085,-4.0504,-4.0485,-4.0493,-4.0498,-4.0538,-4.073,-4.0957,-4.1191,-4.0937,-4.082,-4.082,-4.0742,-4.0801,-4.0937,-4.1113,-4.1191,-4.1191,-4.1191,-4.1191,-4.1191,-4.1191,-4.1152,-4.1113,-4.1113,-4.1094,-4.0937,-4.0098,-3.9277,-3.8437,-3.7559,-3.7266,0.0,0.0,-3.5996,-3.5996,-3.5996,-3.5996,-3.5996,-3.5996,-3.5996,-3.5762,-3.4941,-3.4726,-3.4433,0.0,-3.2709,-3.1815,-3.0837,0.0,-3.0557,-3.0498,-3.0441,-3.0398,-3.0398,-3.0398,-3.0398,-3.0398,-3.0398,-3.0299,-2.9999,-2.9984,-2.9813,-2.9412,-2.9392,-2.9267,-2.9017,-2.8994,-2.8994,-2.8994,-2.8994,0.0,0.0,0.0,0.0,0.0,0.0,0.0,0.0,0.0,0.0,0.0,0.0,0.0,0.0,0.0,0.0,0.0,0.0,0.0,0.0,0.0,0.0,0.0,0.0,0.0,0.0,0.0,0.0,-3.3807,-3.3807,0.0,-3.3807,-3.4043,-3.4246,-3.4379,-3.5097,-3.6035,-3.7226,-3.8043,-3.895,-4.0027,-4.0335,-4.0489,-4.0489,-4.0501,-4.0538,-4.0635,-4.0699,-4.082,-4.0937,-4.084,-4.0801,-4.0801,-4.0762,-4.0801,-4.083,-4.0909,-4.103,-4.1191,-4.1191,-4.1191,-4.1191,-4.1191,-4.1191,-4.1191,-4.1191,-4.1191,-4.1152,-4.084,-4.0156,-3.9277,-3.8398,-3.7734,-3.7129,-3.625,-3.5996,-3.5996,-3.5996,-3.5586,-3.5156,-3.5156,-3.4726,-3.4238,-3.3926,-3.3867,-3.3592,-3.2656,-3.2179,-3.164,-3.0695,-3.0482,-3.0449,-3.0449,-3.0425,-3.0398,-3.0398,-3.0398,-3.0398,-3.0398,-3.0398,-3.0299,-3.0013,-2.9999,-2.9893,-2.9607,-2.9589,-2.9551,-2.9437,-2.9456,-2.9456,-2.9456,-2.9332,-2.9332,0.0,0.0,0.0,0.0,0.0,0.0,0.0,0.0,0.0,0.0,0.0,0.0,0.0,0.0,0.0,0.0,0.0,0.0,0.0,0.0,0.0,0.0,0.0,0.0,0.0,-3.3196,-3.3419,-3.3578,-3.3606,-3.3652,-3.3807,-3.3961,-3.4099,-3.4176,-3.484,-3.5761,-3.6958,-3.7553,-3.8377,-3.949,-3.9611,-3.9662,-3.9662,-3.9665,-3.9704,-3.9781,-3.9781,-3.9835,-3.9923,-3.9884,-3.9884,-3.9927,-3.9869,-3.9888,-3.9918,-3.9927,-4.0033,-4.0288,-4.084,-4.1074,-4.1077,-4.1123,-4.1097,-4.1062,-4.1072,-4.1074,-4.1019,-4.0745,-4.0277,-3.9596,-3.8471,-3.771,-3.7087,-3.623,-3.5996,-3.5937,-3.5644,-3.5137,-3.4629,-3.4336,-3.3828,-3.332,-3.3047,-3.3008,-3.2714,-3.1758,-3.1748,-3.1599,-3.066,-3.0451,-3.0398,-3.0398,-3.0398,-3.0398,-3.0398,-3.0398,-3.0398,-3.0398,-3.0398,-3.0323,-3.015,-2.9868,-2.9727,-2.9794,-2.955,-2.9498,-2.9695,-2.9696,-2.9696,-2.9696,-2.957,-2.957,-2.9696,0.0,0.0,0.0,0.0,0.0,0.0,0.0,0.0,0.0,0.0,0.0,0.0,0.0,0.0,0.0,0.0,0.0,0.0,0.0,0.0,0.0,0.0,0.0,-3.2519,-3.2502,-3.2699,-3.316,-3.3202,-3.3361,-3.3734,-3.3788,-3.3902,-3.4171,-3.4987,-3.5581,-3.5864,-3.6939,-3.7563,-3.7602,-3.7862,-3.7993,-3.8012,-3.8001,-3.8005,-3.8005,-3.8005,-3.807,-3.8194,-3.8059,-3.807,-3.818,-3.8065,-3.8065,-3.819,-3.8197,-3.8239,-3.8461,-4.0096,-4.0723,-4.075,-4.0869,-4.0836,-4.0713,-4.0719,-4.0723,-4.0587,-3.9816,-3.9563,-3.9266,-3.7663,-3.7191,-3.7025,-3.6229,-3.5976,-3.5762,-3.4922,-3.4668,-3.4414,-3.3555,-3.334,-3.3105,-3.2324,-3.2168,-3.1874,-3.0899,-3.1324,-3.156,-3.066,-3.0451,-3.041,-3.0398,-3.0398,0.0,-3.0398,-3.0379,-3.0359,-3.0359,-3.034,-3.0321,-3.0321,-2.9544,-2.9301,-2.9894,-2.9232,-2.9068,-2.9655,-2.9712,-2.9713,-2.9713,-2.9713,-2.9713,-2.9713,0.0,0.0,0.0,0.0,0.0,0.0,0.0,0.0,0.0,0.0,0.0,0.0,0.0,0.0,0.0,0.0,0.0,0.0,0.0,0.0,0.0,-3.1832,-3.2466,-3.2821,-3.2633,-3.2763,-3.3413,-3.3324,-3.3243,-3.3361,-3.3625,-3.3815,-3.3902,-3.4321,-3.4885,-3.5558,-3.609,-3.6748,-3.7566,-3.7677,-3.7805,-3.7986,-3.7988,-3.7998,-3.7998,-3.7998,-3.8012,-3.8059,-3.8012,-3.8017,-3.806,-3.8007,-3.8027,-3.806,-3.8053,-3.8061,-3.8125,-3.8741,-3.8987,-3.8987,-3.9026,-3.9013,-3.8984,-3.8979,-3.8987,-3.8948,-3.8741,-3.8663,-3.8468,-3.7377,-3.7123,-3.7019,-3.6169,-3.5502,-3.5,-3.4766,-3.3809,-3.2832,-3.2598,-3.2051,-3.1523,-3.1309,-3.1269,-3.1172,-3.0897,-3.0958,-3.0921,-3.0552,-3.0472,-3.0452,-3.0402,-3.0398,0.0,-3.0398,-2.9852,-2.9467,-2.9467,-2.8948,-2.8582,-2.8582,-2.8371,-2.8302,-2.8456,-2.8833,-2.9097,-2.9257,-2.987,-3.0128,-2.9924,-3.0095,-3.0109,0.0,0.0,0.0,0.0,0.0,0.0,0.0,0.0,0.0,0.0,0.0,0.0,0.0,0.0,0.0,0.0,0.0,0.0,0.0,0.0,0.0,0.0,-3.1458,-3.2135,-3.2669,-3.2569,-3.2666,-3.3265,-3.291,-3.2695,-3.289,-3.3302,-3.355,-3.355,-3.3839,-3.4247,-3.4754,-3.5025,-3.5496,-3.6151,-3.6313,-3.6517,-3.6791,-3.6776,-3.6843,-3.6953,-3.6953,-3.6953,-3.6953,-3.6944,-3.6949,-3.6949,-3.6949,-3.6949,-3.6949,-3.6949,-3.6949,0.0,0.0,0.0,0.0,0.0,-3.8219,-3.8255,-3.8181,-3.8161,-3.8103,-3.7754,-3.7637,-3.7473,-3.6664,-3.6215,-3.5897,-3.5459,-3.4769,-3.404,-3.373,-3.293,-3.2109,-3.1738,-3.1269,-3.0898,-3.0898,-3.0898,-3.0898,-3.0898,-3.0544,0.0,-3.01,-3.0304,-3.0355,-2.995,-2.9866,-2.9737,-2.941,-2.8909,-2.8602,-2.8602,-2.8179,-2.789,-2.789,-2.7563,0.0,0.0,0.0,-2.8371,-2.9063,-2.9583,0.0,0.0,0.0,-3.0323,-3.0182,0.0,0.0,0.0,-3.2583,-3.3449,0.0,0.0,0.0,0.0,0.0,0.0,0.0,0.0,0.0,0.0,0.0,0.0,0.0,0.0,0.0,0.0,-3.1083,-3.172,-3.2295,-3.236,-3.2462,-3.2869,-3.2273,-3.1951,-3.2384,-3.2872,-3.3214,-3.3214,-3.3578,-3.3752,-3.3678,0.0,0.0,0.0,0.0,-3.4504,-3.4779,-3.4812,-3.4955,-3.5158,-3.5205,-3.5218,-3.5218,-3.5218,-3.5257,-3.5353,-3.5353,-3.5411,-3.5493,-3.5493,-3.5493,-3.5661,-3.7142,-3.7719,-3.7719,-3.7719,-3.7791,-3.7881,-3.7756,0.0,0.0,-3.6815,-3.6565,-3.6419,-3.5662,-3.4903,-3.4322,-3.4408,-3.3805,-3.2985,-3.2342,-3.2109,-3.1836,-3.1074,-3.0898,-3.0898,-3.0898,-3.082,-3.0742,-3.0742,-3.0059,-2.9432,-2.9377,-2.9852,-2.999,-2.9187,-2.9033,-2.8722,-2.7988,-2.7825,-2.7768,-2.7766,0.0,0.0,-2.7601,-2.6909,-2.6774,-2.7563,-2.6967,-2.7313,-2.889,-2.8948,-2.9371,-3.0237,-3.0256,-3.0302,-3.0398,-3.0398,-3.1256,-3.2891,-3.2891,-3.341,0.0,0.0,0.0,0.0,0.0,0.0,0.0,0.0,0.0,0.0,0.0,0.0,0.0,0.0,0.0,-3.1087,-3.1823,-3.2289,-3.2397,-3.2397,-3.2407,-3.2405,-3.2049,-3.1861,-3.1933,-3.2695,-3.3214,-3.3214,-3.3578,-3.3532,-3.2871,-3.2889,-3.2716,-3.2287,-3.2311,-3.2479,-3.2751,-3.2974,-3.3108,-3.3153,0.0,0.0,-3.341,-3.341,-3.3795,-3.4449,-3.4449,-3.4853,-3.5493,-3.5493,-3.5493,-3.5532,-3.5872,-3.5988,-3.5988,-3.5988,-3.6001,-3.6022,-3.6001,-3.5988,-3.5968,-3.5795,-3.5738,-3.5565,-3.4719,-3.4403,0.0,-3.3572,-3.2804,-3.2148,-3.2065,-3.1526,-3.0964,-3.0918,-3.0898,-3.0898,-3.0898,-3.0351,-2.9844,-2.9844,-2.9141,-2.8555,-2.8534,-2.8591,-2.8578,-2.8359,-2.8295,-2.8221,-2.8006,-2.7404,-2.697,-2.6852,-2.6273,-2.5865,-2.5813,-2.5649,-2.561,-2.5793,-2.6294,-2.7063,-2.8082,-2.8121,-2.8525,-2.9333,-2.9352,-2.9698,-3.0398,-3.0398,-3.1256,-3.2891,-3.2891,-3.3737,0.0,0.0,0.0,0.0,0.0,0.0,0.0,0.0,0.0,0.0,0.0,-2.9547,-2.9906,0.0,-3.0211,-3.0861,-3.1279,-3.1523,-3.1469,-3.1713,-3.2011,-3.2283,-3.1832,-3.1507,-3.1507,-3.2109,-3.2598,-3.2809,-3.2864,-3.2803,-3.2609,-3.2216,-3.1889,-3.1601,-3.1616,-3.1721,-3.1992,-3.2127,-3.2256,-3.2409,-3.2638,-3.2757,-3.2752,-3.2852,-3.3141,-3.3545,-3.3545,-3.3795,-3.4199,-3.4199,-3.4199,-3.4199,-3.4199,-3.4737,-3.5493,-3.5493,-3.5493,-3.5493,-3.5493,-3.5218,-3.4853,-3.4853,-3.4545,-3.4122,-3.368,-3.3299,-3.2916,-3.2542,-3.1848,-3.1209,-3.1286,-3.0969,-3.0572,-3.0261,-3.0208,-3.0093,-2.9687,-2.9258,-2.8945,-2.8945,-2.8242,-2.7656,-2.7656,-2.7263,-2.7073,-2.7441,-2.7464,-2.729,-2.6812,-2.6396,-2.6118,-2.6052,-2.568,-2.5441,-2.5413,-2.5371,-2.5337,-2.5346,-2.5726,-2.6351,-2.7217,-2.7255,-2.764,-2.8467,-2.889,-2.9313,-2.9756,-3.0198,-3.1064,-3.2295,-3.2295,-3.3449,0.0,0.0,0.0,0.0,0.0,0.0,0.0,-2.6596,-2.7373,-2.8007,-2.8607,-2.9071,-2.9267,-2.9415,-2.9688,-3.0193,-3.0448,-3.0531,-3.0335,-3.0704,-3.1254,-3.1849,-3.1506,-3.119,-3.119,-3.1565,-3.1899,-3.2121,-3.1987,-3.1931,-3.2001,-3.1399,-3.1024,-3.0953,-3.0943,-3.1035,-3.1256,-3.1306,-3.1424,-3.1653,-3.1915,-3.2048,-3.2041,-3.2192,-3.2377,-3.2549,-3.2703,-3.276,-3.276,-3.276,-3.276,-3.276,-3.276,-3.3637,-3.4946,-3.4974,-3.4988,-3.4988,-3.4988,-3.4545,-3.3949,-3.3949,-3.3468,-3.2872,-3.2718,-3.2218,-3.1684,-3.1554,-3.1023,-3.049,-3.0554,-3.0581,-3.0386,-2.9655,-2.9471,-2.9269,-2.8454,-2.8144,-2.8027,-2.8047,-2.7344,-2.6758,-2.6758,-2.6172,-2.5917,-2.657,-2.6617,-2.6329,-2.5604,-2.5539,-2.5535,-2.5493,-2.5503,-2.5503,-2.5493,-2.5453,-2.5415,-2.5421,-2.5379,-2.5648,-2.6361,-2.6381,-2.6805,-2.7673,-2.8309,-2.881,-2.9148,-2.9832,-3.0719,-3.1742,-3.1742,-3.3003,-2.0322,-2.0182,-2.1241,-2.277,-2.3127,-2.3529,0.0,-2.5897,-2.637,-2.6453,-2.6928,-2.7471,-2.8066,-2.8791,-2.9363,-2.9435,-3.0024,-3.0295,-2.9713,-2.9663,-2.9895,-3.0448,-3.0929,-3.119,-3.119,-3.1565,-3.1566,-3.0959,-3.125,-3.1005,-2.9978,-2.9837,-2.9624,-2.9282,-2.9269,-2.9274,-2.9315,-2.9556,-2.9679,-2.9712,-2.9926,-3.0031,-3.0031,-3.0065,-3.048,-3.1254,-3.1972,-3.2275,-3.2275,-3.2275,-3.2275,-3.2275,-3.2275,-3.2547,-3.2951,-3.3127,-3.3199,-3.3199,-3.3199,-3.3122,-3.3045,-3.3045,-3.2987,-3.2776,-3.2045,-3.1775,-3.1545,-3.0768,-3.0491,-3.0428,-3.049,-3.0516,-3.0335,-2.9594,-2.9416,-2.9182,-2.8374,-2.76,-2.7079,-2.7129,-2.6445,-2.5859,-2.5859,-2.5762,-2.5723,-2.582,-2.5839,-2.5776,-2.562,-2.5636,-2.5634,-2.5503,-2.5554,-2.5561,-2.5517,-2.5484,-2.5498,-2.5498,-2.5473,-2.5526,-2.5624,-2.5624,-2.6026,-2.6909,-2.7006,-2.7783,-2.9285,-2.9376,-3.0277,-3.187,-3.187,-3.2796,-1.7695,-1.8438,-1.9375,-2.1155,-2.1556,-2.1837,-2.2971,-2.3806,-2.4669,-2.5807,-2.6603,-2.7409,-2.8388,-2.8647,-2.8651,-2.8651,-2.8699,-2.866,-2.8367,-2.8682,-2.9013,-2.9227,-2.9805,-3.0435,-3.1151,-3.0959,-3.0793,-3.0699,-3.0064,-2.955,-2.9302,-2.8873,-2.864,-2.8636,-2.8659,-2.875,-2.8994,-2.9119,-2.9166,-2.9178,-2.9395,-2.9532,-2.9532,-2.9643,-2.9902,-3.0261,-3.0599,-3.075,-3.075,-3.075,-3.075,-3.075,-3.075,-3.0803,-3.1054,-3.2282,-3.2723,-3.2723,-3.2723,-3.2379,-3.1976,-3.1976,-3.1738,-3.1391,-3.1064,-3.0948,-3.0871,-3.0494,-3.0398,-3.0421,-3.043,-3.0441,-3.0124,-2.8892,-2.8585,-2.8223,-2.6903,-2.637,-2.6152,-2.6182,-2.5916,-2.5703,-2.5703,-2.5703,-2.5703,-2.5703,-2.5703,-2.5683,-2.566,-2.5683,-2.5683,-2.5611,-2.5636,-2.5658,-2.5629,-2.557,-2.5558,-2.5558,-2.5511,-2.5493,-2.5493,-2.5493,-2.5664,-2.6048,-2.6548,-2.7146,-2.7851,-2.8824,-2.968,-3.0399,-3.0911,-3.1799,-1.5462,-1.6433,-1.7092,-1.8934,-1.9619,-2.0073,-2.0825,-2.1779,-2.2948,-2.4368,-2.5462,-2.6454,-2.7293,-2.7575,-2.7557,-2.7393,-2.7283,-2.7209,-2.7216,-2.7661,-2.8076,-2.8463,-2.8873,-2.954,-3.0601,-3.0185,-2.9901,-2.9982,-2.8905,-2.8332,-2.86,-2.8045,-2.7895,-2.8252,-2.8347,-2.853,-2.8839,-2.8952,-2.8994,-2.9017,-2.92,-2.9289,-2.9289,-2.9436,-2.9495,-2.9495,-2.9495,-2.9495,-2.9495,-2.9495,-2.9495,-2.9495,-2.9495,-2.9551,-2.9775,-3.1195,-3.1751,-3.18,-3.18,-3.1385,-3.0871,-3.0914,-3.0652,-3.0311,-3.0367,-3.0398,-3.0398,-3.0398,-3.0398,-3.0398,-3.0398,-3.0398,-2.999,-2.8367,-2.796,-2.7511,-2.5834,-2.5503,-2.5551,-2.5564,-2.5633,-2.5662,-2.5662,-2.5683,-2.5703,-2.5703,-2.5703,-2.5703,-2.5703,-2.5703,-2.5703,-2.5703,-2.5703,-2.5703,-2.5703,-2.5659,-2.5633,-2.5633,-2.5573,-2.5554,-2.5554,-2.5554,-2.5554,-2.5554,-2.6174,-2.6619,-2.6852,-2.808,-2.8918,-2.9409,-3.0033,-3.0817,-1.2018,-1.3064,-1.4182,-1.6086,-1.7281,-1.8188,-1.9076,-2.0413,-2.144,-2.1529,-2.2659,-2.3634,-2.367,-2.5014,-2.5972,-2.5295,-2.586,-2.6442,-2.6519,-2.6578,-2.7056,-2.8367,-2.8511,-2.8779,-2.9406,-2.9326,-2.8966,-2.8217,-2.7944,-2.7702,-2.7368,-2.7317,-2.7503,-2.791,-2.8222,-2.8406,-2.842,-2.8815,-2.8994,-2.8994,-2.9017,-2.9017,-2.9017,-2.9017,-2.9021,-2.9021,-2.9021,-2.9021,-2.9021,-2.9021,-2.9021,-2.9021,-2.9021,-2.9181,-2.9412,-2.9488,-2.9626,-2.9789,-2.9789,-2.977,-2.9786,-2.9977,-3.0032,-3.0061,-3.0311,-3.0398,-3.0398,-3.0398,-3.0398,-3.0398,-3.0398,-3.0398,-2.9987,-2.8305,-2.7901,-2.7431,-2.5778,-2.5401,-2.5428,-2.5484,-2.5558,-2.5603,-2.5603,-2.566,-2.5703,-2.5703,-2.5703,-2.5703,-2.5703,-2.5703,-2.5703,-2.5703,-2.5703,-2.5703,-2.5703,-2.5703,-2.5703,-2.5703,-2.5703,-2.5683,-2.5683,-2.5683,-2.5683,-2.5683,-2.5723,-2.6152,-2.6992,-2.7031,-2.7949,-2.959,-2.9629,-3.0098,-1.0701,-1.1458,-1.2164,-1.404,-1.482,-1.532,-1.6347,-1.7833,-1.9184,-1.9551,-2.0928,-2.2214,-2.2547,-2.3323,-2.3739,-2.3566,-2.4377,-2.501,-2.5048,-2.5892,-2.6654,-2.7108,-2.758,-2.7993,-2.8174,-2.8794,-2.8894,-2.8144,-2.7922,-2.7521,-2.6945,-2.6911,-2.708,-2.7487,-2.7613,-2.7798,-2.8075,-2.8201,-2.8386,-2.8608,-2.8863,-2.8994,-2.8994,-2.8994,-2.8994,-2.8994,-2.8994,-2.8994,-2.8994,-2.8994,-2.8994,-2.8994,-2.8994,-2.9062,-2.9134,-2.9134,-2.9181,-2.9251,-2.9435,-2.9494,-2.9513,-2.957,-2.9696,-2.9845,-3.0061,-3.0136,-3.0163,-3.0355,-3.0398,-3.0398,-3.0398,-3.0398,-3.0121,-2.8967,-2.8294,-2.7593,-2.6448,-2.5785,-2.542,-2.5428,-2.5498,-2.552,-2.552,-2.5554,-2.5564,-2.5564,-2.5637,-2.5703,-2.5703,-2.5703,-2.5703,-2.5703,-2.5703,-2.5703,-2.5703,-2.5703,-2.5703,-2.5703,-2.5703,-2.5703,-2.5703,-2.5703,-2.5703,-2.5703,-2.5703,-2.584,-2.6133,-2.6719,-2.7305,-2.7891,-2.9062,-2.9766,-0.8534,-0.9065,-0.959,-1.1598,-1.2556,-1.3288,-1.3973,-1.5598,-1.7051,-1.739,-1.8899,-2.0232,-2.0611,-2.1384,-2.1981,-2.1981,-2.2813,-2.3551,-2.3774,-2.5148,-2.6176,-2.6457,-2.7152,-2.7625,-2.7625,-2.8403,-2.8651,-2.7902,-2.7627,-2.725,-2.6809,-2.6708,-2.6809,-2.708,-2.7213,-2.743,-2.7678,-2.784,-2.8075,-2.8402,-2.8658,-2.8863,-2.8994,-2.8994,-2.8994,-2.8994,-2.8994,-2.8994,-2.8994,-2.8994,-2.8994,-2.8994,-2.8994,-2.8994,-2.8994,-2.8994,-2.8994,-2.9021,-2.92,-2.9246,-2.9267,-2.9372,-2.9474,-2.9625,-2.9829,-2.9893,-2.9939,-3.0182,-3.0254,-3.0267,-3.0386,-3.0398,-3.0179,-2.9313,-2.8486,-2.7659,-2.6794,-2.5956,-2.5352,-2.5363,-2.5427,-2.5451,-2.5451,-2.5473,-2.5493,-2.5493,-2.5567,-2.5636,-2.566,-2.5683,-2.5703,-2.5703,-2.5703,-2.5703,-2.5703,-2.5703,-2.5703,-2.5703,-2.5703,-2.5703,-2.5703,-2.5703,-2.5703,-2.5703,-2.5703,-2.5703,-2.5703,-2.6269,-2.6699,-2.7031,-2.8144,-2.9004,-0.5514,-0.6053,-0.6594,-0.8599,-1.0542,-1.2004,-1.2004,-1.3621,-1.5021,-1.5021,-1.6504,-1.7784,-1.7794,-1.9291,-2.0451,-2.0526,-2.1302,-2.2163,-2.2832,-2.4315,-2.5618,-2.6336,-2.7086,-2.7575,-2.7625,-2.814,-2.817,-2.7455,-2.718,-2.6979,-2.6911,-2.6809,-2.6725,-2.6691,-2.7051,-2.7272,-2.7272,-2.7648,-2.802,-2.835,-2.8376,-2.859,-2.8952,-2.8994,-2.8994,-2.8994,-2.8994,-2.8994,-2.8994,-2.8994,-2.8994,-2.8994,-2.8994,-2.8994,-2.8994,-2.8994,-2.8994,-2.8994,-2.8994,-2.8994,-2.9044,-2.9289,-2.9392,-2.9414,-2.9607,-2.9696,-2.9748,-2.9939,-2.9999,-3.0075,-3.0311,-3.0398,-3.0198,-2.9352,-2.8544,-2.7717,-2.6851,-2.5986,-2.5341,-2.5303,-2.5337,-2.5391,-2.5379,-2.5453,-2.5479,-2.5479,-2.5484,-2.5526,-2.5595,-2.5658,-2.5683,-2.5683,-2.5683,-2.5683,-2.5703,-2.5683,-2.5683,-2.5683,-2.5683,-2.5683,-2.5683,-2.5703,-2.5703,-2.5683,-2.5683,-2.5683,-2.5683,-2.5683,-2.6113,-2.6933,-2.6973,-2.7871,-0.3509,-0.4443,-0.5375,-0.667,-0.7973,-0.9125,-0.9884,-1.1569,-1.2954,-1.2954,-1.4538,-1.6123,-1.6817,-1.7813,-1.8818,-1.9552,-2.091,-2.2002,-2.2163,-2.3551,-2.4851,-2.5563,-2.6336,-2.6982,-2.7575,-2.776,-2.7769,-2.7542,-2.8205,-2.8099,-2.6945,-2.73,-2.725,-2.6708,-2.6808,-2.6841,-2.6841,-2.7241,-2.75,-2.7572,-2.8139,-2.8446,-2.8565,-2.8863,-2.8994,-2.8994,-2.8994,-2.8994,-2.8994,-2.8994,-2.8994,-2.8994,-2.8994,-2.8994,-2.8994,-2.8994,-2.8994,-2.8994,-2.8994,-2.8994,-2.9017,-2.9067,-2.9089,-2.9156,-2.9414,-2.9589,-2.9713,-2.9763,-3.0037,-3.0267,-3.0136,-3.0254,-3.034,-3.0121,-2.9429,-2.8563,-2.7755,-2.689,-2.6082,-2.5418,-2.5313,-2.5331,-2.534,-2.5348,-2.5346,-2.5346,-2.5398,-2.5459,-2.5526,-2.5547,-2.5564,-2.5629,-2.5573,-2.5598,-2.5683,-2.5605,-2.5567,-2.5611,-2.5631,-2.5631,-2.5631,-2.5662,-2.5682,-2.5633,-2.5631,-2.5631,-2.5631,-2.5587,-2.5687,-2.5964,-2.6628,-2.7145,-0.3428,-0.4217,-0.4919,-0.5999,-0.7003,-0.7936,-0.8542,-1.0173,-1.1575,-1.1575,-1.3194,-1.4807,-1.579,-1.6738,-1.7629,-1.8576,-2.0204,-2.1365,-2.1365,-2.3062,-2.4452,-2.4851,-2.5837,-2.6669,-2.7086,-2.7408,-2.7625,-2.7625,-2.8348,-2.8295,-2.709,-2.7504,-2.747,-2.6708,-2.6691,-2.6691,-2.6691,-2.6939,-2.7115,-2.7303,-2.789,-2.8264,-2.8402,-2.8815,-2.8994,-2.8994,0.0,-2.8994,-2.8994,-2.8994,-2.8994,-2.8994,-2.8994,-2.8994,-2.8994,-2.8994,-2.8994,-2.8994,-2.8994,-2.8994,-2.8994,-2.8994,-2.8994,-2.904,-2.9178,-2.9312,-2.9416,-2.9533,-2.9767,-2.9962,-2.9984,-3.0103,-3.0254,-3.0367,-2.9737,-2.8967,-2.8525,-2.7467,-2.6351,-2.5457,-2.5303,-2.5303,-2.5303,-2.5303,-2.5303,-2.5303,-2.533,-2.5379,-2.5413,-2.5451,-2.5503,-2.5554,-2.5511,-2.5539,-2.5603,-2.5547,-2.5526,-2.5554,-2.5558,-2.5558,-2.5558,-2.5598,-2.5598,-2.5558,-2.5558,-2.5558,-2.5558,-2.5526,-2.5526,-2.5577,-2.6065,-2.6463,-0.3923,-0.4565,-0.4876,-0.581,-0.6816,-0.7588,-0.7715,-0.9145,-1.057,-1.0689,-1.2184,-1.3814,-1.4947,-1.5834,-1.6784,-1.7794,-1.9365,-2.0462,-2.059,-2.2567,-2.4047,-2.4292,-2.5508,-2.6404,-2.651,-2.7152,-2.7625,-2.7625,-2.8032,-2.8015,-2.7234,-2.7602,-2.7487,-2.6708,-2.6691,-2.6691,-2.6691,-2.6691,-2.6873,-2.7241,-2.7619,-2.7992,-2.8342,-2.8749,-2.8952,-2.8994,-2.8994,-2.8994,-2.8994,-2.8994,-2.8994,-2.8994,-2.8994,-2.8994,-2.8994,-2.8994,-2.8994,-2.8994,-2.8994,-2.8994,-2.8994,-2.8994,-2.8994,-2.8994,-2.8994,-2.9021,-2.9089,-2.9289,-2.9373,-2.9513,-2.9829,-2.9939,-3.0032,-3.0299,-2.9747,-2.9159,-2.9068,-2.7742,-2.6339,-2.558,-2.537,-2.5303,-2.5303,-2.5303,-2.5303,-2.5303,-2.5303,-2.5303,-2.5303,-2.5406,-2.5488,-2.5498,-2.5488,-2.5473,-2.5508,-2.5473,-2.5488,-2.5498,-2.5498,-2.5498,-2.5498,-2.5508,-2.5508,-2.5498,-2.5498,-2.5498,-2.5498,-2.5488,-2.5488,-2.5498,-2.5498,-2.594,-0.2938,-0.3676,-0.434,-0.4489,-0.5451,-0.6477,-0.7066,-0.8225,-0.9311,-0.9907,-1.1185,-1.2707,-1.4433,-1.5166,-1.6009,-1.7725,-1.8854,-1.9759,-2.0526,-2.1604,-2.2786,-2.4163,-2.5063,-2.5837,-2.6457,-2.7152,-2.7625,-2.7625,-2.8142,-2.8077,-2.7251,-2.7732,-2.7648,-2.6742,-2.6691,-2.6691,-2.6691,-2.6691,-2.6725,-2.6808,-2.721,-2.7619,-2.7992,-2.8342,-2.8682,-2.8994,-2.8994,0.0,-2.8994,-2.8994,-2.8994,-2.8994,-2.8994,-2.8994,-2.8994,-2.8994,-2.8994,-2.8994,-2.8994,-2.8994,-2.8994,-2.8994,-2.8994,-2.8994,-2.8994,-2.9156,-2.9289,-2.9112,-2.9355,-2.9626,-2.9532,-2.9644,-2.9815,-3.0032,-2.9829,-2.9447,-2.896,-2.7485,-2.6251,-2.6155,-2.568,-2.5303,-2.5303,-2.5303,-2.5303,-2.5303,-2.5303,-2.5303,-2.5303,-2.5322,-2.5354,-2.5408,-2.5379,-2.5376,-2.5484,-2.5406,-2.5363,-2.5408,-2.5415,-2.5415,-2.5427,-2.5477,-2.5463,-2.5427,-2.5427,-2.5427,-2.5427,-2.5363,-2.5371,-2.5415,-2.5427,-2.5848,-0.419,-0.464,-0.5006,-0.5006,-0.5778,-0.6683,-0.7027,-0.8274,-0.9591,-1.0372,-1.151,-1.292,-1.4985,-1.5437,-1.6118,-1.7755,-1.8721,-1.9628,-2.0462,-2.1365,-2.2372,-2.3531,-2.4724,-2.5564,-2.591,-2.6937,-2.7625,-2.7625,-2.7876,-2.7797,-2.725,-2.7309,-2.7173,-2.6708,-2.6691,-2.6691,-2.6691,-2.6691,-2.6691,-2.6691,-2.7115,-2.75,-2.7926,-2.8264,-2.8633,-2.8994,-2.8994,-2.8994,-2.8994,-2.8994,-2.8994,-2.8994,-2.8994,-2.8994,-2.8994,-2.8994,-2.8994,-2.8994,-2.8994,-2.8994,-2.8994,-2.8994,-2.8994,-2.8994,-2.8994,-2.9089,-2.9178,-2.904,-2.9163,-2.9355,-2.9373,-2.9474,-2.9626,-2.9924,-2.9924,-2.9633,-2.8764,-2.7612,-2.6607,-2.6214,-2.5551,-2.5049,-2.513,-2.5152,-2.5173,-2.5274,-2.5303,-2.5303,-2.5303,-2.5303,-2.5313,-2.5337,-2.5322,-2.534,-2.5391,-2.5339,-2.5313,-2.5357,-2.5346,-2.5337,-2.5357,-2.5368,-2.5376,-2.5357,-2.5357,-2.5357,-2.5357,-2.5313,-2.5322,-2.5365,-2.5801,-2.6236,-0.5463,-0.5846,-0.5983,-0.5983,-0.6639,-0.7359,-0.753,-0.8726,-1.0119,-1.1055,-1.1995,-1.322,-1.5433,-1.5842,-1.6376,-1.7794,-1.8586,-1.9365,-2.0462,-2.1175,-2.2002,-2.3005,-2.4323,-2.5215,-2.539,-2.6606,-2.7419,-2.756,-2.7444,-2.7303,-2.7206,-2.6788,-2.659,-2.6691,-2.6691,-2.6691,-2.6691,-2.6691,-2.6691,-2.6691,-2.7019,-2.7378,-2.7765,-2.8112,-2.8515,-2.8881,-2.8952,-2.8994,0.0,-2.8994,-2.8994,-2.8994,-2.8994,-2.8994,-2.8994,-2.8994,-2.8994,-2.8994,-2.8994,-2.8994,-2.8994,-2.8994,-2.8994,-2.8994,-2.8994,-2.8994,-2.8994,-2.8994,-2.8994,-2.9044,-2.9246,-2.931,-2.9375,-2.9693,-2.9845,-2.9623,-2.8724,-2.7935,-2.7161,-2.6355,-2.5574,-2.5055,-2.4975,-2.4949,-2.5018,-2.5171,-2.5233,-2.5243,-2.5243,-2.5274,-2.5303,-2.5303,-2.5303,-2.5303,-2.5303,-2.5303,-2.5303,-2.5303,-2.5303,-2.5303,-2.5303,-2.5303,-2.5303,-2.5303,-2.5303,-2.5274,-2.5243,-2.5243,-2.531,-2.5477,-2.6159,-2.6657,-0.5399,-0.5988,-0.6639,-0.6639,-0.7373,-0.8275,-0.8935,-0.9311,-0.9928,-1.141,-1.203,-1.2913,-1.51,-1.5728,-1.6376,-1.7794,-1.8076,-1.8721,-2.0398,-2.0655,-2.129,-2.2884,-2.3884,-2.466,-2.5333,-2.6136,-2.6905,-2.7545,-2.6934,-2.6718,-2.7185,-2.6488,-2.6262,-2.6691,-2.6691,-2.6691,-2.6691,-2.6691,-2.6691,-2.6691,-2.6725,-2.6971,-2.7348,-2.7783,-2.8129,-2.8471,-2.8839,-2.8994,0.0,-2.8994,-2.8994,-2.8994,-2.8994,-2.8994,-2.8994,-2.8994,-2.8994,-2.8994,-2.8994,-2.8994,-2.8994,-2.8994,-2.8994,-2.8994,-2.8994,-2.8994,-2.8994,-2.8994,-2.8994,-2.9017,-2.904,-2.904,-2.9044,-2.9071,-2.927,-2.9355,-2.9023,-2.8468,-2.7773,-2.6972,-2.6326,-2.5661,-2.4932,-2.4832,-2.4814,-2.4847,-2.4956,-2.5022,-2.5022,-2.5192,-2.5303,-2.5303,-2.5303,-2.5303,-2.5303,-2.5303,-2.5303,-2.5303,-2.5303,-2.5303,-2.5303,-2.5303,-2.5303,-2.5303,-2.5303,-2.5214,-2.5022,-2.5022,-2.5336,-2.5937,-2.6027,-2.6839,-0.6793,-0.7246,-0.7502,-0.7502,-0.8163,-0.8935,-0.9233,-1.0104,-1.122,-1.229,-1.2985,-1.4012,-1.5869,-1.6324,-1.6721,-1.7823,-1.8462,-1.9233,-2.0398,-2.13,-2.2277,-2.3517,-2.4331,-2.4892,-2.5189,-2.5983,-2.6624,-2.6947,-2.6336,-2.6127,-2.6579,-2.6205,-2.6227,-2.6691,-2.6691,-2.6691,-2.6691,-2.6691,-2.6691,-2.6691,-2.6691,-2.6906,-2.7317,-2.7725,-2.8075,-2.842,-2.8839,-2.8994,0.0,-2.8994,-2.8994,-2.8994,-2.8994,-2.8994,-2.8994,-2.8994,-2.8994,-2.8994,-2.8994,-2.8994,-2.8994,-2.8994,-2.8994,-2.8994,-2.8994,-2.8994,-2.8994,-2.8994,-2.8994,-2.8994,-2.8994,-2.9112,-2.9181,-2.904,-2.9203,-2.933,-2.9044,-2.8423,-2.7809,-2.7495,-2.6486,-2.5577,-2.5379,-2.4944,-2.4654,-2.479,-2.4842,-2.4877,-2.4877,-2.4949,-2.5006,-2.5006,-2.5171,-2.5303,-2.5303,-2.5303,-2.5303,-2.5303,-2.5303,-2.5303,-2.5303,-2.5173,-2.5111,-2.5111,-2.5037,-2.4962,-2.4877,-2.4877,-2.5277,-2.6004,-2.651,-2.732,-0.7832,-0.8156,-0.8355,-0.8355,-0.9069,-0.9722,-0.9964,-1.0961,-1.2074,-1.3122,-1.3795,-1.4708,-1.6374,-1.6665,-1.7012,-1.7871,-1.8721,-1.9671,-2.0716,-2.1899,-2.3055,-2.4091,-2.4564,-2.4888,-2.5082,-2.596,-2.6555,-2.6589,-2.5963,-2.5712,-2.5936,-2.5853,-2.6068,-2.6691,-2.6691,-2.6691,-2.6691,-2.6691,-2.6691,-2.6691,-2.6691,-2.6841,-2.7147,-2.753,-2.7908,-2.8264,-2.8658,-2.8905,0.0,-2.8994,-2.8994,-2.8994,-2.8994,-2.8994,-2.8994,-2.8994,-2.8994,-2.8994,-2.8994,-2.8994,-2.8994,-2.8994,-2.8994,-2.8994,-2.8994,-2.8994,-2.8994,-2.8994,-2.8994,-2.8994,-2.8994,-2.9156,-2.9225,-2.9044,-2.9156,-2.9225,-2.904,-2.8558,-2.8081,-2.7842,-2.6869,-2.6068,-2.5967,-2.5301,-2.4814,-2.4965,-2.482,-2.4716,-2.4716,-2.476,-2.4804,-2.4804,-2.5,-2.5171,-2.5214,-2.5214,-2.5214,-2.5214,-2.5214,-2.5192,-2.5149,-2.5018,-2.4937,-2.4937,-2.4855,-2.4775,-2.4716,-2.4716,-2.5233,-2.6184,-2.6762,-2.7567,-0.8027,-0.8613,-0.9274,-0.9274,-0.9913,-1.0807,-1.1586,-1.1772,-1.2258,-1.3846,-1.4204,-1.4708,-1.6374,-1.6665,-1.7012,-1.7871,-1.8721,-1.9788,-2.1174,-2.212,-2.3252,-2.4603,-2.4355,-2.4292,-2.5035,-2.596,-2.655,-2.6612,-2.5976,0.0,-2.5404,-2.529,-2.5672,-2.6657,-2.6691,-2.6691,-2.6691,-2.6691,-2.6691,-2.6691,-2.6691,-2.6691,-2.6725,-2.7115,-2.7547,-2.7926,-2.8264,-2.8633,0.0,-2.8994,-2.8994,-2.8994,-2.8994,-2.8994,-2.8994,-2.8994,-2.8994,-2.8994,-2.8994,-2.8994,-2.8994,-2.8994,-2.8994,-2.8994,-2.8994,-2.8994,-2.8994,-2.8994,-2.8994,-2.8994,-2.8994,-2.9017,-2.9017,-2.8994,-2.9017,-2.9017,-2.8994,-2.8975,-2.8737,-2.7952,-2.7787,-2.7512,-2.6722,-2.5915,-2.5384,-2.5384,-2.4893,-2.4512,-2.4512,-2.467,-2.4804,-2.4804,-2.4804,-2.4869,-2.4998,-2.501,-2.501,-2.501,-2.501,-2.4937,-2.4818,-2.4804,-2.4804,-2.4804,-2.4804,-2.47,-2.4512,-2.4512,-2.5227,-2.6594,-2.6594,-2.7457,-0.9582,-0.9977,-1.0295,-1.0843,-1.1212,-1.1655,-1.2451,-1.3061,-1.3597,-1.4085,-1.4628,-1.5377,-1.65,-1.6665,-1.7012,-1.7871,-1.9243,-2.0238,-2.0382,-2.2554,-2.4214,-2.434,-2.4452,-2.457,-2.4538,-2.5273,-2.5572,-2.5185,-2.5423,-2.5319,-2.4751,-2.4677,-2.5144,-2.6191,-2.6539,-2.6691,-2.6691,-2.6691,-2.6691,-2.6691,-2.6691,-2.6691,-2.6725,-2.7115,-2.7348,-2.753,-2.8139,-2.8471,0.0,-2.8905,-2.8994,-2.8994,-2.8994,-2.8994,-2.8994,-2.8994,-2.8994,-2.8994,-2.8994,-2.8815,-2.8633,-2.8905,-2.8797,-2.8633,-2.8929,-2.8994,-2.8994,-2.8994,-2.8994,-2.8994,-2.8994,-2.8994,-2.8994,-2.8994,-2.8994,-2.8994,-2.8994,-2.8994,-2.892,-2.8686,-2.8172,-2.7714,-2.7457,-2.6741,-2.6025,-2.5495,-2.5241,-2.493,-2.4377,-2.4339,-2.4393,-2.4393,-2.4393,-2.451,-2.4842,-2.485,-2.485,-2.485,-2.485,-2.4842,-2.4804,-2.467,-2.4591,-2.4591,-2.4461,-2.4357,-2.4303,-2.4303,-2.5094,-2.6612,-2.7163,-2.7989,-1.0975,-1.1296,-1.16,-1.2143,-1.2266,-1.2451,-1.3243,-1.3846,-1.4273,-1.4569,-1.505,-1.5684,-1.6572,-1.6665,-1.7012,-1.7871,-1.9312,-2.0434,-2.0698,-2.2975,-2.4566,-2.442,-2.4616,-2.4684,-2.4294,-2.475,-2.4883,-2.4517,-2.4941,-2.4882,-2.4135,-2.4266,-2.4712,-2.5373,-2.6052,-2.6453,-2.6453,-2.6624,-2.6691,-2.6691,-2.6691,-2.6691,-2.6725,-2.6971,-2.7147,-2.7317,-2.7805,-2.8084,0.0,-2.8482,-2.8651,-2.8773,-2.8773,-2.8863,-2.8994,-2.8994,-2.8994,-2.8994,-2.8994,-2.8749,-2.8446,-2.8682,-2.859,-2.8446,-2.8682,-2.8863,-2.8994,-2.8994,-2.8994,-2.8994,-2.8994,-2.8994,-2.8994,-2.8994,-2.8994,-2.8994,-2.8994,-2.8994,-2.8994,-2.8994,-2.8613,-2.8246,-2.8246,-2.7585,-2.6888,-2.6374,-2.6043,-2.5548,-2.4759,-2.4649,-2.4538,-2.4226,-2.419,-2.4303,-2.4543,-2.4639,-2.4685,-2.4685,-2.4685,-2.4654,-2.4594,-2.4444,-2.4393,-2.4393,-2.4247,-2.419,-2.419,-2.4502,-2.5162,-2.6172,-2.6961,-2.7622,0.0,-1.2451,-1.3009,-1.307,-1.307,-1.3312,-1.4085,-1.4273,0.0,-1.5235,-1.5439,-1.5723,-1.6582,-1.6758,-1.7051,-1.7871,-1.9145,-2.0529,-2.1911,-2.3328,-2.4314,-2.4753,-2.477,-2.4619,-2.4226,-2.4312,-2.438,-2.4447,-2.454,-2.4328,-2.364,-2.4074,-2.4348,-2.4348,-2.5335,-2.5924,-2.6013,-2.6487,-2.6691,-2.6691,-2.6691,-2.6691,-2.6691,-2.6691,-2.6906,0.0,-2.7303,0.0,0.0,-2.7926,-2.8129,-2.8402,-2.842,-2.8658,-2.8994,-2.8994,-2.8994,-2.8994,-2.8994,-2.8725,-2.835,-2.8324,-2.8324,-2.8368,-2.8394,-2.8682,-2.8994,-2.8994,-2.8994,-2.8994,-2.8994,-2.8994,-2.8994,-2.8994,-2.8994,-2.8994,-2.8994,-2.8994,-2.8994,-2.8994,-2.8994,-2.8994,-2.8994,-2.8374,-2.786,-2.7805,-2.7163,-2.6392,-2.5605,-2.5439,-2.5127,-2.4373,-2.4226,-2.419,-2.419,-2.4375,-2.4478,-2.4478,-2.4478,-2.4393,-2.4209,-2.419,-2.419,-2.419,-2.419,-2.419,-2.419,-2.4962,-2.5328,-2.5381,-2.6133,-2.6497,-1.3666,0.0,-1.313,-1.3786,-1.3906,-1.4154,0.0,-1.5108,-1.5167,-1.5352,-1.5684,-1.6074,-1.6631,-1.7002,-1.7402,-1.793,-1.9737,-2.1061,-2.1108,-2.2922,-2.4314,-2.4753,-2.4418,-2.3994,-2.3424,-2.4023,-2.4166,-2.3691,-2.4243,-2.4328,-2.364,-2.3724,-2.3794,-2.3794,-2.443,-2.5182,-2.5997,-2.6487,-2.6691,-2.6691,-2.6691,-2.6691,-2.6691,-2.6691,-2.6758,-2.6873,-2.7178,0.0,-2.747,-2.8057,-2.8342,-2.842,-2.8749,-2.8929,-2.8994,-2.8994,-2.8994,-2.8994,-2.8994,-2.8558,-2.7964,-2.7678,-2.7765,-2.8075,-2.8316,-2.8682,-2.8994,-2.8994,-2.8994,-2.8994,-2.8994,-2.8994,-2.8994,-2.8994,-2.8994,-2.8994,-2.8994,-2.8994,-2.8994,-2.8994,-2.8994,-2.8994,-2.8994,-2.8851,-2.8521,-2.7879,-2.764,-2.7236,-2.6429,-2.5768,-2.5329,-2.5146,-2.4557,-2.419,-2.419,-2.4247,-2.4266,-2.4266,-2.4266,-2.4247,-2.419,-2.419,-2.419,-2.419,-2.419,-2.419,-2.419,-2.4392,-2.4677,-2.5012,-2.5212,-2.5629,-1.4746,-1.4451,-1.4213,-1.4628,-1.4746,-1.4874,-1.5294,-1.541,-1.541,-1.541,-1.5762,-1.6201,-1.665,-1.7377,-1.7965,-1.8017,-2.0108,-2.1729,-2.2009,-2.2969,-2.3704,-2.4054,-2.3691,-2.3205,-2.2752,-2.3175,-2.3377,-2.3087,-2.3464,-2.3674,-2.361,-2.3595,-2.3595,-2.3595,-2.4116,-2.4776,-2.5615,-2.6139,-2.647,-2.6691,-2.6691,-2.6691,-2.6691,-2.6691,-2.6691,-2.6725,-2.6939,0.0,-2.7083,-2.7643,-2.8002,-2.821,-2.8583,-2.8839,-2.8994,-2.8994,-2.8994,-2.8975,-2.8773,-2.8237,-2.756,-2.7147,-2.7303,-2.7648,-2.7833,-2.829,-2.8773,-2.8952,-2.8994,-2.8994,-2.8994,-2.8994,-2.8994,-2.8994,-2.8994,-2.8994,-2.8994,-2.8994,-2.8994,-2.8994,-2.8994,-2.8994,-2.8994,-2.8994,-2.8847,-2.8429,-2.8356,-2.8062,-2.7255,-2.6759,-2.6229,-2.5495,-2.5017,-2.4593,-2.4226,-2.419,-2.419,-2.419,-2.419,-2.419,-2.419,-2.419,-2.419,-2.419,-2.419,-2.419,-2.419,-2.4054,-2.4094,-2.4342,-2.419,-2.4359,-1.541,-1.541,-1.541,-1.541,-1.541,-1.541,-1.541,-1.541,-1.543,-1.5498,-1.5859,-1.6309,-1.6748,-1.7765,-1.8385,-1.8063,-2.0201,-2.2284,-2.3383,-2.3273,-2.3124,-2.3194,-2.2862,-2.2555,-2.2326,-2.2321,-2.2391,-2.2592,-2.2668,-2.2965,-2.3551,-2.3595,-2.3595,-2.3595,-2.4032,-2.4552,-2.5067,-2.5689,-2.6191,-2.659,-2.6657,-2.6691,-2.6691,-2.6691,-2.6691,-2.6691,0.0,0.0,-2.6725,-2.7147,-2.7547,-2.7926,-2.8264,-2.8658,-2.8994,-2.8994,-2.8994,-2.8929,-2.8489,-2.7862,-2.7224,-2.6841,-2.6939,-2.721,-2.7272,-2.7747,-2.8342,-2.8773,-2.8952,-2.8994,-2.8994,-2.8994,-2.8994,-2.8994,-2.8994,-2.8994,-2.8994,-2.8994,-2.8994,-2.8994,-2.8994,-2.8994,-2.8994,-2.8994,-2.8994,-2.8994,-2.8994,-2.8737,-2.8062,-2.7879,-2.7273,-2.5917,-2.555,-2.5127,-2.4428,-2.4263,-2.419,-2.419,-2.419,-2.419,-2.419,-2.419,-2.419,-2.419,-2.4151,-2.4113,-2.4113,-2.3795,-2.3606,-2.3544,-2.3277,-2.3117,-1.541,-1.541,-1.541,-1.541,-1.541,-1.541,-1.541,-1.541,-1.5518,-1.5889,-1.6318,-1.6758,-1.7197,-1.7703,-1.8071,-1.8011,-1.9935,-2.1969,-2.3306,-2.3716,-2.3538,-2.2895,-2.2542,-2.2343,-2.2322,-2.196,-2.1952,-2.2564,-2.2668,-2.2965,-2.3551,-2.3595,-2.3595,-2.3595,-2.3681,-2.3991,-2.4511,-2.5503,-2.6049,-2.6104,-2.6505,-2.6691,-2.6691,-2.6691,-2.6691,-2.6691,0.0,-2.6691,-2.6725,-2.7147,-2.7547,-2.7926,-2.8264,-2.8658,-2.8994,-2.8994,-2.8994,-2.8905,-2.8228,-2.7678,-2.7224,-2.6841,-2.6758,-2.6841,-2.721,-2.7378,-2.7601,-2.8298,-2.8749,-2.8994,-2.8994,-2.8994,-2.8994,-2.8994,-2.8994,-2.8994,-2.8994,-2.8994,-2.8994,-2.8994,-2.8994,-2.8994,-2.8994,-2.8994,-2.8994,-2.8994,-2.8994,-2.8957,-2.881,-2.8227,-2.7695,-2.7457,-2.6211,-2.5348,-2.5237,-2.4575,-2.419,-2.419,-2.419,-2.419,-2.419,-2.419,-2.419,-2.419,-2.3917,-2.3774,-2.3774,-2.3437,-2.3117,-2.2848,-2.2797,-2.2772,-1.541,-1.541,-1.541,-1.541,-1.541,-1.541,-1.541,-1.5596,-1.582,-1.6086,-1.6611,-1.7119,-1.7331,-1.8118,-1.8924,-1.9698,-1.9846,-2.0413,-2.1847,-2.1485,-2.1274,-2.1841,0.0,-2.114,-2.1768,-2.139,-2.1238,-2.1605,-2.1363,-2.1622,-2.2542,-2.2306,-2.2283,-2.2562,-2.2577,-2.2851,-2.3488,-2.4241,-2.5077,-2.6013,-2.647,-2.6691,-2.6691,-2.6691,-2.6691,-2.6691,0.0,-2.6691,-2.6725,-2.7147,-2.7409,-2.7619,-2.8192,-2.8496,-2.8682,-2.8682,-2.8438,-2.8047,-2.7707,-2.7303,-2.6939,-2.6758,-2.6691,-2.6725,-2.6939,-2.7115,-2.7378,-2.7718,-2.8102,-2.8482,-2.8905,-2.8839,-2.8725,-2.8952,-2.8994,-2.8994,-2.8994,-2.8994,-2.8994,-2.8994,-2.8994,-2.8994,-2.8994,-2.8994,-2.8994,-2.8994,-2.8994,-2.8994,-2.8994,-2.8686,-2.8282,-2.7842,-2.6958,-2.6111,-2.5456,-2.4853,-2.4431,-2.4226,-2.419,-2.419,-2.419,-2.419,-2.4113,-2.3937,-2.3774,-2.361,-2.3414,-2.3093,-2.2848,-2.2695,-2.2563,-2.2473,-1.541,-1.541,-1.541,-1.541,-1.541,-1.5439,-1.5537,-1.582,-1.6184,-1.639,-1.6914,-1.7448,-1.7524,-1.8342,-1.9411,-2.0733,-1.9717,-1.9157,-2.0283,-1.9578,-1.9388,-2.0717,-2.0163,-2.0123,-2.1219,-2.079,-2.0526,-2.0601,-2.0237,-2.0419,-2.1456,-2.1124,-2.1167,-2.1695,-2.1695,-2.1934,-2.2443,-2.3099,-2.4214,-2.5815,-2.628,-2.659,-2.6691,-2.6691,-2.6691,-2.6691,-2.6691,-2.6691,-2.6725,-2.7019,-2.7192,-2.7348,-2.8029,-2.8342,-2.8394,-2.8394,-2.7929,-2.7303,-2.7303,-2.7036,-2.6691,-2.6691,-2.6691,-2.6691,-2.6691,-2.7004,-2.7334,-2.7409,-2.7589,-2.7936,-2.8676,-2.8682,-2.8633,-2.8929,-2.8994,-2.8994,-2.8994,-2.8994,-2.8994,-2.8994,-2.8994,-2.8994,-2.8994,-2.8994,-2.8994,-2.8994,-2.8994,-2.8994,-2.8994,-2.8994,-2.8714,-2.8027,-2.7501,-2.6627,-2.5266,-2.4765,-2.4404,-2.411,-2.4151,-2.419,-2.419,-2.4113,-2.3958,-2.3714,-2.3544,-2.3346,-2.3069,-2.2764,-2.2599,-2.2599,-2.2415,-2.231,-1.541,-1.541,-1.541,-1.541,-1.541,-1.5518,-1.5918,-1.6105,-1.636,-1.7119,-1.7344,-1.75,-1.7881,-1.8066,-1.8378,-1.9301,-1.9318,-1.9276,-1.939,-1.9672,-1.978,-1.978,-1.9714,-1.9908,-2.0673,-2.0213,-1.9927,-2.0043,-2.0012,-2.0288,-2.0923,-2.0934,-2.1167,-2.1695,-2.1695,-2.1724,-2.1769,-2.2854,-2.4021,-2.5259,-2.5799,-2.6297,-2.6691,-2.6691,-2.6691,-2.6691,-2.6691,-2.6691,-2.6691,-2.6725,-2.6954,-2.7348,-2.7765,-2.8129,-2.8394,-2.8394,-2.7929,-2.7303,-2.7303,-2.7036,-2.6691,-2.6691,-2.6691,-2.6691,-2.6691,-2.7004,-2.7378,-2.7754,-2.7589,-2.7512,-2.8246,-2.8682,-2.8952,-2.8994,-2.8994,-2.8994,-2.8994,-2.8994,-2.8994,-2.8994,-2.8994,-2.8994,-2.8994,-2.8994,-2.8994,-2.8994,-2.8994,-2.8994,-2.8994,-2.8994,-2.8845,-2.8399,-2.7662,-2.644,-2.4548,-2.4001,-2.3786,-2.3753,-2.4016,-2.419,-2.419,-2.3896,-2.3714,-2.3692,-2.3093,-2.2772,-2.2746,-2.2463,-2.2321,-2.2321,-2.231,-2.231,-1.541,-1.541,-1.541,-1.541,-1.5191,-1.5177,-1.5955,-1.6547,-1.6982,-1.7314,-1.7588,-1.7822,-1.7978,-1.8008,-1.8105,-1.8466,-1.8476,-1.8375,-1.8167,-1.8255,-1.8573,-1.9257,-1.901,-1.9289,-2.0557,-1.9849,-1.9333,-1.9364,-1.8746,-1.8763,-1.9628,-1.9332,-1.9573,-2.0438,-2.0453,-2.0647,-2.1081,-2.1499,-2.2509,-2.4107,-2.5403,-2.6068,-2.6262,-2.659,-2.6691,-2.6691,-2.6691,-2.6691,-2.6691,-2.6691,-2.6791,-2.6971,-2.7348,-2.7601,-2.7718,-2.7718,-2.7361,-2.6939,-2.6939,-2.6825,-2.6691,-2.6691,-2.6691,-2.6758,-2.7004,-2.7178,-2.7378,-2.7783,-2.7783,-2.7851,-2.8583,-2.8558,-2.843,-2.8881,-2.8994,-2.8994,-2.8994,-2.8994,-2.8929,-2.8682,-2.8839,-2.8839,-2.8386,-2.87,-2.8929,-2.8658,-2.8839,-2.8994,-2.8994,-2.8773,-2.8565,-2.842,-2.7486,-2.6313,-2.4863,-2.4343,-2.3862,-2.3427,-2.3896,-2.4094,-2.3896,-2.3774,-2.3482,-2.3093,-2.2822,-2.2625,-2.2436,-2.2349,-2.231,-2.231,-2.231,-2.231,-1.5108,-1.4991,-1.4961,-1.4786,-1.463,-1.4709,-1.5404,-1.6271,-1.6997,-1.713,-1.7148,-1.729,-1.7736,-1.7561,-1.7387,-1.7561,-1.7571,-1.7456,-1.7209,-1.7079,-1.7349,-1.8354,-1.8076,-1.8357,-1.9691,-1.9145,-1.8694,-1.8518,-1.7802,-1.7707,-1.8356,-1.8206,-1.8496,-1.9406,-1.9603,-1.9914,-2.0378,-2.0602,-2.1439,-2.2893,-2.4601,-2.5622,-2.6013,-2.6487,-2.6691,-2.6691,-2.6691,-2.6691,-2.6691,-2.6691,-2.6774,-2.6906,-2.7178,-2.7303,-2.7303,-2.7303,-2.7051,-2.6691,-2.6691,-2.6691,-2.6691,-2.6691,-2.6691,-2.6758,-2.7036,-2.7303,-2.7547,-2.7823,-2.7982,-2.8183,-2.8839,-2.8533,-2.8201,-2.87,-2.8905,-2.8994,-2.8994,-2.8905,-2.8725,-2.8446,-2.8558,-2.8533,-2.8147,-2.8386,-2.8651,-2.8608,-2.8725,-2.8863,-2.8975,-2.8658,-2.8298,-2.8084,-2.7049,-2.5924,-2.493,-2.4416,-2.3839,-2.3098,-2.3566,-2.3795,-2.3544,-2.3437,-2.3165,-2.2721,-2.2485,-2.2347,-2.231,-2.2135,-2.2152,-2.231,-2.231,-2.231,-1.4451,-1.4213,-1.4063,-1.3509,-1.3753,-1.4181,-1.4468,-1.5222,-1.6013,-1.6477,-1.5868,-1.5641,-1.7126,-1.6578,-1.6052,-1.6578,-1.6733,-1.6721,-1.6679,-1.6367,-1.6341,-1.7071,-1.6949,-1.7092,-1.7828,-1.8093,-1.7978,-1.7426,-1.7375,-1.7377,-1.7297,-1.7827,-1.8341,-1.8893,-1.9406,-1.969,-1.969,-2.0363,-2.1036,-2.1695,-2.34,-2.4843,-2.6013,-2.647,-2.6691,-2.6691,-2.6691,-2.6691,-2.6691,-2.6691,-2.6939,-2.7286,-2.7286,-2.7286,-2.7286,-2.7286,-2.7019,-2.6691,-2.6691,-2.6691,-2.6691,-2.6691,-2.6691,-2.6691,-2.6691,-2.7272,-2.7897,-2.7897,-2.8129,-2.8489,-2.8905,-2.87,-2.8394,-2.8402,-2.8707,-2.8994,-2.8994,-2.8682,-2.8394,-2.8394,-2.8129,-2.7992,-2.8324,-2.8129,-2.8147,-2.8881,-2.8658,-2.854,-2.8929,-2.8633,-2.8112,-2.7378,-2.6273,-2.5321,-2.456,-2.415,-2.3552,-2.2764,-2.3021,-2.3189,-2.3189,-2.2873,-2.2695,-2.2695,-2.196,-2.1823,-2.2282,-2.1823,-2.1823,-2.2282,-2.231,-2.231,-1.456,-1.4213,-1.4063,-1.3509,-1.3241,-1.3328,-1.4263,-1.4947,-1.5514,-1.6043,-1.5769,-1.5729,-1.6745,-1.6655,-1.6515,-1.6677,-1.6687,-1.6587,-1.6327,-1.5921,-1.5772,-1.6245,-1.5924,-1.6162,-1.7357,-1.7171,-1.7042,-1.7388,-1.6999,-1.6944,-1.7284,-1.7827,-1.8341,-1.8893,-1.9406,-1.969,-1.969,-1.9884,-2.0333,-2.1006,-2.2322,-2.383,-2.5449,-2.6315,-2.6691,-2.6691,-2.6691,-2.6691,-2.6691,-2.6691,-2.6791,-2.6873,-2.6873,-2.6873,-2.6873,-2.6873,-2.6808,-2.6691,-2.6691,-2.6691,-2.6691,-2.6691,-2.6691,-2.6758,-2.7036,-2.7303,-2.7547,-2.7811,-2.7982,-2.8093,-2.8201,-2.8316,-2.8471,-2.8749,-2.8929,-2.8929,-2.8633,-2.8471,-2.8246,-2.7718,-2.7765,-2.7823,-2.766,-2.7765,-2.8047,-2.8515,-2.8471,-2.8368,-2.8228,-2.788,-2.7422,-2.6939,-2.6588,-2.6082,-2.5338,-2.47,-2.4011,-2.3244,-2.2809,-2.2643,-2.2848,-2.2746,-2.2625,-2.2426,-2.1866,-2.1658,-2.1794,-2.1658,-2.1658,-2.1823,-2.2152,-2.231,-1.4145,-1.3726,-1.3553,-1.2794,-1.2417,-1.2387,-1.3239,-1.3956,-1.4571,-1.5152,-1.4539,-1.4169,-1.5248,-1.5168,-1.4954,-1.5032,-1.5299,-1.5345,-1.4939,-1.4884,-1.4955,-1.5134,-1.4997,-1.5304,-1.6414,-1.6232,-1.6348,-1.6992,-1.6722,-1.6637,-1.6951,-1.7706,-1.8263,-1.8574,-1.9332,-1.969,-1.969,-1.969,-2.0034,-2.0722,-2.1618,-2.2754,-2.4141,-2.5716,-2.6505,-2.6691,-2.6691,-2.6691,-2.6691,-2.6691,-2.6691,-2.6691,-2.6691,-2.6691,-2.6691,-2.6691,-2.6691,-2.6691,-2.6691,-2.6691,-2.6691,-2.6691,-2.6691,-2.6758,-2.7004,-2.7286,-2.7589,-2.784,-2.812,-2.8352,-2.8352,-2.8507,-2.8658,-2.8749,-2.8749,-2.87,-2.8446,-2.8166,-2.7833,-2.7378,-2.7365,-2.7396,-2.7317,-2.75,-2.7794,-2.8156,-2.821,-2.8075,-2.7707,-2.7439,-2.7147,-2.6758,-2.6691,-2.6404,-2.5659,-2.5186,-2.4492,-2.346,-2.2987,-2.2666,-2.2554,-2.2537,-2.2392,-2.2032,-2.1598,-2.1368,-2.1368,-2.1165,-2.1259,-2.1628,-2.1899,-2.2106,-1.3425,-1.2972,-1.2656,-1.1681,-1.145,-1.1523,-1.1744,-1.248,-1.3286,-1.3966,-1.2702,-1.1862,-1.3243,-1.2821,-1.2329,-1.2546,-1.3118,-1.3431,-1.3165,-1.3652,-1.4044,-1.4053,-1.4175,-1.4535,-1.5156,-1.5406,-1.5776,-1.6466,-1.6522,-1.6522,-1.6522,-1.7504,-1.8106,-1.8106,-1.9132,-1.969,-1.969,-1.969,-2.0004,-2.0617,-2.1167,-2.1745,-2.2388,-2.483,-2.6195,-2.6691,-2.6691,-2.6691,-2.6691,-2.6691,-2.6691,-2.6691,-2.6691,-2.6691,-2.6691,-2.6691,-2.6691,-2.6691,-2.6691,-2.6691,-2.6691,-2.6691,-2.6691,-2.6691,-2.6691,-2.721,-2.7811,-2.784,-2.8334,-2.8905,-2.8905,-2.8952,-2.8905,-2.8446,-2.8394,-2.8394,-2.835,-2.7805,-2.7303,-2.7241,-2.6971,-2.6841,-2.7241,-2.7272,-2.7378,-2.7765,-2.784,-2.7707,-2.7365,-2.7272,-2.7115,-2.6758,-2.6691,-2.642,-2.5761,-2.5642,-2.5033,-2.368,-2.346,-2.3105,-2.2446,-2.2344,-2.2077,-2.1628,-2.1213,-2.0959,-2.0926,-2.0516,-2.0732,-2.1552,-2.1582,-2.1853,-1.3416,-1.271,-1.225,-1.1533,-1.1597,-1.167,-1.1269,-1.1376,-1.1682,-1.2508,-1.2141,-1.1955,-1.2669,-1.2623,-1.2469,-1.2251,-1.275,-1.3189,-1.3134,-1.3426,-1.364,-1.3652,-1.3412,-1.3659,-1.4716,-1.4846,-1.5332,-1.6423,-1.6522,-1.6522,-1.6522,-1.7504,-1.8106,-1.8106,-1.9132,-1.969,-1.969,-1.969,-1.9765,0.0,-2.0565,-2.1164,-2.1755,-2.4151,-2.5763,-2.6691,-2.6691,-2.6691,-2.6691,-2.6691,-2.6691,-2.6691,-2.6691,-2.6691,-2.6691,-2.6691,-2.6691,-2.6691,-2.6691,-2.6691,-2.6691,-2.6691,-2.6691,-2.6691,-2.6691,-2.6808,-2.7019,-2.7317,-2.7765,-2.8147,-2.8147,-2.8576,-2.8815,-2.8174,-2.821,-2.8342,-2.8047,-2.7648,-2.721,-2.6906,-2.6758,-2.6841,-2.7241,-2.7019,-2.6971,-2.7348,-2.7409,-2.7378,-2.7303,-2.7019,-2.6791,-2.6725,-2.6691,-2.6623,-2.6471,-2.593,-2.5473,-2.5152,-2.4036,-2.3325,-2.3173,-2.2615,-2.2077,-2.1628,-2.1213,-2.0829,-2.0449,-2.0348,-2.0583,-2.1134,-2.146,-2.1853,-1.3537,-1.2833,-1.2355,-1.1469,-1.1336,-1.1369,-1.1062,-1.0882,-1.0904,-1.1127,-1.1051,-1.1087,-1.137,-1.1308,-1.112,-1.0785,-1.132,-1.1705,-1.1534,-1.2191,-1.2679,-1.2673,-1.2801,-1.3382,-1.456,-1.4698,-1.5197,-1.6423,-1.6522,-1.6522,-1.6522,-1.7504,-1.8106,-1.8106,-1.9132,-1.969,-1.969,-1.969,-1.969,-1.969,-2.0049,-2.0752,-2.1856,-2.3667,-2.4896,-2.5642,-2.5642,-2.5642,-2.5642,-2.5642,-2.5642,-2.5676,-2.6031,-2.6167,-2.6218,-2.6573,-2.6691,-2.6691,-2.6691,-2.6691,-2.6691,-2.6691,-2.6691,-2.6691,-2.6691,-2.6841,-2.7051,-2.747,-2.7851,-2.8129,-2.8129,-2.8438,-2.8583,-2.8037,-2.802,-2.8075,-2.7678,-2.7303,-2.6971,-2.6758,-2.6691,-2.6758,-2.6971,-2.6841,-2.6858,-2.7241,-2.7147,-2.7019,-2.7019,-2.6841,-2.6691,-2.6691,-2.6691,-2.6691,-2.6691,-2.6353,-2.5981,-2.5625,-2.4543,-2.3688,-2.309,-2.2341,-2.1764,-2.1306,-2.0878,-2.0465,-2.0,-2.0,-2.0227,-2.0682,-2.0878,-2.1321,-1.3777,-1.305,-1.2554,-1.1314,-1.0995,-1.0982,-1.0929,-1.0728,-1.0408,-0.9983,-0.999,-1.0059,-0.9983,-0.9792,-0.9528,-0.9169,-0.9722,-1.012,-0.9847,-1.0856,-1.1674,-1.1765,-1.2344,-1.318,-1.4433,-1.4652,-1.5152,-1.6238,-1.6423,-1.6522,-1.6522,-1.7422,-1.7987,-1.8106,-1.9043,-1.9603,-1.969,-1.969,-1.969,-1.969,-1.969,-2.0466,-2.1921,-2.2932,-2.3815,-2.4506,-2.4506,-2.4506,-2.4506,-2.4506,-2.4506,-2.4574,-2.5169,-2.549,-2.5676,-2.6285,-2.659,-2.6691,-2.6691,-2.6691,-2.6691,-2.6691,-2.6691,-2.6725,-2.6774,-2.7036,-2.7378,-2.7851,-2.8156,-2.8316,-2.8316,-2.8316,-2.8192,-2.7794,-2.7754,-2.7725,-2.7348,-2.6987,-2.6691,-2.6691,-2.6691,-2.6691,-2.6691,-2.6691,-2.6808,-2.7147,-2.6906,-2.6691,-2.6691,-2.6691,-2.6691,-2.6691,-2.6691,-2.6657,-2.659,-2.659,-2.6337,-2.5697,-2.4876,-2.3978,-2.2928,-2.2017,-2.1326,-2.0894,-2.0483,-2.0089,-1.969,-1.969,-1.9909,-2.0314,-2.0382,-2.0813,-1.4314,-1.3215,-1.2077,-1.1238,-1.0995,-1.0929,-1.0739,-1.0371,-0.9983,-0.9283,-0.9636,-0.992,-0.9421,-0.9272,-0.9169,-0.8923,-0.9415,-0.9836,-0.9805,-1.0431,-1.1141,-1.1724,-1.1873,-1.2453,-1.3815,-1.4376,-1.4971,-1.5676,-1.6194,-1.6522,-1.6522,-1.7076,-1.7626,-1.8106,-1.8688,-1.9244,-1.969,-1.969,-1.969,-1.969,-1.969,-2.02,-2.1135,-2.1295,-2.2537,-2.4506,-2.4506,-2.4506,-2.4506,-2.4506,-2.4506,-2.4523,-2.4625,-2.5033,-2.5625,-2.571,-2.615,-2.6691,-2.6691,-2.6691,-2.6691,-2.6691,-2.6691,-2.6758,-2.7115,-2.7272,-2.7439,-2.8139,-2.8156,-2.7982,-2.7982,-2.7982,-2.7765,-2.7019,-2.7115,-2.7365,-2.7303,-2.6987,-2.6691,-2.6691,-2.6691,-2.6691,-2.6691,-2.6691,-2.6725,-2.6791,-2.6725,-2.6691,-2.6691,-2.6691,-2.6691,-2.6691,-2.6691,-2.6556,-2.612,-2.6068,-2.6035,-2.5936,-2.4818,-2.4032,-2.3753,-2.2186,-2.1042,-2.0398,-2.0348,-2.0089,-1.969,-1.969,-1.9909,-2.0314,-2.0715,-2.0959,-1.466,-1.3108,-1.1918,-1.1553,-1.112,-1.0611,-0.9862,-0.9618,-0.9199,-0.8177,-0.8202,-0.8359,-0.8079,-0.8233,-0.833,-0.8212,-0.8752,-0.926,-0.9242,-0.9829,-1.0498,-1.1166,-1.1566,-1.2355,-1.3674,-1.4329,-1.4971,-1.5543,-1.6151,-1.6522,-1.6522,-1.6993,-1.7544,-1.8066,-1.8612,-1.9169,-1.969,-1.969,-1.969,-1.969,-1.969,-2.0154,-2.0991,-2.0991,-2.182,-2.3274,-2.3274,-2.3274,-2.3274,-2.3274,-2.3274,-2.3308,-2.3714,-2.4069,-2.4425,-2.4831,-2.5456,-2.6082,-2.6082,-2.6353,-2.6725,-2.6954,-2.7036,-2.7115,-2.75,-2.7636,-2.7707,-2.802,-2.7992,-2.784,-2.7619,-2.756,-2.7409,-2.6841,-2.6858,-2.6954,-2.6954,-2.6808,-2.6691,-2.6691,-2.6691,-2.6691,-2.6691,-2.6691,-2.6691,-2.6691,-2.6691,-2.6691,-2.6691,-2.6691,-2.6691,-2.6691,-2.6691,-2.6505,-2.6049,-2.6227,-2.6139,-2.5577,-2.4895,-2.4216,-2.3658,-2.2113,-2.107,-2.0521,-2.0178,-1.9874,-1.969,-1.969,-1.9782,-1.9965,-2.0174,-2.0398,-1.5002,-1.3339,-1.2081,-1.1834,-1.0975,-1.0013,-0.916,-0.8759,-0.818,-0.7081,-0.6768,-0.6625,-0.6445,-0.6961,-0.7422,-0.7399,-0.8025,-0.854,-0.8533,-0.9099,-0.9814,-1.0466,-1.1166,-1.2003,-1.3178,-1.3993,-1.4732,-1.532,-1.592,-1.6337,-1.6479,-1.6879,-1.7353,-1.7867,-1.8419,-1.8968,-1.9479,-1.9639,-1.969,-1.969,-1.969,-2.007,-2.0829,-2.0959,-2.1415,-2.2135,-2.2254,-2.231,-2.231,-2.231,-2.231,-2.2361,-2.2919,-2.3224,-2.346,-2.4002,-2.4678,-2.5355,-2.5541,-2.5964,-2.6504,-2.7109,-2.7303,-2.7378,-2.788,-2.7982,-2.7926,-2.7992,-2.788,-2.7678,-2.7378,-2.7224,-2.7051,-2.6791,-2.6691,-2.6691,-2.6691,-2.6691,-2.6691,-2.6691,-2.6691,-2.6691,-2.6691,-2.6691,-2.6691,-2.6691,-2.6691,-2.6691,-2.6691,-2.6691,-2.6657,-2.6539,-2.6505,-2.6332,-2.5852,-2.6139,-2.6016,-2.5259,-2.4857,-2.4303,-2.346,-2.2123,-2.1188,-2.0722,-2.0034,-1.969,-1.969,-1.969,-1.969,-1.969,-1.9803,-1.9965,-1.5496,-1.41,-1.2757,-1.202,-1.0431,-0.9057,-0.9023,-0.8054,-0.7005,-0.622,-0.5813,-0.5405,-0.4743,-0.5766,-0.6683,-0.6673,-0.7257,-0.7747,-0.7777,-0.8374,-0.9113,-0.9762,-1.0415,-1.1116,-1.1864,-1.3082,-1.4097,-1.4698,-1.532,-1.5908,-1.6466,-1.6522,-1.6795,-1.7312,-1.7867,-1.8419,-1.893,-1.9442,-1.969,-1.969,-1.969,-1.9909,-2.0348,-2.0797,-2.1244,-2.1658,-2.2106,-2.231,-2.231,-2.231,-2.231,-2.231,-2.2344,-2.2784,-2.3393,-2.3427,-2.3917,-2.4675,-2.5372,-2.5642,-2.5842,-2.6954,-2.7303,-2.7439,-2.8166,-2.8156,-2.7982,-2.829,-2.7862,-2.7334,-2.7303,-2.7036,-2.6725,-2.6691,-2.6691,-2.6691,-2.6691,-2.6691,-2.6691,-2.6691,-2.6691,-2.6691,-2.6691,-2.6691,-2.6691,-2.6691,-2.6691,-2.6691,-2.6691,-2.6691,-2.6521,-2.6085,-2.6049,-2.5815,-2.5297,-2.5259,-2.5259,-2.5221,-2.4705,-2.4129,-2.3437,-2.2282,-2.1389,-2.0722,-2.0034,-1.969,-1.969,-1.969,-1.969,-1.9726,-2.0089,-2.007,-1.6543,-1.5079,-1.378,-1.2586,-1.1204,-0.9786,-0.8753,-0.7736,-0.6816,-0.586,-0.5216,-0.4802,-0.4519,-0.5289,-0.5891,-0.5869,-0.6529,-0.7133,-0.7616,-0.7943,-0.8521,-0.9658,-1.0415,-1.1065,-1.1715,-1.3034,-1.405,-1.4652,-1.5276,-1.5864,-1.6466,-1.6522,-1.6752,-1.7271,-1.7827,-1.8535,-1.9406,-1.9603,-1.969,-1.969,-1.969,-2.0085,-2.0764,-2.0926,-2.1385,-2.2061,-2.2237,-2.231,-2.231,-2.231,-2.231,-2.231,-2.231,-2.2462,-2.2699,-2.2699,-2.3156,-2.3816,-2.4103,-2.4814,-2.5739,-2.6667,-2.7291,-2.7765,-2.8246,-2.8316,-2.8156,-2.7805,-2.7482,-2.7241,-2.7004,-2.6808,-2.6691,-2.6691,-2.6691,-2.6691,-2.6691,-2.6691,-2.6691,-2.6691,-2.6691,-2.6691,-2.6691,-2.6691,-2.6691,-2.6691,-2.6691,-2.6691,-2.6691,-2.6436,-2.6191,-2.6013,-2.5689,-2.5259,-2.4736,-2.5335,-2.5259,-2.4225,-2.4632,-2.4523,-2.3572,-2.2355,-2.159,-2.135,-2.0243,-1.969,-1.969,-1.969,-1.969,-1.9711,-1.9839,-1.9839,-1.7764,-1.6004,-1.4436,-1.3274,-1.159,-0.9895,-0.8816,-0.7698,-0.6745,-0.5999,-0.5321,-0.486,-0.486,-0.5003,-0.5152,-0.5152,-0.576,-0.6416,-0.6902,-0.7176,-0.7765,-0.8974,-0.9681,-1.0442,-1.1366,-1.2492,-1.3474,-1.4329,-1.496,0.0,-1.6194,-1.638,-1.6837,-1.7544,-1.7907,-1.8612,-1.969,-1.969,-1.969,-1.969,-1.969,-2.007,-2.0764,-2.0926,-2.1385,-2.2061,-2.2237,-2.231,-2.231,-2.231,-2.231,-2.231,-2.231,-2.231,-2.231,-2.231,-2.2615,-2.3071,-2.3308,-2.4126,-2.524,-2.6423,-2.7128,-2.7617,-2.82,-2.8219,-2.7946,-2.7439,-2.721,-2.7036,-2.6791,-2.6691,-2.6691,-2.6691,-2.6691,-2.6691,-2.6691,-2.6691,-2.6691,-2.6691,-2.6691,-2.6691,-2.6691,-2.6691,-2.6691,-2.6691,-2.6691,-2.6691,-2.6691,-2.6297,-2.5924,-2.5762,-2.5259,-2.4792,-2.443,-2.5051,-2.5028,-2.3964,-2.4552,-2.4552,-2.3638,-2.2383,-2.1695,-2.1695,-2.0363,-1.969,-1.969,-1.969,-1.969,-1.969,-1.969,-1.969,0.0,0.0,0.0,-1.3974,-1.1501,-0.9276,-0.9272,-0.7929,-0.6653,-0.6653,-0.6069,-0.5546,-0.5491,-0.4974,-0.4515,-0.4519,-0.5058,-0.5487,-0.5487,-0.6145,-0.6858,-0.7616,-0.833,-0.9252,-1.0661,-1.1416,-1.2346,-1.3721,-1.4376,-1.4971,-1.5588,-1.6194,-1.6993,-1.8066,-1.8106,-1.8612,-1.969,-1.969,-1.969,-1.969,-1.969,-1.9909,-2.0348,-2.0797,-2.1213,-2.1658,-2.2106,-2.231,-2.231,-2.231,-2.231,-2.231,-2.231,-2.231,-2.231,-2.231,-2.231,-2.2412,-2.3122,-2.3591,-2.4195,-2.6117,-2.6711,-2.6853,-2.7985,-2.7819,-2.7234,-2.7234,-2.6935,-2.6623,-2.6657,-2.6674,-2.6691,-2.6691,-2.6691,-2.6691,-2.6691,-2.6691,-2.6691,-2.6691,-2.6691,-2.6691,-2.6691,-2.6691,-2.6691,-2.6691,-2.6691,-2.6691,-2.6691,-2.6262,-2.5762,-2.5221,-2.4712,-2.4389,-2.4389,-2.4389,-2.4389,-2.4389,-2.4389,-2.4158,-2.3638,-2.2383,-2.1695,-2.1695,-2.0363,-1.969,-1.969,-1.969,-1.969,-1.969,-1.969,-1.969,-1.9425,0.0,0.0,0.0,0.0,0.0,-1.0559,-0.9221,-0.8133,-0.8133,-0.7133,-0.6136,-0.5597,-0.5324,-0.5058,-0.457,-0.468,-0.4948,-0.5433,-0.6145,-0.6858,-0.7616,-0.8764,-0.985,-1.0712,-1.1416,-1.2346,0.0,-1.4376,-1.4971,-1.5588,-1.6194,-1.6993,-1.8066,-1.8106,-1.8612,-1.969,-1.969,-1.969,-1.969,-1.969,-2.0085,-2.0829,-2.0926,-2.1415,-2.2106,-2.2237,-2.231,-2.231,-2.231,-2.231,-2.231,-2.231,-2.231,-2.231,-2.231,-2.231,-2.2344,-2.2547,-2.3011,-2.3716,-2.4734,-2.5288,-2.5635,-2.6145,-2.6001,-2.5657,-2.5347,-2.5178,-2.522,-2.5778,-2.6302,-2.6691,-2.6691,-2.6691,-2.6691,-2.6691,-2.6691,-2.6691,-2.6691,-2.6691,-2.6691,-2.6691,-2.6691,-2.6691,-2.6691,-2.6691,-2.659,-2.6227,-2.5726,-2.5221,-2.4672,-2.4158,-2.3837,-2.3837,-2.4199,-2.4225,-2.3837,-2.4199,-2.4158,-2.3638,-2.2383,-2.152,-2.1126,-1.9788,-1.9132,-1.9132,-1.953,-1.969,-1.969,-1.969,-1.969,-2.0213,-1.8776,-1.7274,-1.5163,0.0,0.0,-1.1846,-1.0734,-0.9813,-0.9253,-0.8237,-0.7281,-0.6563,-0.614,-0.5819,-0.5441,-0.5391,-0.5386,-0.5487,-0.5869,-0.6529,-0.7557,-0.8652,-0.974,-1.0712,-1.1416,-1.2267,-1.3314,-1.4201,-1.5062,-1.5908,-1.6293,-1.6993,-1.8066,-1.8106,-1.8612,-1.969,-1.969,-1.969,-1.969,-1.969,-2.0154,-2.0991,-2.0991,-2.1493,-2.231,-2.231,-2.231,-2.231,-2.231,-2.231,-2.231,-2.231,-2.231,-2.231,-2.231,-2.231,-2.231,-2.231,-2.2632,-2.323,-2.3981,-2.4401,-2.4701,-2.5172,-2.5112,-2.482,-2.4567,-2.4506,-2.4608,-2.5033,-2.5693,-2.6234,-2.6234,-2.6471,-2.6691,-2.6691,-2.6691,-2.6691,-2.6691,-2.6691,-2.6691,-2.6691,-2.6691,-2.6691,-2.6691,-2.6691,-2.6521,-2.6049,-2.5524,-2.4973,-2.4471,-2.3921,-2.3595,-2.3595,-2.3879,-2.3906,-2.3638,-2.3879,-2.3921,-2.3595,-2.2147,-2.1208,-2.0905,-1.9594,-1.9006,-1.9244,-1.9332,-1.9369,-1.9369,-1.9132,-1.9043,-2.1169,-1.93,-1.739,-1.6672,-1.5291,0.0,-1.3228,-1.2561,-1.1648,-1.0466,-0.9614,-0.8815,-0.8143,-0.7444,-0.6897,-0.6848,-0.6848,-0.6573,-0.576,-0.5706,-0.6249,-0.7557,-0.8383,-0.9356,-1.0661,-1.1416,-1.2129,-1.292,-1.4107,-1.5287,-1.6423,-1.6522,-1.6993,-1.8066,-1.8106,-1.8612,-1.969,-1.969,-1.969,-1.969,-1.969,-2.0154,-2.0991,-2.0991,-2.1493,-2.231,-2.231,-2.231,-2.231,-2.231,-2.231,-2.231,-2.231,-2.231,-2.231,-2.231,-2.231,-2.231,-2.2321,-2.25,-2.2842,-2.365,-2.384,-2.3908,-2.4639,-2.4562,-2.4269,-2.4269,-2.432,-2.4388,-2.4388,-2.4932,-2.5507,-2.5592,-2.6099,-2.659,-2.6674,-2.6691,-2.6691,-2.6691,-2.6691,-2.6691,-2.6691,-2.6691,-2.6691,-2.6691,-2.6657,-2.6436,-2.5961,-2.5449,-2.491,-2.4389,-2.3879,-2.3595,-2.3595,-2.3595,-2.3595,-2.3595,-2.3595,-2.3595,-2.3595,-2.1867,-2.0864,-2.0822,-1.9502,-1.9043,-1.953,-1.9095,-1.8893,-1.8893,-1.8341,-1.8106,-2.1913,-2.0726,-1.9421,-1.7484,-1.676,0.0,-1.5222,-1.4451,-1.3736,-1.3104,-1.196,-1.0931,-1.0253,-0.9563,-0.8906,-0.8371,-0.8266,-0.7858,-0.6578,-0.6907,-0.7391,-0.767,-0.8817,-0.9902,-1.0712,-1.1416,-1.2307,-1.3542,-1.4732,-1.5732,-1.6479,-1.6522,-1.6993,-1.8066,-1.8106,-1.8612,-1.969,-1.969,-1.969,-1.969,-1.969,-2.0154,-2.0991,-2.0991,-2.1493,-2.231,-2.231,-2.231,-2.231,-2.231,-2.231,-2.231,-2.231,-2.231,-2.231,-2.231,-2.231,-2.2321,-2.2537,-2.266,-2.2764,-2.3214,-2.315,-2.2955,-2.3137,-2.2956,-2.2733,-2.2733,-2.3156,-2.3613,-2.3613,-2.4154,-2.4847,-2.5456,-2.571,-2.5981,-2.6573,-2.6691,-2.6691,-2.6691,-2.6691,-2.6691,-2.6691,-2.6691,-2.6691,-2.6691,-2.6367,-2.5961,-2.5411,-2.491,-2.4348,-2.3794,-2.3681,-2.3595,-2.3595,-2.3595,-2.3595,-2.3595,-2.3595,-2.3595,-2.3595,-2.1867,-2.0697,-2.0259,-1.893,-1.8302,-1.8419,-1.8727,-1.8893,-1.8893,-1.8341,-1.8106,-2.263,-2.1388,-2.0078,-1.8987,-1.8335,0.0,0.0,-1.6242,-1.5581,-1.4658,-1.3739,-1.2912,-1.2234,-1.1594,-1.0997,-1.0311,-1.021,-0.9862,-0.8829,-0.8678,-0.8835,-0.9214,-1.0143,-1.0914,-1.1266,-1.1931,-1.2871,-1.4143,-1.5096,-1.5864,-1.6466,-1.6522,-1.6993,-1.8066,-1.8106,-1.8612,-1.969,-1.969,-1.969,-1.969,-1.9894,-2.033,-2.1007,-2.1213,-2.1675,-2.231,-2.231,-2.231,-2.231,-2.231,-2.231,-2.231,-2.231,-2.231,-2.231,-2.231,-2.231,-2.2349,-2.2599,-2.2625,-2.2537,-2.2848,-2.2738,-2.25,-2.25,-2.2415,-2.231,-2.231,-2.2581,-2.2852,-2.2852,-2.3393,-2.4036,-2.4408,-2.5067,-2.571,-2.6065,-2.6437,-2.6691,-2.6691,-2.6691,-2.6691,-2.6691,-2.6691,-2.6624,-2.6401,-2.6367,-2.598,-2.4934,-2.4776,-2.4511,-2.3681,-2.3595,-2.3595,-2.3595,-2.3595,-2.3595,-2.3595,-2.3595,-2.3359,-2.2774,-2.1312,-2.0049,-1.9128,-1.8167,-1.7947,-1.8496,-1.8224,-1.8263,-1.8496,-1.7947,-1.7706,-2.3262,-2.1879,-2.0431,-2.035,-1.9775,-1.9056,0.0,0.0,0.0,-1.6307,-1.5647,-1.5092,-1.4572,-1.3956,-1.3351,-1.2807,0.0,0.0,0.0,-1.1335,0.0,-1.0805,-1.1516,-1.2003,-1.2003,-1.2871,-1.3789,-1.4663,-1.5365,-1.6008,-1.6466,-1.6522,-1.6993,-1.8066,-1.8106,-1.8612,-1.969,-1.969,-1.969,-1.9711,-2.0089,-2.055,-2.0991,-2.1399,-2.1869,-2.231,-2.231,-2.231,-2.231,-2.231,-2.231,-2.231,-2.231,-2.231,-2.231,-2.231,-2.2338,-2.2443,-2.2686,-2.2652,-2.2508,-2.2738,-2.2563,-2.231,-2.231,-2.231,-2.231,-2.2377,-2.2349,-2.231,-2.236,-2.279,-2.3224,-2.3359,-2.4306,-2.522,-2.5372,-2.5964,-2.6488,-2.6488,-2.659,-2.6691,-2.6691,-2.6691,-2.6556,-2.6085,-2.6245,-2.5928,-2.4576,-2.4712,-2.4552,-2.3681,-2.3595,-2.3595,-2.3595,-2.3595,-2.3595,-2.3595,-2.349,-2.2962,-2.1917,-2.0512,-1.9112,-1.7814,-1.7463,-1.7747,-1.8574,-1.7706,-1.7504,-1.7947,-1.7394,-1.7146,-2.3927,-2.266,-2.1379,-2.0999,-2.0825,-2.0616,-2.0067,0.0,-1.9685,-1.9057,0.0,-1.8021,-1.7969,0.0,0.0,-1.6332,-1.6001,-1.5745,-1.569,-1.5591,-1.4361,-1.1182,-1.1944,-1.2677,-1.2677,-1.4275,-1.5141,-1.4744,-1.5744,-1.6423,-1.6522,-1.6522,-1.6993,-1.8066,-1.8106,-1.8612,-1.969,-1.969,-1.969,-1.9711,-2.0089,-2.055,-2.0991,-2.1399,-2.1869,-2.231,-2.231,-2.231,-2.231,-2.231,-2.231,-2.231,-2.231,-2.231,-2.231,-2.231,-2.2497,-2.2764,-2.3038,-2.3117,-2.3093,-2.3117,-2.2773,-2.231,-2.231,-2.231,-2.2349,-2.2651,-2.2525,-2.2332,-2.2599,-2.2542,-2.2598,-2.3241,-2.3528,-2.3833,-2.4458,-2.5203,-2.5727,-2.5727,-2.6251,-2.6691,-2.6691,-2.6691,-2.6556,-2.6085,-2.5652,-2.5144,-2.4471,-2.4032,-2.3767,-2.3595,-2.3595,-2.3595,-2.3595,-2.3595,-2.3595,-2.3595,-2.3086,-2.2518,-2.1946,-1.9722,-1.7929,-1.6735,-1.7076,-1.7353,-1.7463,-1.7353,-1.7353,-1.7394,-1.6837,-1.6595,-2.4137,-2.3204,-2.2231,0.0,0.0,0.0,-2.1586,0.0,-2.1117,0.0,0.0,0.0,0.0,0.0,0.0,0.0,-1.7817,-1.7434,0.0,0.0,-1.6303,-1.4225,0.0,0.0,-1.3924,-1.4937,-1.5499,-1.5231,-1.602,-1.6522,-1.6522,-1.6795,-1.7312,-1.8066,-1.8419,-1.893,-1.969,-1.969,-1.969,-1.9726,-2.0398,-2.0797,-2.1023,-2.1705,-2.2106,-2.231,-2.231,-2.231,-2.231,-2.231,-2.231,-2.231,-2.231,-2.231,-2.231,-2.231,-2.2508,-2.2807,-2.3093,-2.3069,-2.2873,-2.2721,-2.2508,-2.231,-2.231,-2.231,-2.2349,-2.2669,-2.2517,-2.236,-2.2634,-2.25,-2.2395,-2.2699,-2.3088,-2.3477,-2.3782,-2.4425,-2.4949,-2.4949,-2.5558,-2.6065,-2.6065,-2.642,-2.6556,-2.6085,-2.6033,-2.5672,-2.4536,-2.4471,-2.4266,-2.3681,-2.3595,-2.3595,-2.3595,-2.3595,-2.3445,-2.3086,-2.1547,-2.0232,-1.9331,-1.7617,-1.6641,-1.6429,-1.6373,-1.6617,-1.7312,-1.6629,-1.6318,-1.6318,-1.6083,-1.594,-2.4261,0.0,0.0,0.0,0.0,0.0,0.0,0.0,0.0,0.0,0.0,0.0,0.0,0.0,-2.0495,-2.0067,0.0,-1.9275,-1.8836,-1.8785,-1.8235,-1.6833,0.0,0.0,0.0,-1.5947,-1.6219,-1.6034,-1.6471,-1.6795,-1.6909,-1.7146,-1.7626,-1.8302,-1.8688,-1.9169,-1.969,-1.969,-1.969,-1.9726,-2.0565,-2.0991,-2.1039,-2.1915,-2.231,-2.231,-2.231,-2.231,-2.231,-2.231,-2.231,-2.231,-2.231,-2.231,-2.231,-2.2388,-2.259,-2.2873,-2.3117,-2.2972,-2.266,-2.2388,-2.231,-2.2293,-2.2388,-2.2398,-2.2463,-2.2764,-2.2625,-2.2436,-2.266,-2.25,-2.231,-2.231,-2.2716,-2.3105,-2.3105,-2.3663,-2.4188,-2.4188,-2.478,-2.5304,-2.5304,-2.6082,-2.6505,-2.5872,-2.6068,-2.5783,-2.4348,-2.4511,-2.4471,-2.3681,-2.3595,-2.3535,-2.3355,-2.3212,-2.2712,-2.1774,-1.9921,-1.8363,-1.7144,-1.6311,-1.594,-1.6176,-1.594,-1.6157,-1.6841,-1.6015,-1.5443,-1.5129,-1.5276,-1.5431,0.0,0.0,0.0,-2.3187,0.0,0.0,0.0,0.0,-2.3168,0.0,0.0,0.0,0.0,-2.2807,-2.2513,-2.2495,-2.2095,0.0,0.0,-2.1748,-2.0728,-1.7885,-1.7642,0.0,0.0,-1.7666,-1.78,-1.7179,-1.7231,-1.7504,-1.8027,-1.7585,-1.7787,-1.8855,-1.8893,-1.9169,-1.969,-1.969,-1.969,-1.9726,-2.0565,-2.0991,-2.1039,-2.1915,-2.231,-2.231,-2.231,-2.231,-2.231,-2.231,-2.231,-2.231,-2.231,-2.231,-2.2321,-2.2599,-2.2898,-2.3189,-2.3189,-2.2972,-2.266,-2.2388,-2.231,-2.2349,-2.2625,-2.2695,-2.2746,-2.3093,-2.2947,-2.2695,-2.2695,-2.25,-2.231,-2.231,-2.2327,-2.2344,-2.2344,-2.2919,-2.3427,-2.3427,-2.4019,-2.4557,-2.4557,-2.5727,-2.635,-2.5373,-2.5259,-2.4871,-2.3752,-2.3638,-2.3638,-2.3595,-2.3595,-2.3355,-2.2798,-2.2247,-2.1155,-1.9349,-1.8654,-1.7764,-1.6471,-1.6454,-1.6194,-1.5632,-1.6194,-1.6194,-1.5632,-1.5632,-1.4994,-1.3862,-1.4468,-1.505,0.0,0.0,-2.3633,-2.3981,0.0,0.0,0.0,0.0,0.0,0.0,0.0,0.0,0.0,-2.3971,-2.3728,-2.3727,-2.341,-2.3159,0.0,-2.3038,-2.2467,-2.1055,-2.0009,-1.9082,0.0,0.0,-1.8363,-1.7826,-1.7814,-1.7907,-1.8106,-1.8263,-1.8535,-1.8893,-1.9244,-1.953,-1.969,-1.969,-1.969,-1.9726,-2.0565,-2.0991,-2.1039,-2.1915,-2.231,-2.231,-2.231,-2.231,-2.231,-2.231,-2.231,-2.231,-2.231,-2.2398,-2.259,-2.2686,-2.2923,-2.3189,-2.3189,-2.2972,-2.266,-2.2388,-2.231,-2.2349,-2.2625,-2.259,-2.2527,-2.3063,-2.2832,-2.249,-2.266,-2.25,-2.231,-2.231,-2.231,-2.231,-2.231,-2.2513,-2.2682,-2.2682,-2.3274,-2.3765,-2.3765,-2.4357,-2.473,-2.4407,-2.4677,-2.459,-2.3603,-2.3483,-2.3351,-2.3023,-2.2592,-2.2263,-2.2054,-2.1149,-1.9976,-1.8654,-1.7617,-1.6492,-1.5309,-1.5287,-1.5197,-1.5017,-1.5197,-1.5421,-1.5588,-1.4812,-1.4179,-1.3768,-1.312,-1.3348,-2.4153,-2.4042,0.0,-2.4319,-2.428,0.0,-2.4607,0.0,-2.48,0.0,0.0,0.0,0.0,-2.462,-2.4483,-2.4494,-2.4295,-2.4161,0.0,-2.3934,-2.3622,-2.3163,-2.177,-2.059,-1.9836,-1.972,-1.9465,-1.8925,-1.8811,-1.8835,0.0,0.0,-1.9315,-1.952,-1.9886,-1.9929,-1.969,-1.969,-1.9782,-1.9909,-2.0665,-2.1055,-2.1244,-2.1974,-2.231,-2.231,-2.231,-2.231,-2.231,-2.231,-2.231,-2.231,-2.231,-2.2463,-2.2721,-2.2848,-2.3021,-2.3189,-2.3069,-2.2815,-2.2527,-2.2349,-2.236,-2.249,-2.266,-2.2652,-2.2686,-2.2965,-2.273,-2.2463,-2.2537,-2.2426,-2.231,-2.231,-2.231,-2.231,-2.231,-2.231,-2.231,-2.231,-2.2682,-2.2975,-2.2794,-2.2936,-2.3194,-2.3537,-2.3789,-2.367,-2.2886,-2.2823,-2.2681,-2.2364,-2.1949,-2.1471,-2.083,-1.9846,-1.8727,-1.7411,-1.6591,-1.5608,-1.4422,-1.4789,-1.4926,-1.4698,-1.4926,-1.5096,-1.5276,-1.4272,-1.3569,-1.3082,-1.2209,-1.2395]},{"header":{"parameterUnit":"m.s-1","parameterCategory":1,"la1":30.6,"la2":29.2853,"lo1":-89.7004,"lo2":-87.6739,"dy":0.0162,"dx":0.0183,"nx":112,"ny":82,"refTime":"2023-09-08T06:00:00:Z","depth":0,"parameterNumber":3,"parameterNumberName":"V-component_of_WINDS"},"data":[0.0,0.0,0.0,0.0,0.0,0.0,0.0,0.0,0.0,0.0,0.0,0.0,0.0,0.0,0.0,0.0,0.0,0.0,0.0,0.0,0.0,0.0,0.0,0.0,0.0,0.0,0.0,0.0,0.0,0.0,0.0,0.0,0.0,0.0,0.0,0.0,0.0,0.0,0.0,0.0,0.0,0.0,0.0,0.0,0.0,0.0,0.0,0.0,0.0,0.0,0.0,0.0,0.0,0.0,0.0,0.0,0.0,0.0,0.0,0.0,0.0,0.0,0.0,0.0,0.0,0.0,0.0,0.0,0.0,0.0,0.0,0.0,0.0,0.0,0.0,0.0,0.0,0.0,0.0,0.0,0.0,0.0,0.0,0.0,0.0,0.0,0.0,0.0,0.0,0.0,-0.0067,-0.0202,-0.0873,-0.1742,-0.2811,-0.3547,-0.4743,-0.6588,0.0,0.0,0.0,0.0,0.0,0.0,0.0,0.0,0.0,0.0,0.0,0.0,0.0,0.0,0.0,0.0,0.0,0.0,0.0,0.0,0.0,0.0,0.0,0.0,0.0,0.0,0.0,0.0,0.0,0.0,0.0,0.0,0.0,0.0,0.0,0.0,0.0,0.0,0.0,0.0,0.0,0.0,0.0,0.0,0.0,0.0,0.0,0.0,0.0,0.0,0.0,0.0,0.0,0.0,0.0,0.0,0.0,0.0,0.0,0.0,0.0,0.0,0.0,0.0,0.0,0.0,0.0,0.0,0.0,0.0,0.0,0.0,0.0,0.0,0.0,0.0,0.0,0.0,0.0,0.0,0.0,0.0,0.0,0.0,0.0,0.0,0.0,0.0,0.0,0.0,0.0,0.0,0.0,0.0,0.0,0.0,0.0,0.0,0.0,0.0,0.0,0.0,0.0,0.0,-0.0269,-0.1006,-0.1207,-0.2009,-0.368,-0.3949,-0.4743,-0.6588,0.0,0.0,0.0,0.0,0.0,0.0,0.0,0.0,0.0,0.0,0.0,0.0,0.0,0.0,0.0,0.0,0.0,0.0,0.0,0.0,0.0,0.0,0.0,0.0,0.0,0.0,0.0,0.0,0.0,0.0,0.0,0.0,0.0,0.0,0.0,0.0,0.0,0.0,0.0,0.0,0.0,0.0,0.0,0.0,0.0,0.0,0.0,0.0,0.0,0.0,0.0,0.0,0.0,0.0,0.0,0.0,0.0,0.0,0.0,0.0,0.0,0.0,0.0,0.0,0.0,0.0,0.0,0.0,0.0,0.0,0.0,0.0,0.0,0.0,0.0,0.0,0.0,0.0,0.0,0.0,0.0,0.0,0.0,0.0,0.0,0.0,0.0,0.0,0.0,0.0,0.0,0.0,0.0,0.0,0.0,0.0,0.0,0.0,0.0,0.0,0.0,0.0,0.0,-0.0404,-0.0873,-0.1274,-0.2209,-0.3078,-0.3949,-0.4486,-0.554,-0.7307,-0.7762,0.0,0.0,0.0,0.0,0.0,0.0,0.0,0.0,0.0,0.0,0.0,0.0,0.0,0.0,0.0,0.0,0.0,0.0,0.0,0.0,0.0,0.0,0.0,0.0,0.0,0.0,0.0,0.0,0.0,0.0,0.0,0.0,0.0,0.0,0.0,0.0,0.0,0.0,0.0,0.0,0.0,0.0,0.0,0.0,0.0,0.0,0.0,0.0,0.0,0.0,0.0,0.0,0.0,0.0,0.0,0.0,0.0,0.0,0.0,0.0,0.0,0.0,0.0,0.0,0.0,0.0,0.0,0.0,0.0,0.0,0.0,0.0,0.0,0.0,0.0,0.0,0.0,0.0,0.0,0.0,0.0,0.0,0.0,0.0,0.0,0.0,0.0,0.0,0.0,0.0,0.0,0.0,0.0,0.0,0.0,0.0,0.0,0.0,0.0,0.0,0.0,0.0,-0.0873,-0.1474,-0.1876,-0.3145,-0.4082,-0.4284,-0.515,-0.6338,-0.7897,-0.8221,0.0,0.0,0.0,0.0,0.0,0.0,0.0,0.0,0.0,0.0,0.0,0.0,0.0,0.0,0.0,0.0,0.0,0.0,0.0,0.0,0.0,0.0,0.0,0.0,0.0,0.0,0.0,0.0,0.0,0.0,0.0,0.0,0.0,0.0,0.0,0.0,0.0,0.0,0.0,0.0,0.0,0.0,0.0,0.0,0.0,0.0,0.0,0.0,0.0,0.0,0.0,0.0,0.0,0.0,0.0,0.0,0.0,0.0,0.0,0.0,0.0,0.0,0.0,0.0,0.0,0.0,0.0,0.0,0.0,0.0,0.0,0.0,0.0,0.0,0.0,0.0,0.0,0.0,0.0,0.0,0.0,0.0,0.0,0.0,0.0,0.0,0.0,0.0,0.0,0.0,0.0,0.0,0.0,0.0,0.0,0.0,0.0,0.0,0.0,0.0,0.0,0.0,-0.1274,-0.1941,-0.3613,-0.3949,-0.435,-0.5226,-0.6137,-0.6981,-0.7962,-0.8748,0.0,0.0,0.0,0.0,0.0,0.0,0.0,0.0,0.0,0.0,0.0,0.0,0.0,0.0,0.0,0.0,0.0,0.0,0.0,0.0,0.0,0.0,0.0,0.0,0.0,0.0,0.0,0.0,0.0,0.0,0.0,0.0,0.0,0.0,0.0,0.0,0.0,0.0,0.0,0.0,0.0,0.0,0.0,0.0,0.0,0.0,0.0,0.0,0.0,0.0,0.0,0.0,0.0,0.0,0.0,0.0,0.0,0.0,0.0,0.0,0.0,0.0,0.0,0.0,0.0,0.0,0.0,0.0,0.0,0.0,0.0,0.0,0.0,0.0,0.0,0.0,0.0,0.0,0.0,0.0,0.0,0.0,0.0,0.0,0.0,0.0,0.0,0.0,0.0,0.0,0.0,0.0,0.0,0.0,0.0,0.0,0.0,0.0,0.0,0.0,0.0,0.0,-0.1809,-0.2611,-0.3882,-0.4553,-0.5024,-0.5362,-0.6203,-0.7046,-0.7962,0.0,0.0,0.0,0.0,0.0,0.0,0.0,0.0,0.0,0.0,0.0,0.0,0.0,0.0,0.0,0.0,0.0,0.0,0.0,0.0,0.0,0.0,0.0,0.0,0.0,0.0,0.0,0.0,0.0,0.0,0.0,0.0,0.0,0.0,0.0,0.0,0.0,0.0,0.0,0.0,0.0,0.0,0.0,0.0,0.0,0.0,0.0,0.0,0.0,0.0,0.0,0.0,0.0,0.0,0.0,0.0,0.0,0.0,0.0,0.0,0.0,0.0,0.0,0.0,0.0,0.0,0.0,0.0,0.0,0.0,0.0,0.0,0.0,0.0,0.0,0.0,0.0,0.0,0.0,0.0,0.0,0.0,0.0,0.0,0.0,0.0,0.0,0.0,0.0,0.0,0.0,0.0,0.0,0.0,0.0,0.0,0.0,0.0,0.0,0.0,0.0,0.0,-0.1608,-0.2544,-0.348,-0.435,-0.5024,-0.5428,-0.5428,-0.6465,-0.7372,-0.7962,0.0,0.0,0.0,0.0,0.0,0.0,0.0,0.0,0.0,0.0,0.0,0.0,0.0,0.0,0.0,0.0,0.0,0.0,0.0,0.0,0.0,0.0,0.0,0.0,0.0,0.0,0.0,0.0,0.0,0.0,0.0,0.0,0.0,0.0,0.0,0.0,0.0,0.0,0.0,0.0,0.0,0.0,0.0,0.0,0.0,0.0,0.0,0.0,0.0,0.0,0.0,0.0,0.0,0.0,0.0,0.0,0.0,0.0,0.0,0.0,0.0,0.0,0.0,0.0,0.0,0.0,0.0,0.0,0.0,0.0,0.0,0.0,0.0,0.0,0.0,0.0,0.0,0.0,0.0,0.0,0.0,0.0,0.0,0.0,0.0,0.0,0.0,0.0,0.0,0.0,0.0,0.0,0.0,0.0,0.0,0.0,0.0,0.0,0.0,0.0,0.0,0.0,-0.2611,-0.348,-0.435,-0.5292,-0.5428,-0.5428,-0.5428,-0.699,-0.8027,0.0,0.0,0.0,0.0,0.0,0.0,0.0,0.0,0.0,0.0,0.0,0.0,0.0,0.0,0.0,0.0,0.0,0.0,0.0,0.0,0.0,0.0,0.0,0.0,0.0,0.0,0.0,0.0,0.0,0.0,0.0,0.0,0.0,0.0,0.0,0.0,0.0,0.0,0.0,0.0,0.0,0.0,0.0,0.0,0.0,0.0,0.0,0.0,0.0,0.0,0.0,0.0,0.0,0.0,0.0,0.0,0.0,0.0,0.0,0.0,0.0,0.0,0.0,0.0,0.0,0.0,0.0,0.0,0.0,0.0,0.0,0.0,0.0,0.0,0.0,0.0,0.0,0.0,0.0,0.0,0.0,0.0,0.0,0.0,0.0,0.0,0.0,0.0,0.0,0.0,0.0,0.0,0.0,0.0,0.0,0.0,0.0,0.0,0.0,0.0,0.0,0.0,0.0,-0.2611,-0.348,-0.435,-0.5292,-0.5428,-0.5428,-0.5428,-0.699,-0.8027,-0.8027,0.0,0.0,0.0,0.0,0.0,0.0,0.0,0.0,0.0,0.0,0.0,0.0,0.0,0.0,0.0,0.0,0.0,0.0,0.0,0.0,0.0,0.0,0.0,0.0,0.0,0.0,0.0,0.0,0.0,0.0,0.0,0.0,0.0,0.0,0.0,0.0,0.0,0.0,0.0,0.0,0.0,0.0,0.0,0.0,0.0,0.0,0.0,0.0,0.0,0.0,0.0,0.0,0.0,0.0,0.0,0.0,0.0,0.0,0.0,0.0,0.0,0.0,0.0,0.0,0.0,0.0,0.0,0.0,0.0,0.0,0.0,0.0,0.0,0.0,0.0,0.0,0.0,0.0,0.0,0.0,0.0,0.0,0.0,0.0,0.0,0.0,0.0,0.0,0.0,0.0,0.0,0.0,0.0,0.0,0.0,0.0,0.0,0.0,0.0,0.0,0.0,0.0,-0.3078,-0.4015,-0.4755,-0.5359,-0.5428,-0.5428,-0.5428,-0.699,-0.8027,-0.8027,0.0,0.0,0.0,0.0,0.0,0.0,0.0,0.0,0.0,0.0,0.0,0.0,0.0,0.0,0.0,0.0,0.0,0.0,0.0,0.0,0.0,0.0,0.0,0.0,0.0,0.0,0.0,0.0,0.0,0.0,0.0,0.0,0.0,0.0,0.0,0.0,0.0,0.0,0.0,0.0,0.0,0.0,0.0,0.0,0.0,0.0,0.0,0.0,0.0,0.0,0.0,0.0,0.0,0.0,0.0,0.0,0.0,0.0,0.0,0.0,0.0,0.0,0.0,0.0,0.0,0.0,0.0,0.0,0.0,0.0,0.0,0.0,0.0,0.0,0.0,0.0,0.0,0.0,0.0,0.0,0.0,0.0,0.0,0.0,0.0,0.0,0.0,0.0,0.0,0.0,0.0,0.0,0.0,0.0,0.0,0.0,0.0,0.0,0.0,0.0,0.0,0.0,-0.3882,-0.4821,-0.5428,-0.5428,-0.5428,-0.5428,-0.5491,-0.7055,-0.8027,-0.8091,0.0,0.0,0.0,0.0,0.0,0.0,0.0,0.0,0.0,0.0,0.0,0.0,0.0,0.0,0.0,0.0,0.0,0.0,0.0,0.0,0.0,0.0,0.0,0.0,0.0,0.0,0.0,0.0,0.0,0.0,0.0,0.0,0.0,0.0,0.0,0.0,0.0,0.0,0.0,0.0,0.0,0.0,0.0,0.0,0.0,0.0,0.0,0.0,0.0,0.0,0.0,0.0,0.0,0.0,0.0,0.0,0.0,0.0,0.0,0.0,0.0,0.0,0.0,0.0,0.0,0.0,0.0,0.0,0.0,0.0,0.0,0.0,0.0,0.0,0.0,0.0,0.0,0.0,0.0,0.0,0.0,0.0,0.0,0.0,0.0,0.0,0.0,0.0,0.0,0.0,0.0,0.0,0.0,0.0,0.0,0.0,0.0,0.0,0.0,0.0,0.0,0.0,-0.3949,-0.4821,-0.5428,-0.5428,-0.5428,-0.5686,-0.6396,-0.7372,-0.8285,-0.9005,-1.004,0.0,0.0,0.0,0.0,0.0,0.0,0.0,0.0,0.0,0.0,0.0,0.0,0.0,0.0,0.0,0.0,0.0,0.0,0.0,0.0,0.0,0.0,0.0,0.0,0.0,0.0,0.0,0.0,0.0,0.0,0.0,0.0,0.0,0.0,0.0,0.0,0.0,0.0,0.0,0.0,0.0,0.0,0.0,0.0,0.0,0.0,0.0,0.0,0.0,0.0,0.0,0.0,0.0,0.0,0.0,0.0,0.0,0.0,0.0,0.0,0.0,0.0,0.0,0.0,0.0,0.0,0.0,0.0,0.0,0.0,0.0,0.0,0.0,0.0,0.0,0.0,0.0,0.0,0.0,0.0,0.0,0.0,0.0,0.0,0.0,0.0,0.0,0.0,0.0,0.0,0.0,0.0,0.0,0.0,0.0,0.0,0.0,0.0,0.0,0.0,0.0,-0.4619,-0.509,-0.5428,-0.5428,-0.5428,-0.5752,-0.6654,-0.7502,-0.835,-0.9268,-1.011,0.0,0.0,0.0,0.0,0.0,0.0,0.0,0.0,0.0,0.0,0.0,0.0,0.0,0.0,0.0,0.0,0.0,0.0,0.0,0.0,0.0,0.0,0.0,0.0,0.0,0.0,0.0,0.0,0.0,0.0,0.0,0.0,0.0,0.0,0.0,0.0,0.0,0.0,0.0,0.0,0.0,0.0,0.0,0.0,0.0,0.0,0.0,0.0,0.0,0.0,0.0,0.0,0.0,0.009,0.0,0.0,0.0,0.0,0.0,0.0,0.0,0.0,0.0,0.0,0.0,0.0,0.0,0.0,0.0,0.0,0.0,0.0,0.0,0.0,0.0,0.0,0.0,0.0,0.0,0.0,0.0,0.0,0.0,0.0,0.0,0.0,0.0,0.0,0.0,0.0,0.0,0.0,0.0,0.0,0.0,0.0,0.0,0.0,0.0,0.0,0.0,-0.5292,-0.5428,-0.5428,-0.5428,-0.5428,-0.5818,-0.685,-0.7567,-0.8415,-0.9466,-1.0174,-1.0624,0.0,0.0,0.0,0.0,0.0,0.0,0.0,0.0,0.0,0.0,0.0,0.0,0.0,0.0,0.0,0.0,0.0,0.0,0.0,0.0,0.0,0.0,0.0,0.0,0.0,0.0,0.0,0.0,0.0,0.0,0.0,0.0,1.2208,1.237,0.0,0.0,0.0,0.0,0.0,0.0,0.0,0.0,0.0,0.0,0.0,0.0,0.0,0.5336,0.5164,0.2957,0.1709,0.1529,0.0539,0.0,0.0,0.0,0.0,0.0,0.0,0.0,0.0,0.0,0.0,0.0,0.0,0.0,0.0,0.0,0.0,0.0,0.0,0.0,0.0,0.0,0.0,0.0,0.0,0.0,0.0,0.0,0.0,0.0,0.0,0.0,0.0,0.0,0.0,0.0,0.0,0.0,0.0,0.0,0.0,0.0,0.0,0.0,0.0,0.0,0.0,0.0,-0.5362,-0.5428,-0.5428,-0.5428,-0.5428,-0.6079,-0.7702,-0.7962,-0.8672,-1.0301,-1.0561,-1.0624,-1.0624,-1.0624,0.0,0.0,0.0,0.0,0.0,0.0,0.0,0.0,0.0,0.0,0.0,0.0,0.0,0.0,0.0,0.0,0.0,0.0,0.0,0.0,0.0,0.0,0.0,0.0,0.0,0.0,0.0,0.0,0.0,1.2305,1.2371,1.247,1.2525,1.2552,0.0,0.0,0.0,0.0,0.0,0.0,0.0,0.0,0.0,0.7044,0.6596,0.6054,0.5422,0.4368,0.3223,0.2159,0.1619,0.0899,0.0,0.0,0.0,0.0,0.0,0.0,0.0,0.0,0.0,0.0,0.0,0.0,0.0,0.0,-0.1068,-0.1138,-0.1467,-0.1542,-0.1701,-0.2506,0.0,0.0,0.0,0.0,0.0,0.0,0.0,0.0,0.0,0.0,0.0,0.0,0.0,0.0,0.0,0.0,0.0,0.0,-0.0375,-0.0737,-0.0715,0.0,0.0,0.0,0.0,-0.5428,-0.5428,-0.5428,-0.5428,-0.5428,-0.5428,-0.6079,-0.7832,-0.8027,-0.8737,-1.0491,-1.0624,-1.0624,-1.0624,-1.0624,-1.0624,0.0,0.0,0.0,0.0,0.0,0.0,0.0,0.0,0.0,0.0,0.0,0.0,0.0,0.0,0.0,0.0,0.0,0.0,0.0,0.0,0.0,0.0,0.0,0.0,0.0,0.0,0.0,0.0,1.2305,1.2305,1.2305,1.2305,1.2305,0.0,0.0,0.0,0.0,0.0,0.0,0.6888,0.6888,0.6976,0.7082,0.7122,0.6688,0.5871,0.5422,0.4455,0.3048,0.2153,0.1167,0.0,0.0,0.0,0.0,0.0,0.0,0.0,0.0,0.0,0.0,0.0,0.0,0.0,0.0,0.0,0.0,0.0,0.0,0.0,0.0,0.0,0.0,0.0,0.0,0.0,0.0,0.0,0.0,0.0,0.0,0.0,0.0,0.0,0.0,0.0,0.0,-0.0076,0.0,-0.0893,-0.1387,-0.1603,0.0,0.0,0.0,0.0,-0.5428,-0.5428,-0.5428,-0.5428,-0.5428,-0.5428,-0.6013,-0.7567,-0.7697,-0.8415,-1.0174,-1.0301,-1.0364,-1.0561,-1.0624,-1.0624,-1.0624,0.0,0.0,0.0,0.0,0.0,0.0,0.0,0.0,0.0,0.0,0.0,0.0,0.0,0.0,0.0,0.0,0.0,0.0,0.0,0.0,0.0,0.0,0.0,0.0,0.0,0.0,0.0,0.0,0.0,1.2305,1.2305,0.0,0.0,0.0,0.0,0.9387,0.8503,0.7593,0.6572,0.677,0.6932,0.6939,0.7068,0.7051,0.7048,0.5601,0.4793,0.4619,0.16,0.0089,0.0,0.0,0.0,0.0,0.0,0.0,0.0,0.0,0.0,0.0,0.0,0.0,0.0,0.0,0.0,0.0,0.0,0.0,0.0,0.0,0.0,0.0,0.0,0.0,0.0,0.0,0.0,0.0,0.0,0.0,0.0,0.0,0.0,0.0,0.0,0.0,-0.0225,0.0,-0.1285,-0.1598,-0.2495,0.0,-0.4023,-0.4015,-0.4821,-0.5428,-0.5428,-0.5428,-0.5428,-0.5428,-0.5428,-0.5752,-0.6719,-0.6785,-0.7502,-0.9274,-0.9338,-0.9722,-1.0561,-1.0624,-1.0624,-1.0624,-1.0624,0.0,0.0,0.0,0.0,0.0,0.0,0.0,0.0,0.0,0.0,0.0,0.0,0.0,0.0,0.0,0.0,0.0,0.0,0.0,0.0,0.0,0.0,0.0,0.0,0.0,0.0,0.0,0.0,1.2305,1.2305,0.0,1.2305,1.1391,1.0634,1.0265,0.8751,0.7824,0.7574,0.7051,0.6868,0.7058,0.7112,0.7139,0.7139,0.6596,0.6239,0.6254,0.5087,0.4561,0.4574,0.4563,0.4559,0.4559,0.4554,0.4559,0.4472,0.295,0.1433,0.0,0.0,0.0,0.0,0.0,0.0,0.0,0.0,0.0,0.0,0.0,0.0,0.0,0.0,0.0,0.0,0.0,0.0,0.0,0.0,0.0,0.0,0.0,0.0,0.0,0.0,0.0,-0.0293,-0.114,-0.1757,-0.249,-0.3362,-0.4284,-0.4891,-0.4891,-0.516,-0.5428,-0.5428,-0.5428,-0.5428,-0.5428,-0.5428,-0.5752,-0.6654,-0.6719,-0.7177,-0.842,-0.8484,-0.8613,-0.893,-0.8935,-0.8935,-0.8935,-0.946,-0.946,0.0,0.0,0.0,0.0,0.0,0.0,0.0,0.0,0.0,0.0,0.0,0.0,0.0,0.0,0.0,0.0,0.0,0.0,0.0,0.0,0.0,0.0,0.0,0.0,0.0,1.3665,1.3164,1.2806,1.2732,1.2666,1.2305,1.1694,1.1162,1.0858,0.958,0.8833,0.8617,0.7726,0.7286,0.7497,0.7163,0.6993,0.6993,0.7083,0.709,0.7104,0.7104,0.7024,0.686,0.6853,0.6853,0.695,0.694,0.6944,0.677,0.4637,0.2887,0.1407,0.1248,0.1255,0.1165,0.0897,0.1166,0.1613,0.1345,0.1255,0.1164,0.1156,0.1143,0.1037,0.0672,0.0576,0.0485,0.0079,0.0,0.0,0.0,0.0,0.0,0.0,0.0,0.0,0.0,0.0,-0.0285,-0.1109,-0.2081,-0.2973,-0.3832,-0.4755,-0.5428,-0.5428,-0.5428,-0.5428,-0.5428,-0.5428,-0.5428,-0.5428,-0.5428,-0.562,-0.6203,-0.6213,-0.659,-0.7497,-0.7505,-0.7629,-0.7957,-0.8027,-0.8027,-0.8027,-0.8549,-0.8549,-0.8027,0.0,0.0,0.0,0.0,0.0,0.0,0.0,0.0,0.0,0.0,0.0,0.0,0.0,0.0,0.0,0.0,0.0,0.0,0.0,0.0,0.0,0.0,0.0,1.5251,1.5242,1.4816,1.3905,1.3753,1.331,1.2445,1.2298,1.1922,1.0938,1.0948,1.054,0.961,0.8698,0.8242,0.825,0.7274,0.6785,0.6788,0.6957,0.7044,0.7044,0.7044,0.6798,0.6306,0.6284,0.6456,0.6732,0.6712,0.6712,0.6562,0.4944,0.4272,0.4212,0.3773,0.3563,0.3476,0.2679,0.3393,0.4639,0.3831,0.3563,0.3551,0.3396,0.3374,0.3177,0.1974,0.1624,0.1374,0.0316,0.0,0.0,0.0,0.0,0.0,0.0,0.0,0.0,0.0,0.0,-0.0278,-0.1079,-0.1984,-0.2969,-0.3832,-0.4755,-0.5362,-0.5428,-0.5428,0.0,-0.5428,-0.5425,-0.5422,-0.5422,-0.5418,-0.5415,-0.5415,-0.5209,-0.5563,-0.6559,-0.648,-0.6845,-0.7877,-0.7892,-0.7962,-0.7962,-0.7962,-0.7962,-0.7962,0.0,0.0,0.0,0.0,0.0,0.0,0.0,0.0,0.0,0.0,0.0,0.0,0.0,0.0,0.0,0.0,0.0,0.0,0.0,0.0,0.0,1.7827,1.7444,1.6723,1.5828,1.5191,1.5227,1.4317,1.36,1.331,1.2739,1.2224,1.1922,1.1234,1.0749,1.0617,0.967,0.8992,0.8759,0.7409,0.6836,0.704,0.6698,0.6529,0.6529,0.6529,0.6446,0.6284,0.6446,0.6533,0.6625,0.6702,0.6705,0.6625,0.6197,0.6028,0.5868,0.3986,0.324,0.324,0.2986,0.3156,0.3496,0.3325,0.324,0.3236,0.3134,0.3128,0.3112,0.2778,0.2189,0.1535,0.1263,0.062,0.0,0.0,0.0,0.0,0.0,0.0,0.0,0.0,0.0,-0.0068,-0.0337,-0.1081,-0.2162,-0.3751,-0.4215,-0.4619,-0.5292,-0.5428,0.0,-0.5428,-0.5264,-0.5196,-0.5196,-0.5104,-0.504,-0.504,-0.5003,-0.5054,-0.5403,-0.5409,-0.559,-0.5886,-0.6009,-0.6404,-0.7046,-0.6465,-0.64,0.0,0.0,0.0,0.0,0.0,0.0,0.0,0.0,0.0,0.0,0.0,0.0,0.0,0.0,0.0,0.0,0.0,0.0,0.0,0.0,0.0,0.0,1.9277,1.9023,1.8767,1.75,1.6554,1.6404,1.5521,1.4728,1.4386,1.3455,1.2879,1.2879,1.1983,1.1459,1.1544,1.0625,0.9844,0.9518,0.7553,0.6603,0.6736,0.6485,0.6331,0.6267,0.6267,0.6267,0.6267,0.6431,0.6515,0.6515,0.6515,0.6515,0.6515,0.6515,0.6515,0.0,0.0,0.0,0.0,0.0,0.427,0.3936,0.4435,0.4601,0.4594,0.4552,0.4538,0.4435,0.3934,0.3328,0.2668,0.1858,0.1062,0.0446,0.0074,0.0,0.0,0.0,0.0,0.0,0.0,0.0,0.0,0.0,-0.04,0.0,-0.2633,-0.352,-0.4199,-0.4677,-0.5065,-0.5243,-0.5186,-0.5098,-0.5043,-0.5043,-0.4969,-0.4918,-0.4918,-0.486,0.0,0.0,0.0,-0.5003,-0.5125,-0.5216,0.0,0.0,0.0,-0.562,-0.6141,0.0,0.0,0.0,-0.5965,-0.5898,0.0,0.0,0.0,0.0,0.0,0.0,0.0,0.0,0.0,0.0,0.0,0.0,0.0,0.0,0.0,0.0,2.0769,2.0403,2.0773,1.9636,1.846,1.7477,1.689,1.628,1.5446,1.4378,1.3673,1.3673,1.2806,1.2285,1.2258,0.0,0.0,0.0,0.0,0.6942,0.676,0.6373,0.6242,0.6437,0.6287,0.621,0.621,0.621,0.6217,0.6234,0.6234,0.6244,0.6338,0.6338,0.6338,0.6288,0.6549,0.6651,0.6651,0.6651,0.5985,0.524,0.6318,0.0,0.0,0.6491,0.6447,0.6258,0.5171,0.4673,0.4138,0.2406,0.1698,0.1224,0.0353,0.014,0.0139,0.0,0.0,0.0,0.0,0.0,0.0,0.0,0.0,-0.0257,-0.1026,-0.2546,-0.3682,-0.3648,-0.4339,-0.4806,-0.4809,-0.4719,-0.4709,-0.4833,0.0,0.0,-0.4867,-0.4745,-0.4721,-0.486,-0.4755,-0.4816,-0.5094,-0.5104,-0.5179,-0.5332,-0.5335,-0.5411,-0.5428,-0.5428,-0.5511,-0.58,-0.58,-0.5891,0.0,0.0,0.0,0.0,0.0,0.0,0.0,0.0,0.0,0.0,0.0,0.0,0.0,0.0,0.0,2.197,2.2179,2.1985,2.0938,2.054,1.9859,1.8521,1.7311,1.6498,1.6358,1.4728,1.3673,1.3673,1.2806,1.2204,1.1964,1.1971,1.1989,1.1911,1.1442,1.071,0.9779,0.7009,0.6136,0.7198,0.0,0.0,0.5891,0.5891,0.5959,0.6074,0.6074,0.6146,0.6338,0.6338,0.6338,0.6345,0.6325,0.6346,0.6346,0.6346,0.6267,0.6028,0.6267,0.6346,0.6342,0.6312,0.6302,0.6271,0.5888,0.5142,0.0,0.3825,0.3086,0.2248,0.126,0.1032,0.0878,0.0135,0.0,0.0,0.0,0.0,0.0,0.0,0.0,-0.0062,-0.0249,-0.1123,-0.2061,-0.2793,-0.3036,-0.334,-0.3936,-0.3425,-0.3431,-0.4614,-0.4044,-0.3866,-0.4551,-0.458,-0.4573,-0.4548,-0.4636,-0.4772,-0.4952,-0.4958,-0.503,-0.5172,-0.5176,-0.5237,-0.5428,-0.5428,-0.5511,-0.58,-0.58,-0.5949,0.0,0.0,0.0,0.0,0.0,0.0,0.0,0.0,0.0,0.0,0.0,2.1964,2.2947,0.0,2.3287,2.3788,2.3464,2.2903,2.224,2.109,1.9906,1.8733,1.7827,1.7285,1.7285,1.6009,1.4942,1.4522,1.3445,1.2592,1.2111,1.2045,1.2082,1.2289,1.1978,1.1467,1.0627,0.891,0.8117,0.8231,0.7086,0.6516,0.644,0.6015,0.5844,0.5915,0.5915,0.5959,0.603,0.603,0.603,0.603,0.603,0.6125,0.6338,0.6338,0.6338,0.6338,0.6338,0.621,0.6146,0.6146,0.6091,0.6017,0.5939,0.5498,0.4919,0.4356,0.3769,0.3143,0.2256,0.203,0.1803,0.0858,0.0659,0.0525,0.0065,0.0,0.0,0.0,0.0,0.0,0.0,-0.0357,-0.0945,-0.1799,-0.2282,-0.2688,-0.2936,-0.26,-0.263,-0.3372,-0.3039,-0.2899,-0.3289,-0.3735,-0.3956,-0.3901,-0.4363,-0.4646,-0.4799,-0.4806,-0.4874,-0.502,-0.5094,-0.5169,-0.5247,-0.5325,-0.5477,-0.5694,-0.5694,-0.5898,0.0,0.0,0.0,0.0,0.0,0.0,0.0,2.4053,2.3795,2.4346,2.4004,2.3965,2.5218,2.5345,2.5356,2.5788,2.4657,2.364,2.3382,2.1699,2.0007,1.8854,1.8282,1.8008,1.8008,1.7139,1.6253,1.5407,1.4158,1.3145,1.2445,1.2053,1.1831,1.1959,1.1492,1.1066,1.061,1.0399,0.9908,0.9151,0.8031,0.7399,0.725,0.655,0.622,0.6253,0.6283,0.6294,0.6294,0.6294,0.6294,0.6294,0.6294,0.6386,0.6398,0.6246,0.6169,0.6169,0.6169,0.6091,0.5986,0.5986,0.5901,0.5796,0.5769,0.5681,0.5444,0.4645,0.436,0.4082,0.3211,0.2945,0.2725,0.1749,0.1545,0.1278,0.0435,0.0184,0.0183,0.0,0.0,0.0,0.0,0.0,-0.0226,-0.0812,-0.1511,-0.2014,-0.2015,-0.1842,-0.1898,-0.2174,-0.2063,-0.2063,-0.2174,-0.2788,-0.3121,-0.3065,-0.368,-0.412,-0.4234,-0.4237,-0.4305,-0.4445,-0.4547,-0.4628,-0.4617,-0.4792,-0.4934,-0.5098,-0.5098,-0.5375,2.7214,2.6782,2.6703,2.6194,2.614,2.6017,0.0,2.5672,2.6027,2.6109,2.6462,2.6996,2.7701,2.7202,2.6671,2.6737,2.5985,2.4752,2.3006,2.2557,2.1621,1.9491,1.8492,1.8008,1.8008,1.7139,1.6345,1.586,1.4738,1.3723,1.2802,1.2435,1.1819,1.0803,1.0725,1.0655,1.0597,0.9532,0.9074,0.9297,0.837,0.7907,0.7907,0.7775,0.7812,0.7937,0.8046,0.8122,0.8122,0.8122,0.8122,0.8122,0.8122,0.7664,0.6929,0.614,0.5854,0.5854,0.5854,0.584,0.5827,0.5827,0.5817,0.5779,0.565,0.5603,0.5562,0.5356,0.5239,0.5024,0.4082,0.3882,0.359,0.2589,0.238,0.2105,0.1177,0.0964,0.0768,0.0118,0.0,0.0,0.0,0.0,0.0,-0.0113,-0.0225,-0.0506,-0.1119,-0.0671,-0.0727,-0.2063,-0.1619,-0.1507,-0.212,-0.2286,-0.2343,-0.2343,-0.2397,-0.2458,-0.2467,-0.2467,-0.2563,-0.2769,-0.2779,-0.2859,-0.2949,-0.3023,-0.3049,-0.3209,-0.3209,-0.3737,2.9743,2.9081,2.8725,2.8201,2.8093,2.795,2.7255,2.7026,2.7039,2.7315,2.7309,2.7529,2.8512,2.8029,2.7547,2.7547,2.6298,2.5024,2.4227,2.302,2.1863,2.0944,2.0009,1.911,1.8076,1.7427,1.6719,1.5981,1.4989,1.4174,1.3508,1.2107,1.1066,1.0635,1.0573,1.0607,1.0624,1.0098,0.9901,1.0047,0.9198,0.8748,0.8748,0.8221,0.8012,0.8108,0.8127,0.8168,0.8168,0.8168,0.8168,0.8168,0.8168,0.7966,0.7527,0.6788,0.6583,0.6583,0.6583,0.6514,0.6433,0.6433,0.6026,0.5535,0.5477,0.5457,0.5443,0.5446,0.5428,0.5296,0.4888,0.4821,0.4569,0.3484,0.3257,0.2966,0.194,0.1382,0.1028,0.0686,0.0283,0.0,0.0,0.0,0.0,0.0,0.0,-0.0112,-0.0448,-0.0168,-0.0224,-0.0838,-0.0671,-0.056,-0.0895,-0.134,-0.1563,-0.1563,-0.1952,-0.2174,-0.2174,-0.2174,-0.2245,-0.2336,-0.2439,-0.2554,-0.2559,-0.2649,-0.2727,-0.2793,-0.2772,-0.2712,3.1878,3.1234,3.0677,3.0154,2.9923,2.962,2.8928,2.8512,2.8338,2.8657,2.8402,2.8368,2.9268,2.8679,2.8042,2.7875,2.6462,2.5262,2.4939,2.352,2.2433,2.1939,2.1365,2.0398,1.8844,1.8137,1.735,1.6534,1.5694,1.4985,1.4337,1.2781,1.1913,1.192,1.1381,1.1023,1.0926,1.0681,1.0624,1.0561,0.9983,0.9658,0.9658,0.9,0.8737,0.8737,0.8737,0.8737,0.8737,0.8737,0.8737,0.8737,0.8737,0.8544,0.8327,0.785,0.755,0.7342,0.7342,0.7318,0.7198,0.6924,0.6376,0.5686,0.5491,0.5428,0.5428,0.5428,0.5428,0.5428,0.5428,0.5428,0.5153,0.4303,0.4116,0.3805,0.2715,0.2063,0.1675,0.1452,0.0783,0.028,0.028,0.0112,0.0,0.0,0.0,0.0,0.0,0.0,0.0,0.0,0.0,0.0,0.0,-0.0504,-0.0783,-0.0783,-0.1284,-0.1619,-0.1619,-0.1619,-0.1619,-0.1619,-0.1716,-0.1803,-0.1819,-0.1902,-0.1959,-0.1928,-0.1968,-0.1615,3.3474,3.3164,3.2616,3.1742,3.1175,3.0723,3.0087,3.0121,3.0337,3.0322,3.0344,3.0387,3.0433,2.9287,2.8096,2.7605,2.6778,2.5758,2.4514,2.4247,2.3623,2.2063,2.1877,2.1491,2.059,1.9318,1.8365,1.7976,1.7124,1.6236,1.5405,1.5298,1.5245,1.5233,1.3235,1.2058,1.1772,1.0989,1.0624,1.0624,1.0561,1.0561,1.0561,1.0561,1.0491,1.0491,1.0491,1.0491,1.0491,1.0491,1.0491,1.0491,1.0491,0.9977,0.9274,0.9227,0.8705,0.7982,0.7982,0.7977,0.7842,0.699,0.6658,0.6527,0.5686,0.5428,0.5428,0.5428,0.5428,0.5428,0.5428,0.5428,0.5287,0.4927,0.4857,0.459,0.3508,0.3231,0.301,0.2286,0.1563,0.1062,0.1062,0.0448,0.0,0.0,0.0,0.0,0.0,0.0,0.0,0.0,0.0,0.0,0.0,0.0,-0.0056,-0.0056,-0.0056,-0.0056,-0.0056,-0.0056,-0.0056,-0.0056,-0.0056,-0.0057,-0.0059,-0.0059,-0.0061,-0.0065,-0.0065,-0.0066,3.3939,3.3753,3.3421,3.2678,3.2332,3.2119,3.1741,3.1201,3.085,3.1288,3.0881,3.0575,3.1033,2.9986,2.9055,2.8843,2.7433,2.624,2.5825,2.4894,2.4105,2.3564,2.304,2.2567,2.231,2.0068,1.8585,1.8628,1.686,1.573,1.54,1.5381,1.5399,1.5393,1.3994,1.3036,1.2573,1.2336,1.1903,1.1413,1.0863,1.0624,1.0624,1.0624,1.0624,1.0624,1.0624,1.0624,1.0624,1.0624,1.0624,1.0624,1.0624,1.0434,1.0174,1.0174,0.9977,0.9646,0.9069,0.8877,0.8812,0.8549,0.8027,0.7372,0.6527,0.6268,0.6137,0.5557,0.5428,0.5428,0.5428,0.5428,0.5311,0.5108,0.4989,0.4803,0.4307,0.3739,0.3234,0.301,0.2343,0.184,0.184,0.1619,0.1452,0.1452,0.0615,0.0,0.0,0.0,0.0,0.0,0.0,0.0,0.0,0.0,0.0,0.0,0.0,0.0,0.0,0.0,0.0,0.0,0.0,0.0,0.0,0.0,0.0,0.0,0.0,0.0,3.4548,3.4432,3.429,3.3684,3.336,3.3096,3.2919,3.2159,3.1568,3.2029,3.1299,3.0712,3.114,3.0257,2.9437,2.9437,2.8171,2.7093,2.6872,2.5591,2.4624,2.435,2.3603,2.3078,2.3078,2.1113,1.9691,1.9537,1.693,1.5417,1.54,1.542,1.54,1.5399,1.4469,1.3751,1.3425,1.313,1.2573,1.1764,1.1288,1.0863,1.0624,1.0624,1.0624,1.0624,1.0624,1.0624,1.0624,1.0624,1.0624,1.0624,1.0624,1.0624,1.0624,1.0624,1.0624,1.0491,0.9983,0.9786,0.9722,0.9402,0.8941,0.8285,0.7437,0.7177,0.6981,0.6141,0.5881,0.5815,0.5495,0.5428,0.5321,0.5169,0.5023,0.4877,0.4724,0.4169,0.3732,0.379,0.3178,0.2619,0.2619,0.2397,0.2174,0.2174,0.1396,0.0671,0.0448,0.0168,0.0,0.0,0.0,0.0,0.0,0.0,0.0,0.0,0.0,0.0,0.0,0.0,0.0,0.0,0.0,0.0,0.0,0.0,0.0,0.0,0.0,0.0,3.5314,3.5226,3.5149,3.4813,3.4213,3.3666,3.3666,3.3087,3.2583,3.2583,3.1704,3.0959,3.0976,3.0136,2.948,2.9451,2.8919,2.824,2.7575,2.6304,2.5175,2.4452,2.3649,2.3138,2.3078,2.2384,2.1616,2.0783,1.7567,1.5576,1.5381,1.54,1.543,1.541,1.4688,1.4273,1.4273,1.3485,1.2696,1.1888,1.1826,1.1406,1.0681,1.0624,1.0624,1.0624,1.0624,1.0624,1.0624,1.0624,1.0624,1.0624,1.0624,1.0624,1.0624,1.0624,1.0624,1.0624,1.0624,1.0624,1.0428,0.9658,0.9338,0.9204,0.835,0.8027,0.7832,0.6981,0.6719,0.6461,0.5686,0.5428,0.5325,0.5176,0.5033,0.4887,0.4735,0.4582,0.4525,0.4519,0.3956,0.3456,0.3398,0.2788,0.2341,0.2341,0.2286,0.2009,0.1229,0.056,0.0112,0.0056,0.0112,0.0056,0.0,0.0056,0.0112,0.0056,0.0056,0.0056,0.0056,0.0,0.0,0.0056,0.0056,0.0056,0.0056,0.0112,0.0114,0.0059,0.0059,0.0061,3.5628,3.5544,3.5434,3.5134,3.4882,3.4659,3.447,3.3839,3.3312,3.3312,3.2652,3.1987,3.1627,3.1009,3.041,3.0107,2.918,2.8415,2.824,2.7093,2.596,2.5231,2.4452,2.3767,2.3138,2.2884,2.2688,2.2503,2.0492,1.8161,1.5557,1.5367,1.5417,1.542,1.5167,1.5108,1.5108,1.4332,1.3786,1.3597,1.2381,1.171,1.1469,1.0863,1.0624,1.0624,1.0624,1.0624,1.0624,1.0624,1.0624,1.0624,1.0624,1.0624,1.0624,1.0624,1.0624,1.0624,1.0624,1.0624,1.0561,1.0364,1.0301,1.011,0.9204,0.8484,0.7962,0.7697,0.6728,0.5815,0.6268,0.5881,0.5418,0.5311,0.5189,0.5036,0.4894,0.4741,0.4599,0.4539,0.4349,0.4239,0.4184,0.4015,0.3901,0.3901,0.34,0.2732,0.2009,0.173,0.1452,0.0895,0.1284,0.1174,0.0112,0.1006,0.1396,0.0838,0.0839,0.0839,0.0839,0.028,0.028,0.0783,0.0839,0.0839,0.0839,0.1397,0.1346,0.0793,0.0814,0.1126,3.5597,3.563,3.556,3.5374,3.5209,3.507,3.4908,3.4345,3.3857,3.3857,3.3281,3.2681,3.2196,3.1647,3.1159,3.0764,2.9673,2.8873,2.8873,2.7485,2.6336,2.596,2.4951,2.4118,2.3649,2.3305,2.3078,2.3078,2.2247,1.9997,1.6197,1.5641,1.5384,1.542,1.541,1.541,1.541,1.4932,1.4569,1.4213,1.2931,1.2143,1.1764,1.0989,1.0624,1.0624,0.0,1.0624,1.0624,1.0624,1.0624,1.0624,1.0624,1.0624,1.0624,1.0624,1.0624,1.0624,1.0624,1.0624,1.0624,1.0624,1.0624,1.0498,1.0047,0.9524,0.9064,0.8678,0.7837,0.7055,0.6785,0.633,0.5881,0.5491,0.5243,0.5108,0.503,0.4843,0.4646,0.4546,0.4519,0.4519,0.4519,0.4519,0.4519,0.4519,0.4125,0.368,0.3289,0.2619,0.2063,0.1619,0.1952,0.1842,0.1062,0.173,0.2009,0.1619,0.1563,0.1563,0.1563,0.1174,0.1174,0.1563,0.1563,0.1563,0.1563,0.2009,0.2009,0.1564,0.1594,0.1792,3.5113,3.5272,3.525,3.5188,3.5066,3.4947,3.48,3.4431,3.4041,3.3902,3.3476,3.2943,3.2423,3.2109,3.1733,3.1291,3.0251,2.9496,2.9406,2.7868,2.6707,2.651,2.5287,2.4408,2.4292,2.3603,2.3078,2.3078,2.3107,2.1207,1.6935,1.6097,1.5631,1.542,1.541,1.541,1.541,1.541,1.505,1.4332,1.3545,1.2757,1.1958,1.1108,1.0681,1.0624,1.0624,1.0624,1.0624,1.0624,1.0624,1.0624,1.0624,1.0624,1.0624,1.0624,1.0624,1.0624,1.0624,1.0624,1.0624,1.0624,1.0624,1.0624,1.0624,1.0491,1.0301,0.9658,0.9332,0.8812,0.7437,0.6981,0.6658,0.5752,0.5513,0.547,0.5322,0.5079,0.4822,0.4741,0.4588,0.4519,0.4519,0.4519,0.4519,0.4519,0.4519,0.4519,0.4519,0.3345,0.2454,0.2343,0.2454,0.2397,0.2232,0.2397,0.2454,0.2343,0.2343,0.2343,0.2343,0.2232,0.2232,0.2343,0.2343,0.2343,0.2343,0.2454,0.2454,0.2343,0.2343,0.2441,3.3583,3.3569,3.3529,3.3529,3.394,3.4117,3.3242,3.3296,3.3293,3.2406,3.2484,3.2465,3.1671,3.1976,3.2109,3.1329,3.0617,2.9995,2.9451,2.867,2.7765,2.6602,2.5728,2.4951,2.435,2.3603,2.3078,2.3078,2.3096,2.1254,1.6946,1.7245,1.686,1.5439,1.541,1.541,1.541,1.541,1.5352,1.5167,1.4392,1.3545,1.2757,1.1958,1.1226,1.0624,1.0624,0.0,1.0624,1.0624,1.0624,1.0624,1.0624,1.0624,1.0624,1.0624,1.0624,1.0624,1.0624,1.0624,1.0624,1.0624,1.0624,1.0624,1.0624,1.011,0.9658,1.0238,0.9326,0.8355,0.8748,0.8291,0.7572,0.6658,0.7024,0.7274,0.6354,0.5967,0.576,0.5739,0.505,0.4519,0.4519,0.4519,0.4519,0.4519,0.4519,0.4519,0.4519,0.4294,0.3846,0.3176,0.368,0.3566,0.2286,0.3345,0.379,0.3176,0.3121,0.3121,0.3178,0.2565,0.2508,0.3178,0.3178,0.3178,0.3178,0.379,0.3735,0.3121,0.3178,0.3575,3.2938,3.3015,3.3001,3.3001,3.3192,3.3221,3.2711,3.2579,3.2379,3.1685,3.1623,3.158,3.1067,3.1303,3.1463,3.1223,3.0699,3.0081,2.9496,2.8873,2.8125,2.7188,2.6054,2.5342,2.524,2.3936,2.3078,2.3078,2.3081,2.162,1.8208,1.7147,1.6247,1.542,1.541,1.541,1.541,1.541,1.541,1.541,1.4569,1.3786,1.2948,1.2143,1.1351,1.0624,1.0624,1.0624,1.0624,1.0624,1.0624,1.0624,1.0624,1.0624,1.0624,1.0624,1.0624,1.0624,1.0624,1.0624,1.0624,1.0624,1.0624,1.0624,1.0624,1.0301,1.0047,1.0498,0.997,0.9326,0.9332,0.9011,0.8355,0.7046,0.7046,0.7251,0.7105,0.6884,0.6634,0.6597,0.6016,0.5496,0.5113,0.5003,0.4893,0.457,0.4519,0.4519,0.4519,0.4519,0.4349,0.3956,0.4294,0.4184,0.3456,0.407,0.4349,0.3959,0.3901,0.3956,0.3959,0.3622,0.3566,0.3959,0.3959,0.3959,0.3959,0.4349,0.4294,0.3904,0.4029,0.4273,3.2216,3.2327,3.2282,3.2282,3.2273,3.2197,3.1977,3.1732,3.1377,3.079,3.0646,3.0586,3.0453,3.0595,3.08,3.1133,3.0781,3.0251,2.9496,2.9012,2.8415,2.766,2.6428,2.5771,2.6064,2.4274,2.311,2.3125,2.2623,2.1427,1.9406,1.6984,1.5584,1.541,1.541,1.541,1.541,1.541,1.541,1.541,1.4746,1.4025,1.3243,1.2443,1.1593,1.087,1.0681,1.0624,0.0,1.0624,1.0624,1.0624,1.0624,1.0624,1.0624,1.0624,1.0624,1.0624,1.0624,1.0624,1.0624,1.0624,1.0624,1.0624,1.0624,1.0624,1.0624,1.0624,1.0624,1.0428,0.9786,0.9594,0.9262,0.7887,0.7372,0.7455,0.8169,0.7944,0.7596,0.7433,0.7032,0.648,0.5823,0.576,0.5546,0.5007,0.4791,0.4736,0.4736,0.457,0.4519,0.4519,0.4519,0.4519,0.4519,0.4519,0.4519,0.4519,0.4519,0.4519,0.4519,0.4519,0.4519,0.4519,0.4519,0.457,0.4736,0.4736,0.4805,0.5068,0.5144,0.5242,3.0621,3.0452,3.0257,3.0257,3.0709,3.0883,2.9925,3.0219,3.033,2.8966,2.9222,2.9697,2.9636,3.0214,3.08,3.1133,3.1151,3.0699,2.954,2.9361,2.8904,2.776,2.6878,2.6329,2.6119,2.4266,2.3081,2.3113,2.1043,1.968,1.9301,1.7449,1.6093,1.541,1.541,1.541,1.541,1.541,1.541,1.541,1.5352,1.4874,1.4085,1.3252,1.2451,1.1648,1.0926,1.0624,0.0,1.0624,1.0624,1.0624,1.0624,1.0624,1.0624,1.0624,1.0624,1.0624,1.0624,1.0624,1.0624,1.0624,1.0624,1.0624,1.0624,1.0624,1.0624,1.0624,1.0624,1.0561,1.0498,1.0498,1.0428,1.0295,0.9652,0.9326,1.0135,0.9525,0.8757,0.8504,0.7673,0.6936,0.6564,0.648,0.6475,0.6426,0.5819,0.5433,0.5433,0.4897,0.4519,0.4519,0.4519,0.4519,0.4519,0.4519,0.4519,0.4519,0.4519,0.4519,0.4519,0.4519,0.4519,0.4519,0.4519,0.4787,0.5433,0.5433,0.5908,0.6889,0.6852,0.7066,3.0022,2.9896,2.9813,2.9813,2.9942,2.9925,2.9507,2.9344,2.9041,2.8264,2.8167,2.8413,2.9076,2.945,3.0011,3.1026,3.0878,3.0335,2.954,2.9452,2.9164,2.8276,2.7501,2.7046,2.7011,2.4657,2.284,2.2213,2.1231,2.0139,1.8872,1.7345,1.6151,1.541,1.541,1.541,1.541,1.541,1.541,1.541,1.541,1.4991,1.4145,1.3373,1.2573,1.1772,1.0926,1.0624,0.0,1.0624,1.0624,1.0624,1.0624,1.0624,1.0624,1.0624,1.0624,1.0624,1.0624,1.0624,1.0624,1.0624,1.0624,1.0624,1.0624,1.0624,1.0624,1.0624,1.0624,1.0624,1.0624,1.0238,0.9977,1.0498,0.9913,0.953,1.0428,1.0135,0.9643,0.9535,0.8862,0.8187,0.7638,0.7389,0.7128,0.6642,0.6367,0.6145,0.6145,0.5932,0.5773,0.5773,0.5007,0.4519,0.4519,0.4519,0.4519,0.4519,0.4519,0.4519,0.4519,0.4893,0.5109,0.5109,0.555,0.5878,0.6145,0.6145,0.6478,0.7089,0.7165,0.7384,2.9748,2.9661,2.9626,2.9626,2.9435,2.9267,2.9144,2.8742,2.8272,2.7823,2.7517,2.7661,2.8795,2.9011,2.9465,3.0954,3.0699,3.0146,2.9723,2.9595,2.9377,2.8967,2.8257,2.7763,2.7614,2.4851,2.268,2.1724,2.1594,2.0729,1.893,1.752,1.6368,1.541,1.541,1.541,1.541,1.541,1.541,1.541,1.541,1.5108,1.451,1.3726,1.294,1.2143,1.1288,1.0807,0.0,1.0624,1.0624,1.0624,1.0624,1.0624,1.0624,1.0624,1.0624,1.0624,1.0624,1.0624,1.0624,1.0624,1.0624,1.0624,1.0624,1.0624,1.0624,1.0624,1.0624,1.0624,1.0624,1.011,0.9849,1.0428,1.011,0.9849,1.0498,1.0394,1.0221,1.0134,0.978,0.9295,0.8752,0.8343,0.7943,0.7454,0.7117,0.6912,0.6912,0.675,0.6588,0.6588,0.5714,0.5007,0.4787,0.4787,0.4787,0.4787,0.4787,0.4897,0.5117,0.5546,0.5814,0.5814,0.6312,0.6696,0.6912,0.6912,0.7235,0.788,0.7991,0.8231,2.9696,2.9551,2.9412,2.9412,2.9203,2.8905,2.8496,2.842,2.8192,2.747,2.7286,2.7661,2.8795,2.9011,2.9465,3.0954,3.0699,3.0326,3.038,2.9893,2.9495,2.9582,2.9154,2.8568,2.7683,2.4851,2.2776,2.2035,2.17,0.0,1.967,1.829,1.6912,1.5468,1.541,1.541,1.541,1.541,1.541,1.541,1.541,1.541,1.5352,1.4569,1.3734,1.2948,1.2143,1.1351,0.0,1.0624,1.0624,1.0624,1.0624,1.0624,1.0624,1.0624,1.0624,1.0624,1.0624,1.0624,1.0624,1.0624,1.0624,1.0624,1.0624,1.0624,1.0624,1.0624,1.0624,1.0624,1.0624,1.0561,1.0561,1.0624,1.0561,1.0561,1.0624,1.0618,1.053,1.0174,1.0114,1.0013,0.9726,0.9432,0.9176,0.9176,0.8329,0.767,0.767,0.7074,0.6588,0.6588,0.6588,0.6258,0.5542,0.5487,0.5487,0.5487,0.5487,0.5814,0.6534,0.6588,0.6588,0.6588,0.6588,0.6966,0.767,0.767,0.838,0.9679,0.9679,0.9993,2.9272,2.9181,2.9071,2.8808,2.8646,2.8489,2.8129,2.7851,2.7572,2.7348,2.7083,2.7317,2.8723,2.9011,2.9465,3.0954,3.0351,3.0004,3.0941,3.0203,2.9902,3.0876,3.0061,2.8896,2.7735,2.5494,2.3639,2.238,2.1809,2.0779,1.9078,1.8595,1.7688,1.6208,1.5633,1.541,1.541,1.541,1.541,1.541,1.541,1.541,1.5352,1.4569,1.4085,1.3726,1.2381,1.1648,0.0,1.0807,1.0624,1.0624,1.0624,1.0624,1.0624,1.0624,1.0624,1.0624,1.0624,1.0989,1.1351,1.0807,1.0982,1.1351,1.0744,1.0624,1.0624,1.0624,1.0624,1.0624,1.0624,1.0624,1.0624,1.0624,1.0624,1.0624,1.0624,1.0624,1.0598,1.0441,1.0254,1.0087,0.9993,0.9733,0.9472,0.9216,0.8938,0.8645,0.8453,0.8262,0.8103,0.8103,0.8103,0.761,0.6367,0.6253,0.6253,0.6253,0.6253,0.6367,0.6588,0.7074,0.7343,0.7343,0.783,0.8209,0.8427,0.8427,0.8886,0.9686,0.9886,1.0187,2.8779,2.8676,2.8533,2.8264,2.821,2.8129,2.7765,2.747,2.7272,2.7115,2.6873,2.7165,2.8704,2.9011,2.9465,3.0954,3.0608,3.0437,3.1271,3.0767,3.0472,3.0838,3.0129,2.8901,2.7219,2.5296,2.3716,2.2564,2.1681,2.0603,1.9198,1.8874,1.8286,1.7357,1.6358,1.5816,1.5816,1.5526,1.541,1.541,1.541,1.541,1.5352,1.4874,1.451,1.4145,1.3114,1.2504,0.0,1.1725,1.1358,1.1045,1.1045,1.0863,1.0624,1.0624,1.0624,1.0624,1.0624,1.1108,1.171,1.1226,1.1406,1.171,1.1226,1.0863,1.0624,1.0624,1.0624,1.0624,1.0624,1.0624,1.0624,1.0624,1.0624,1.0624,1.0624,1.0624,1.0624,1.0624,1.0414,1.0281,1.0281,1.004,0.9786,0.9599,0.9479,0.9299,0.9011,0.8971,0.8931,0.8818,0.8804,0.8427,0.7503,0.7182,0.702,0.702,0.702,0.7128,0.7402,0.7883,0.8103,0.8103,0.8586,0.8804,0.8804,0.8918,0.9158,0.9526,0.9813,1.0053,0.0,2.8129,2.7897,2.7869,2.7869,2.7754,2.7348,2.7272,0.0,2.6791,2.6742,2.7232,2.8721,2.9025,2.9533,3.0954,3.1241,3.1312,3.1438,3.1526,3.112,2.9763,2.952,2.8571,2.6438,2.4632,2.3339,2.2698,2.1427,2.0413,1.9836,1.915,1.8768,1.8768,1.7413,1.6595,1.6492,1.5758,1.541,1.541,1.541,1.541,1.541,1.541,1.4991,0.0,1.4213,0.0,0.0,1.2948,1.2451,1.1764,1.1772,1.1288,1.0624,1.0624,1.0624,1.0624,1.0624,1.117,1.1888,1.195,1.195,1.1896,1.1834,1.1226,1.0624,1.0624,1.0624,1.0624,1.0624,1.0624,1.0624,1.0624,1.0624,1.0624,1.0624,1.0624,1.0624,1.0624,1.0624,1.0624,1.0624,1.0327,1.014,1.012,0.9886,0.9606,0.9256,0.9196,0.9084,0.8871,0.8818,0.8804,0.8804,0.8156,0.7777,0.7777,0.7777,0.8103,0.8752,0.8804,0.8804,0.8804,0.8804,0.8804,0.8804,0.9024,0.9218,0.9301,0.9576,0.9775,2.756,0.0,2.784,2.75,2.7439,2.7334,0.0,2.6841,2.6808,2.6725,2.7165,2.7841,2.8805,2.9448,3.0142,3.1055,3.0685,3.0932,3.2659,3.2135,3.112,2.9763,2.8717,2.7846,2.7306,2.5426,2.4061,2.3485,2.1733,2.0413,1.9836,1.9643,1.9527,1.9527,1.8661,1.7633,1.6482,1.5758,1.541,1.541,1.541,1.541,1.541,1.541,1.5294,1.505,1.4451,0.0,1.3846,1.2565,1.1958,1.1772,1.1108,1.0744,1.0624,1.0624,1.0624,1.0624,1.0624,1.1538,1.2818,1.3425,1.3243,1.2573,1.202,1.1226,1.0624,1.0624,1.0624,1.0624,1.0624,1.0624,1.0624,1.0624,1.0624,1.0624,1.0624,1.0624,1.0624,1.0624,1.0624,1.0624,1.0624,1.0501,1.0381,1.0147,1.006,0.9913,0.9619,0.9379,0.9157,0.909,0.8938,0.8804,0.8804,0.8646,0.8533,0.8533,0.8533,0.8646,0.8804,0.8804,0.8804,0.8804,0.8804,0.8804,0.8804,0.8878,0.9288,1.0042,1.0122,1.029,2.7019,2.7178,2.7303,2.7083,2.7019,2.6971,2.6758,2.6691,2.6691,2.6691,2.73,2.8061,2.8839,2.9501,3.0197,3.105,3.0817,3.1469,3.4053,3.2652,3.0753,2.8922,2.8359,2.79,2.7235,2.5626,2.4207,2.3289,2.169,2.0489,1.9811,1.9798,1.9798,1.9798,1.9097,1.8167,1.7034,1.6255,1.5748,1.541,1.541,1.541,1.541,1.541,1.541,1.5352,1.4932,0.0,1.4628,1.3408,1.2687,1.2266,1.1476,1.0926,1.0624,1.0624,1.0624,1.0618,1.1045,1.2205,1.3666,1.451,1.4213,1.3485,1.3053,1.2081,1.1045,1.0681,1.0624,1.0624,1.0624,1.0624,1.0624,1.0624,1.0624,1.0624,1.0624,1.0624,1.0624,1.0624,1.0624,1.0624,1.0624,1.0624,1.0571,1.0347,1.0321,1.0214,0.992,0.974,0.9482,0.9216,0.9044,0.8951,0.8818,0.8804,0.8804,0.8804,0.8804,0.8804,0.8804,0.8804,0.8804,0.8804,0.8804,0.8804,0.8804,0.9113,0.9552,1.0083,1.0393,1.0592,2.6691,2.6691,2.6691,2.6691,2.6691,2.6691,2.6691,2.6691,2.6725,2.6843,2.7469,2.8247,2.9008,2.9566,3.0149,3.0819,3.1106,3.2273,3.5161,3.3083,3.041,2.8137,2.8232,2.7978,2.6726,2.5341,2.4012,2.279,2.1511,2.0497,1.985,1.9798,1.9798,1.9798,1.9202,1.8501,1.7797,1.6922,1.6208,1.5584,1.5468,1.541,1.541,1.541,1.541,1.541,0.0,0.0,1.5352,1.451,1.3734,1.2948,1.2143,1.1288,1.0624,1.0624,1.0624,1.0744,1.1655,1.2992,1.4323,1.5108,1.4932,1.4392,1.4273,1.3235,1.1958,1.1045,1.0681,1.0624,1.0624,1.0624,1.0624,1.0624,1.0624,1.0624,1.0624,1.0624,1.0624,1.0624,1.0624,1.0624,1.0624,1.0624,1.0624,1.0624,1.0624,1.053,1.0214,1.0147,0.9927,0.9369,0.9236,0.9084,0.8891,0.8831,0.8804,0.8804,0.8804,0.8804,0.8804,0.8804,0.8804,0.8804,0.891,0.8956,0.8956,0.9614,1.002,1.0115,1.0669,1.0965,2.6691,2.6691,2.6691,2.6691,2.6691,2.6691,2.6691,2.6691,2.6877,2.752,2.8264,2.9025,2.9786,3.0509,3.0679,2.9828,3.0697,3.2417,3.5212,3.3248,3.0954,2.9304,2.7838,2.6864,2.6602,2.493,2.354,2.2762,2.1511,2.0497,1.985,1.9798,1.9798,1.9798,1.9695,1.9254,1.8555,1.7202,1.6436,1.6312,1.569,1.541,1.541,1.541,1.541,1.541,0.0,1.541,1.5352,1.451,1.3734,1.2948,1.2143,1.1288,1.0624,1.0624,1.0624,1.0807,1.2274,1.3425,1.4323,1.5108,1.5294,1.5108,1.4392,1.4025,1.3537,1.2012,1.1108,1.0624,1.0624,1.0624,1.0624,1.0624,1.0624,1.0624,1.0624,1.0624,1.0624,1.0624,1.0624,1.0624,1.0624,1.0624,1.0624,1.0624,1.0624,1.0611,1.0557,1.0274,1.008,0.9993,0.9475,0.9163,0.9123,0.8945,0.8804,0.8804,0.8804,0.8804,0.8804,0.8804,0.8804,0.8804,0.9361,0.9666,0.9666,1.0312,1.0965,1.1516,1.1616,1.1665,2.6691,2.6691,2.6691,2.6691,2.6691,2.6691,2.6691,2.7012,2.7402,2.7722,2.8772,2.9651,2.9867,3.0606,3.1033,3.0478,2.9843,3.0263,3.2852,3.2154,3.081,2.9249,0.0,2.718,2.6174,2.4934,2.3795,2.2767,2.1834,2.088,1.9943,1.9561,1.92,1.8932,1.8945,1.8921,1.8851,1.7774,1.6994,1.6492,1.5748,1.541,1.541,1.541,1.541,1.541,0.0,1.541,1.5352,1.451,1.3965,1.3545,1.2258,1.1586,1.1226,1.1226,1.1779,1.2634,1.3364,1.4213,1.4932,1.5294,1.541,1.5352,1.4932,1.4569,1.4025,1.3295,1.2512,1.1725,1.0807,1.0926,1.117,1.0681,1.0624,1.0624,1.0624,1.0624,1.0624,1.0624,1.0624,1.0624,1.0624,1.0624,1.0624,1.0624,1.0624,1.0624,1.0624,1.0441,1.0294,1.0134,1.0214,1.0023,0.9265,0.954,0.9439,0.8818,0.8804,0.8804,0.8804,0.8804,0.8956,0.9309,0.9666,0.9961,1.0364,1.1015,1.1516,1.1814,1.2187,1.2393,2.6691,2.6691,2.6691,2.6691,2.6691,2.6742,2.6911,2.7402,2.7891,2.8245,2.9296,3.007,3.0049,3.0677,3.1215,3.1177,2.9648,2.9081,3.0936,3.0879,3.0143,2.8645,2.8009,2.7071,2.5513,2.4777,2.3822,2.2581,2.1988,2.1145,1.9834,1.9272,1.8727,1.8204,1.8204,1.8405,1.8832,1.821,1.7512,1.6765,1.6026,1.5584,1.541,1.541,1.541,1.541,1.541,1.541,1.5352,1.4746,1.4382,1.4085,1.2626,1.1958,1.1834,1.1834,1.2801,1.4213,1.4213,1.4756,1.541,1.541,1.541,1.541,1.541,1.4815,1.4154,1.3965,1.3606,1.2879,1.1296,1.1226,1.1351,1.0744,1.0624,1.0624,1.0624,1.0624,1.0624,1.0624,1.0624,1.0624,1.0624,1.0624,1.0624,1.0624,1.0624,1.0624,1.0624,1.0624,1.0593,1.0479,1.0972,1.0894,0.9825,1.0132,0.9984,0.9075,0.891,0.8804,0.8804,0.8956,0.9256,0.9762,1.0115,1.0517,1.1065,1.1724,1.208,1.208,1.2618,1.2881,2.6691,2.6691,2.6691,2.6691,2.6691,2.6877,2.7571,2.7755,2.8195,2.9651,3.004,3.0311,3.097,3.1134,3.12,3.1191,3.1065,3.0999,3.1182,3.0005,2.878,2.7731,2.6401,2.5367,2.4747,2.4088,2.3126,2.1873,2.1743,2.0918,1.9172,1.9015,1.8727,1.8204,1.8204,1.8229,1.8267,1.8017,1.7775,1.7523,1.6754,1.6036,1.541,1.541,1.541,1.541,1.541,1.541,1.541,1.5352,1.4864,1.4085,1.3243,1.2451,1.1834,1.1834,1.2801,1.4213,1.4213,1.4756,1.541,1.541,1.541,1.541,1.541,1.4815,1.4025,1.3312,1.3606,1.3717,1.2135,1.1226,1.0681,1.0624,1.0624,1.0624,1.0624,1.0624,1.0624,1.0624,1.0624,1.0624,1.0624,1.0624,1.0624,1.0624,1.0624,1.0624,1.0624,1.0624,1.0856,1.1618,1.1458,1.1291,1.1317,1.0436,0.9792,0.9718,0.9159,0.8804,0.8804,0.9413,0.9762,0.9814,1.1015,1.1665,1.1715,1.2452,1.2822,1.2822,1.2881,1.2881,2.6691,2.6691,2.6691,2.6691,2.7265,2.7808,2.7775,2.8516,2.9414,2.9989,3.0463,3.0869,3.114,3.119,3.1202,3.1194,3.1211,3.0885,2.9939,2.9357,2.86,2.7502,2.6529,2.5597,2.4717,2.3655,2.2837,2.2374,2.1565,2.0477,1.9121,1.8669,1.8014,1.7149,1.7162,1.7325,1.7689,1.7644,1.7665,1.7757,1.6894,1.6368,1.6093,1.5584,1.541,1.541,1.541,1.541,1.541,1.541,1.5235,1.4874,1.4085,1.3537,1.3295,1.3295,1.4016,1.4932,1.4932,1.5177,1.541,1.541,1.541,1.5294,1.4815,1.4451,1.4025,1.3252,1.3252,1.3061,1.1476,1.1538,1.1849,1.087,1.0624,1.0624,1.0624,1.0624,1.0744,1.1226,1.0926,1.0926,1.1903,1.1233,1.0744,1.1288,1.0926,1.0624,1.0624,1.1045,1.1469,1.1772,1.2022,1.22,1.2464,1.1481,1.0749,1.0431,0.9413,0.9008,0.9413,0.9666,1.021,1.1015,1.1566,1.203,1.2501,1.2774,1.2881,1.2881,1.2881,1.2881,2.6841,2.6906,2.699,2.7375,2.8253,2.9025,2.8972,2.9658,3.035,3.0588,3.0936,3.1192,3.1189,3.1198,3.1206,3.1198,3.1215,3.0696,2.9215,2.8565,2.8035,2.734,2.6301,2.5266,2.4316,2.3122,2.2278,2.2069,2.1216,2.0191,1.9091,1.8446,1.7706,1.6795,1.6595,1.671,1.7099,1.7287,1.7594,1.7967,1.7066,1.656,1.6492,1.5758,1.541,1.541,1.541,1.541,1.541,1.541,1.5225,1.4991,1.4451,1.4213,1.4213,1.4213,1.4688,1.541,1.541,1.541,1.541,1.541,1.541,1.5294,1.4756,1.4213,1.3734,1.3122,1.2826,1.2328,1.0926,1.16,1.2336,1.1233,1.0807,1.0624,1.0624,1.0807,1.117,1.171,1.1538,1.16,1.2458,1.1903,1.1358,1.1413,1.117,1.0863,1.0618,1.1288,1.2012,1.2504,1.2974,1.3352,1.3395,1.244,1.1627,1.1141,1.0064,0.9614,1.0115,1.0312,1.0864,1.1765,1.2209,1.2579,1.2881,1.3104,1.3113,1.2881,1.2881,1.2881,2.7178,2.7303,2.76,2.8806,2.9662,3.0411,3.1204,3.1038,3.0924,3.1652,3.1481,3.1201,3.1216,3.1179,3.1168,3.1179,3.1141,3.0636,2.9183,2.7647,2.6797,2.7057,2.5366,2.3962,2.3445,2.2343,2.1425,2.0767,2.0707,2.0167,1.8959,1.838,1.7867,1.7312,1.6795,1.6522,1.6522,1.7087,1.7652,1.8204,1.7236,1.6678,1.6492,1.5748,1.541,1.541,1.541,1.541,1.541,1.541,1.4932,1.4204,1.4204,1.4204,1.4204,1.4204,1.4746,1.541,1.541,1.541,1.541,1.541,1.541,1.541,1.541,1.4273,1.3009,1.3009,1.2451,1.1655,1.0807,1.1233,1.1834,1.1764,1.1163,1.0624,1.0624,1.1226,1.1834,1.1834,1.2451,1.2757,1.195,1.2451,1.2458,1.087,1.1288,1.1531,1.0744,1.1351,1.2443,1.4025,1.4563,1.4619,1.418,1.3113,1.2326,1.185,1.1166,1.0813,1.0813,1.1466,1.1814,1.1814,1.313,1.3505,1.2929,1.3505,1.3505,1.2929,1.2881,1.2881,2.7098,2.7303,2.76,2.8806,2.9915,3.0837,3.1298,3.1691,3.1809,3.115,3.1115,3.1376,3.1996,2.9892,2.8037,2.8031,2.8048,2.788,2.7444,2.6367,2.5611,2.5499,2.4521,2.3517,2.2723,2.1879,2.1234,2.0722,2.0258,1.9664,1.8945,1.838,1.7867,1.7312,1.6795,1.6522,1.6522,1.6685,1.7061,1.7626,1.7206,1.7076,1.7246,1.5968,1.541,1.541,1.541,1.541,1.541,1.541,1.5235,1.505,1.505,1.505,1.505,1.505,1.5167,1.541,1.541,1.541,1.541,1.541,1.541,1.5294,1.4756,1.4213,1.3734,1.3191,1.2826,1.2581,1.2336,1.202,1.1648,1.1108,1.0744,1.0744,1.1351,1.1648,1.2135,1.3295,1.3243,1.3122,1.3416,1.3243,1.2634,1.1593,1.1648,1.1896,1.2274,1.3,1.3897,1.4932,1.5119,1.5059,1.4629,1.3974,1.3447,1.3017,1.2513,1.2039,1.1516,1.1715,1.203,1.2559,1.3399,1.3732,1.3552,1.3732,1.3732,1.3505,1.3113,1.2881,2.7317,2.753,2.7941,2.96,3.0541,3.1247,3.1766,3.2097,3.1973,3.0725,3.0653,3.0911,3.1091,2.8677,2.6703,2.6704,2.5715,2.5163,2.5745,2.5143,2.4645,2.4697,2.3885,2.3012,2.2283,2.1444,2.0737,2.034,1.9929,1.9566,1.9244,1.8496,1.7947,1.7626,1.6879,1.6522,1.6522,1.6522,1.681,1.7388,1.6966,1.6991,1.7379,1.6304,1.569,1.541,1.541,1.541,1.541,1.541,1.541,1.541,1.541,1.541,1.541,1.541,1.541,1.541,1.541,1.541,1.541,1.541,1.541,1.5294,1.4815,1.4204,1.3606,1.313,1.252,1.2035,1.2035,1.1663,1.1288,1.1108,1.1108,1.1233,1.171,1.232,1.3053,1.4025,1.4094,1.4034,1.4145,1.3786,1.3183,1.2389,1.2266,1.2573,1.3364,1.3906,1.451,1.5294,1.541,1.5244,1.4814,1.4541,1.4141,1.3545,1.3271,1.2889,1.2246,1.2236,1.254,1.3238,1.3826,1.4143,1.4143,1.4411,1.4272,1.3779,1.342,1.3152,2.7678,2.7979,2.8594,3.083,3.1458,3.1659,3.2265,3.2092,3.1492,3.0295,3.0106,2.9922,2.9058,2.7812,2.6899,2.6906,2.4414,2.2916,2.4122,2.4007,2.3961,2.434,2.336,2.2489,2.2052,2.1012,2.0193,1.9711,1.969,1.969,1.969,1.8688,1.8106,1.8106,1.7076,1.6522,1.6522,1.6522,1.6785,1.73,1.6686,1.661,1.7024,1.6591,1.6053,1.541,1.541,1.541,1.541,1.541,1.541,1.541,1.541,1.541,1.541,1.541,1.541,1.541,1.541,1.541,1.541,1.541,1.541,1.541,1.541,1.4392,1.3191,1.313,1.2027,1.0807,1.0807,1.0681,1.0807,1.171,1.1834,1.1834,1.1888,1.3114,1.4213,1.4332,1.4874,1.5108,1.4332,1.4273,1.4025,1.3243,1.313,1.3364,1.4094,1.4273,1.4569,1.5294,1.541,1.5254,1.4873,1.4805,1.4453,1.3672,1.3545,1.334,1.2959,1.29,1.32,1.3779,1.4376,1.4744,1.4789,1.532,1.4994,1.3862,1.3815,1.3457,2.766,2.8548,2.9575,3.1052,3.1861,3.2063,3.0962,3.0631,3.0432,2.9827,2.9493,2.9042,2.8289,2.8352,2.8506,2.8515,2.5855,2.3551,2.2863,2.3371,2.3744,2.3646,2.2883,2.2073,2.1311,2.1006,2.0532,1.9747,1.969,1.969,1.969,1.8688,1.8106,1.8106,1.7076,1.6522,1.6522,1.6522,1.6584,0.0,1.7028,1.691,1.6468,1.6061,1.5711,1.541,1.541,1.541,1.541,1.541,1.541,1.541,1.541,1.541,1.541,1.541,1.541,1.541,1.541,1.541,1.541,1.541,1.541,1.541,1.541,1.5167,1.4746,1.4145,1.3243,1.2458,1.2458,1.1545,1.0989,1.2397,1.2266,1.1958,1.2634,1.3485,1.4392,1.4991,1.5294,1.5108,1.4332,1.4746,1.4874,1.4085,1.3965,1.4025,1.4213,1.4746,1.5235,1.5352,1.541,1.5371,1.5283,1.4971,1.4707,1.4521,1.3877,1.3467,1.3379,1.3057,1.32,1.3779,1.4376,1.4926,1.541,1.5543,1.5231,1.4525,1.4003,1.3457,2.7601,2.8322,2.9107,3.0472,3.1146,3.1237,3.0393,2.9898,2.9557,2.9369,2.9168,2.8883,2.8499,2.747,2.6682,2.6693,2.5276,2.3866,2.2883,2.3049,2.323,2.31,2.2626,2.1945,2.1086,2.0991,2.0632,1.9747,1.969,1.969,1.969,1.8688,1.8106,1.8106,1.7076,1.6522,1.6522,1.6522,1.6522,1.6522,1.6823,1.6581,1.5806,1.5517,1.5182,1.4805,1.4805,1.4805,1.4805,1.4805,1.4805,1.4824,1.5029,1.5107,1.5137,1.5342,1.541,1.541,1.541,1.541,1.541,1.541,1.541,1.541,1.541,1.5108,1.4688,1.3846,1.3061,1.2451,1.2451,1.1779,1.1476,1.2704,1.2696,1.2573,1.3425,1.4213,1.4874,1.5294,1.541,1.5294,1.4874,1.5108,1.5118,1.4332,1.451,1.4746,1.4746,1.5108,1.541,1.541,1.541,1.541,1.541,1.5215,1.5,1.4795,1.417,1.3814,1.3942,1.3557,1.36,1.4236,1.4824,1.5421,1.6051,1.6051,1.5732,1.5096,1.4824,1.4179,2.7482,2.7986,2.8532,2.9862,3.021,3.0173,3.0026,2.9475,2.8989,2.8993,2.9012,2.9008,2.8993,2.6365,2.4187,2.42,2.4215,2.3988,2.334,2.3018,2.2789,2.2721,2.25,2.2044,2.1197,2.1023,2.0665,1.9874,1.9747,1.969,1.969,1.8765,1.8224,1.8106,1.7146,1.6595,1.6522,1.6522,1.6522,1.6522,1.6522,1.6061,1.5207,1.5107,1.4666,1.4077,1.4077,1.4077,1.4077,1.4077,1.4077,1.4116,1.4531,1.4717,1.4824,1.5176,1.5352,1.541,1.541,1.541,1.541,1.541,1.541,1.5352,1.5225,1.4756,1.4025,1.3061,1.2389,1.202,1.202,1.202,1.2258,1.3183,1.3312,1.3373,1.4085,1.4805,1.541,1.541,1.541,1.541,1.541,1.541,1.5167,1.451,1.4991,1.541,1.541,1.541,1.541,1.541,1.541,1.5468,1.5584,1.5584,1.5436,1.5137,1.48,1.455,1.4537,1.4366,1.4452,1.4835,1.5365,1.5908,1.6522,1.6522,1.6194,1.5588,1.5499,1.4915,2.7206,2.834,2.952,3.0058,3.021,3.0026,2.9305,2.9085,2.8993,2.9,2.9008,2.9015,2.8996,2.6366,2.42,2.4188,2.421,2.4042,2.3527,2.3427,2.3228,2.2764,2.2686,2.2351,2.1582,2.1213,2.0797,2.0246,1.9909,1.969,1.969,1.9132,1.8574,1.8106,1.7504,1.6951,1.6522,1.6522,1.6522,1.6522,1.6522,1.5925,1.4799,1.4773,1.4496,1.4077,1.4077,1.4077,1.4077,1.4077,1.4077,1.4087,1.4145,1.4453,1.4795,1.4844,1.5098,1.541,1.541,1.541,1.541,1.541,1.541,1.5294,1.4569,1.4273,1.3906,1.2381,1.2389,1.2826,1.2826,1.2826,1.3243,1.4746,1.4569,1.4094,1.4213,1.4805,1.541,1.541,1.541,1.541,1.541,1.541,1.5352,1.5235,1.5352,1.541,1.541,1.541,1.541,1.541,1.541,1.5642,1.6322,1.6368,1.6348,1.6285,1.6504,1.6134,1.506,1.568,1.5856,1.5511,1.5543,1.5908,1.6522,1.6522,1.6194,1.5588,1.505,1.4744,2.7,2.811,2.8951,2.9141,2.9351,2.9352,2.8642,2.8746,2.8739,2.7827,2.8369,2.8446,2.6634,2.5152,2.4192,2.4191,2.4209,2.4124,2.3921,2.3728,2.344,2.3021,2.2822,2.2405,2.1672,2.1244,2.0797,2.0348,1.9945,1.969,1.969,1.9207,1.865,1.8145,1.7585,1.7034,1.6522,1.6522,1.6522,1.6522,1.6522,1.5888,1.4698,1.4698,1.4238,1.3437,1.3437,1.3437,1.3437,1.3437,1.3437,1.3457,1.3691,1.3896,1.4102,1.4336,1.4697,1.5059,1.5059,1.5215,1.5352,1.4864,1.4756,1.4569,1.3786,1.3554,1.3364,1.2696,1.2757,1.313,1.3545,1.3666,1.3965,1.5108,1.5118,1.4864,1.4864,1.5167,1.541,1.541,1.541,1.541,1.541,1.541,1.541,1.541,1.541,1.541,1.541,1.541,1.541,1.541,1.541,1.569,1.6436,1.6151,1.6255,1.709,1.6635,1.6488,1.6643,1.6512,1.6462,1.6618,1.6267,1.6238,1.6522,1.6522,1.638,1.6095,1.5832,1.5511,2.6788,2.7654,2.829,2.8394,2.8591,2.8673,2.8403,2.8427,2.8294,2.738,2.766,2.7333,2.4922,2.4479,2.4465,2.4391,2.4336,2.4284,2.4266,2.4018,2.3692,2.3369,2.3021,2.2574,2.1931,2.1444,2.0943,2.0516,2.0104,1.9818,1.9726,1.9332,1.8855,1.8341,1.7787,1.7229,1.671,1.6552,1.6522,1.6522,1.6522,1.5964,1.4926,1.4744,1.4107,1.3104,1.2978,1.2881,1.2881,1.2881,1.2881,1.291,1.3232,1.3408,1.3545,1.3857,1.4248,1.4639,1.4746,1.499,1.5148,1.4414,1.4213,1.4025,1.3,1.2826,1.2948,1.2757,1.3,1.3425,1.4025,1.4323,1.4688,1.5235,1.541,1.541,1.541,1.541,1.541,1.541,1.541,1.541,1.541,1.541,1.541,1.541,1.541,1.541,1.541,1.541,1.5468,1.5633,1.569,1.5979,1.6708,1.6255,1.6415,1.7523,1.7004,1.7017,1.784,1.7207,1.7005,1.7388,1.681,1.6522,1.6522,1.6522,1.6522,1.6522,1.6324,1.6095,2.6438,2.723,2.7992,2.8316,2.8274,2.8293,2.8836,2.8087,2.7581,2.8649,2.7058,2.5428,2.5282,2.5228,2.5163,2.4903,2.4698,2.4569,2.4478,2.4321,2.4054,2.3714,2.3392,2.3045,2.2669,2.1989,2.1399,2.0991,2.0516,2.0089,1.9711,1.969,1.9406,1.8893,1.8341,1.7787,1.7271,1.6752,1.6522,1.6522,1.6522,1.6194,1.5543,1.4971,1.4329,1.3732,1.3152,1.2881,1.2881,1.2881,1.2881,1.2881,1.29,1.3154,1.3506,1.3525,1.3809,1.4175,1.4648,1.4805,1.477,1.4332,1.4213,1.3906,1.232,1.2389,1.2826,1.2081,1.2992,1.4154,1.4213,1.4756,1.5352,1.541,1.541,1.541,1.541,1.541,1.541,1.541,1.541,1.541,1.541,1.541,1.541,1.541,1.541,1.541,1.541,1.541,1.57,1.6379,1.6436,1.6765,1.7468,1.7523,1.7523,1.7578,1.8197,1.8348,1.7903,1.8044,1.7869,1.7388,1.681,1.6522,1.6522,1.6522,1.6522,1.6479,1.5908,1.5964,2.5842,2.625,2.6472,2.7146,2.7049,2.6888,2.7139,2.7203,2.7085,2.6708,2.5926,2.529,2.5303,2.5153,2.5019,2.4924,2.4799,2.4673,2.4528,2.4445,2.4229,2.3756,2.3392,2.3069,2.2746,2.2017,2.143,2.1023,2.055,2.0124,1.9711,1.969,1.9442,1.893,1.838,1.7666,1.6795,1.6595,1.6522,1.6522,1.6522,1.5976,1.5017,1.4789,1.4154,1.319,1.2968,1.2881,1.2881,1.2881,1.2881,1.2881,1.2881,1.2969,1.3105,1.3105,1.3369,1.375,1.3916,1.4326,1.4637,1.3441,1.3237,1.3243,1.2135,1.202,1.2389,1.3114,1.3777,1.4332,1.4815,1.5167,1.541,1.541,1.541,1.541,1.541,1.541,1.541,1.541,1.541,1.541,1.541,1.541,1.541,1.541,1.541,1.541,1.541,1.5806,1.6208,1.6492,1.6922,1.7523,1.8221,1.7413,1.7523,1.8927,1.8394,1.8312,1.9089,1.851,1.8116,1.7915,1.6986,1.6522,1.6522,1.6522,1.6522,1.6466,1.6281,1.6281,2.4562,2.512,2.5516,2.6051,2.6032,2.6118,2.6934,2.6848,2.6317,2.5475,2.5306,2.5299,2.5299,2.5152,2.5042,2.5042,2.4949,2.4809,2.4678,2.462,2.4441,2.4002,2.3663,2.3315,2.2923,2.2307,2.1774,2.1244,2.0781,0.0,1.9909,1.9782,1.9369,1.865,1.8302,1.7585,1.6522,1.6522,1.6522,1.6522,1.6522,1.5964,1.5017,1.4789,1.4154,1.319,1.2968,1.2881,1.2881,1.2881,1.2881,1.2881,1.2881,1.2881,1.2881,1.2881,1.3057,1.332,1.3457,1.3719,1.3847,1.2745,1.2578,1.2731,1.2043,1.2197,1.281,1.3906,1.4392,1.4756,1.5235,1.541,1.541,1.541,1.541,1.541,1.541,1.541,1.541,1.541,1.541,1.541,1.541,1.541,1.541,1.541,1.541,1.541,1.541,1.6036,1.6595,1.681,1.7523,1.8178,1.8661,1.7786,1.7852,1.9319,1.8501,1.8501,1.9747,1.8781,1.8204,1.8204,1.7087,1.6522,1.6522,1.6522,1.6522,1.6522,1.6522,1.6522,0.0,0.0,0.0,2.5081,2.5237,2.6013,2.8326,2.6984,2.5272,2.5272,2.5278,2.5278,2.529,2.5297,2.5284,2.5303,2.5141,2.501,2.501,2.4877,2.4731,2.4528,2.4192,2.3792,2.3259,2.2898,2.2388,2.1642,2.1213,2.0797,2.0314,1.9909,1.9207,1.8145,1.8106,1.7585,1.6522,1.6522,1.6522,1.6522,1.6522,1.6194,1.5543,1.4971,1.4376,1.3732,1.3152,1.2881,1.2881,1.2881,1.2881,1.2881,1.2881,1.2881,1.2881,1.2881,1.2881,1.2939,1.335,1.3077,1.2528,1.2387,1.2456,1.2522,1.1951,1.2899,1.4177,1.4177,1.4777,1.5371,1.5391,1.54,1.541,1.541,1.541,1.541,1.541,1.541,1.541,1.541,1.541,1.541,1.541,1.541,1.541,1.541,1.541,1.541,1.541,1.6093,1.681,1.7578,1.8286,1.8715,1.8715,1.8715,1.8715,1.8715,1.8715,1.9044,1.9747,1.8781,1.8204,1.8204,1.7087,1.6522,1.6522,1.6522,1.6522,1.6522,1.6522,1.6522,2.2346,0.0,0.0,0.0,0.0,0.0,2.518,2.4994,2.4485,2.4485,2.4673,2.4839,2.4986,2.5046,2.5141,2.5274,2.5253,2.5163,2.5022,2.4877,2.4731,2.4528,2.408,2.3635,2.3236,2.2898,2.2388,0.0,2.1213,2.0797,2.0314,1.9909,1.9207,1.8145,1.8106,1.7585,1.6522,1.6522,1.6522,1.6522,1.6522,1.5976,1.4926,1.4789,1.4107,1.3152,1.2968,1.2881,1.2881,1.2881,1.2881,1.2881,1.2881,1.2881,1.2881,1.2881,1.2881,1.29,1.3018,1.3152,1.3011,1.193,1.213,1.2711,1.2053,1.2541,1.3356,1.3978,1.4318,1.4561,1.4883,1.5186,1.541,1.541,1.541,1.541,1.541,1.541,1.541,1.541,1.541,1.541,1.541,1.541,1.541,1.541,1.541,1.5584,1.6151,1.6866,1.7578,1.834,1.9044,1.9475,1.9475,1.8992,1.8927,1.9475,1.8992,1.9044,1.9747,1.8781,1.838,1.8773,1.7661,1.7076,1.7076,1.668,1.6522,1.6522,1.6522,1.6522,2.1207,2.141,2.1523,2.1857,0.0,0.0,2.325,2.3419,2.3545,2.4105,2.4265,2.4385,2.471,2.4858,2.4956,2.5061,2.5091,2.5072,2.501,2.4924,2.4799,2.4526,2.4099,2.366,2.3236,2.2898,2.2476,2.194,2.1354,2.0731,2.0089,1.9854,1.9207,1.8145,1.8106,1.7585,1.6522,1.6522,1.6522,1.6522,1.6522,1.5888,1.4698,1.4698,1.4025,1.2881,1.2881,1.2881,1.2881,1.2881,1.2881,1.2881,1.2881,1.2881,1.2881,1.2881,1.2881,1.2881,1.2881,1.287,1.2679,1.1957,1.2166,1.2654,1.2413,1.2795,1.3476,1.397,1.4077,1.4136,1.4453,1.4834,1.5146,1.5146,1.5283,1.541,1.541,1.541,1.541,1.541,1.541,1.541,1.541,1.541,1.541,1.541,1.541,1.57,1.6436,1.7135,1.7895,1.8608,1.9371,1.9798,1.9798,1.9423,1.9359,1.9747,1.9423,1.9371,1.9798,1.8999,1.8681,1.8989,1.7876,1.7188,1.6951,1.6879,1.6837,1.6837,1.7076,1.7146,1.9655,2.0161,2.0542,1.9869,2.0854,0.0,2.2015,2.2088,2.2495,2.3647,2.3795,2.3895,2.4338,2.454,2.4659,2.4693,2.4693,2.4747,2.4949,2.4962,2.4831,2.4526,2.4174,2.3751,2.3259,2.2898,2.2573,2.2265,2.1415,2.0565,1.9747,1.969,1.9207,1.8145,1.8106,1.7585,1.6522,1.6522,1.6522,1.6522,1.6522,1.5888,1.4698,1.4698,1.4025,1.2881,1.2881,1.2881,1.2881,1.2881,1.2881,1.2881,1.2881,1.2881,1.2881,1.2881,1.2881,1.2881,1.2822,1.2344,1.1828,1.205,1.2279,1.2446,1.269,1.3336,1.3941,1.3941,1.397,1.4009,1.4009,1.4394,1.4727,1.4775,1.5068,1.5352,1.54,1.541,1.541,1.541,1.541,1.541,1.541,1.541,1.541,1.541,1.5468,1.5806,1.6539,1.7246,1.8015,1.8715,1.9423,1.9798,1.9798,1.9798,1.9798,1.9798,1.9798,1.9798,1.9798,1.9261,1.9035,1.908,1.7948,1.7146,1.668,1.7118,1.7312,1.7312,1.7867,1.8106,1.8551,1.9243,1.9936,1.9762,1.9974,0.0,2.02,2.0734,2.1354,2.1702,2.2375,2.2917,2.3164,2.3521,2.3819,2.3971,2.4007,2.4185,2.4766,2.4697,2.4556,2.4512,2.406,2.3613,2.3236,2.2898,2.2432,2.1777,2.0943,2.0227,1.9726,1.969,1.9207,1.8145,1.8106,1.7585,1.6522,1.6522,1.6522,1.6522,1.6522,1.5888,1.4698,1.4698,1.4025,1.2881,1.2881,1.2881,1.2881,1.2881,1.2881,1.2881,1.2881,1.2881,1.2881,1.2881,1.2881,1.2822,1.2236,1.1922,1.1724,1.126,1.1479,1.195,1.198,1.2529,1.3125,1.3125,1.3369,1.3633,1.3633,1.3945,1.4346,1.4697,1.4844,1.5,1.5342,1.541,1.541,1.541,1.541,1.541,1.541,1.541,1.541,1.541,1.5921,1.6539,1.7302,1.8015,1.8768,1.9527,1.9695,1.9798,1.9798,1.9798,1.9798,1.9798,1.9798,1.9798,1.9798,1.9261,1.9216,1.9649,1.8522,1.7907,1.7787,1.7463,1.7312,1.7312,1.7867,1.8106,1.8821,1.8593,1.8157,1.8097,1.8097,0.0,0.0,1.885,1.9676,2.0083,2.0956,2.1703,2.1958,2.2391,2.2799,2.316,2.3205,2.3376,2.3931,2.4007,2.3949,2.3848,2.3468,2.3141,2.2972,2.2678,2.2181,2.1368,2.0682,2.0124,1.9711,1.969,1.9207,1.8145,1.8106,1.7585,1.6522,1.6522,1.6522,1.6522,1.6182,1.5599,1.4709,1.4376,1.3742,1.2881,1.2881,1.2881,1.2881,1.2881,1.2881,1.2881,1.2881,1.2881,1.2881,1.2881,1.2881,1.2774,1.208,1.203,1.2236,1.1516,1.1774,1.2344,1.2344,1.2618,1.2881,1.2881,1.3037,1.3193,1.3193,1.3506,1.3877,1.4092,1.4473,1.4844,1.5049,1.5264,1.541,1.541,1.541,1.541,1.541,1.541,1.5526,1.5864,1.5921,1.6472,1.795,1.8167,1.8555,1.9695,1.9798,1.9798,1.9798,1.9798,1.9798,1.9798,1.9798,1.9775,1.9797,1.9529,1.9276,1.8962,1.8649,1.8263,1.7706,1.7987,1.7947,1.7706,1.8263,1.8496,1.8256,1.7171,1.582,1.5828,1.5801,1.5849,0.0,0.0,0.0,1.8431,1.9322,2.0028,2.0242,2.0789,2.1367,2.1743,0.0,0.0,0.0,2.2611,0.0,2.3171,2.2848,2.2574,2.2574,2.2181,2.1645,2.1039,2.0483,2.0035,1.9711,1.969,1.9207,1.8145,1.8106,1.7585,1.6522,1.6522,1.6522,1.6466,1.5908,1.5276,1.4698,1.4097,1.3467,1.2881,1.2881,1.2881,1.2881,1.2881,1.2881,1.2881,1.2881,1.2881,1.2881,1.2881,1.2832,1.2569,1.1873,1.1981,1.2412,1.1774,1.2187,1.2881,1.2881,1.2881,1.2881,1.2725,1.2774,1.2881,1.2715,1.3026,1.3408,1.3486,1.4033,1.4561,1.4648,1.499,1.5293,1.5293,1.5352,1.541,1.541,1.541,1.5642,1.6379,1.6083,1.6518,1.8436,1.8286,1.8501,1.9695,1.9798,1.9798,1.9798,1.9798,1.9798,1.9798,1.971,1.9698,1.9821,1.9809,1.9364,1.8447,1.8727,1.8458,1.7626,1.8496,1.8688,1.8263,1.8817,1.9043,1.4024,1.3481,1.3294,1.3313,1.3331,1.3581,1.4647,0.0,1.5379,1.6421,0.0,1.7327,1.7353,0.0,0.0,1.8954,1.9411,1.9794,1.9813,1.9866,2.0702,2.2926,2.2583,2.218,2.218,2.1163,2.0649,2.0959,2.0243,1.9747,1.969,1.969,1.9207,1.8145,1.8106,1.7585,1.6522,1.6522,1.6522,1.6466,1.5908,1.5276,1.4698,1.4097,1.3467,1.2881,1.2881,1.2881,1.2881,1.2881,1.2881,1.2881,1.2881,1.2881,1.2881,1.2881,1.2471,1.185,1.1174,1.0965,1.1015,1.0965,1.1792,1.2881,1.2881,1.2881,1.2774,1.2107,1.2421,1.2764,1.208,1.2431,1.3047,1.3418,1.3584,1.376,1.4121,1.4551,1.4853,1.4853,1.5156,1.541,1.541,1.541,1.5642,1.6379,1.6978,1.7688,1.8608,1.9202,1.9592,1.9798,1.9798,1.9798,1.9798,1.9798,1.9798,1.9798,1.9371,1.9317,1.976,1.9722,1.9652,1.9508,1.9132,1.8855,1.8727,1.8855,1.8855,1.8817,1.9369,1.9603,1.338,1.2928,1.29,0.0,0.0,0.0,1.3554,0.0,1.3779,0.0,0.0,0.0,0.0,0.0,0.0,0.0,1.7509,1.8054,0.0,0.0,1.9004,2.0795,0.0,0.0,2.1442,2.0749,2.0382,2.0583,2.005,1.969,1.969,1.9406,1.8893,1.8145,1.7787,1.7271,1.6522,1.6522,1.6522,1.6479,1.5511,1.4971,1.4652,1.3695,1.3152,1.2881,1.2881,1.2881,1.2881,1.2881,1.2881,1.2881,1.2881,1.2881,1.2881,1.2881,1.2412,1.1683,1.1015,1.1065,1.1466,1.1891,1.2412,1.2881,1.2881,1.2881,1.2774,1.199,1.2353,1.2715,1.1972,1.2344,1.293,1.3105,1.333,1.3555,1.373,1.4102,1.4404,1.4404,1.4756,1.5049,1.5049,1.5254,1.5642,1.6379,1.6425,1.6912,1.8489,1.8608,1.8874,1.9695,1.9798,1.9798,1.9798,1.9798,1.9673,1.9371,1.9063,1.9283,2.0105,2.0088,1.9921,1.9666,1.9687,1.9456,1.8893,1.9471,1.9707,1.9707,1.9949,2.0039,1.2096,0.0,0.0,0.0,0.0,0.0,0.0,0.0,0.0,0.0,0.0,0.0,0.0,0.0,1.4418,1.4647,0.0,1.5889,1.623,1.6258,1.693,1.8695,0.0,0.0,0.0,1.9958,1.9763,1.9889,1.963,1.9406,1.9281,1.9043,1.8574,1.7907,1.7504,1.7034,1.6522,1.6522,1.6522,1.6479,1.5287,1.4698,1.4663,1.343,1.2881,1.2881,1.2881,1.2881,1.2881,1.2881,1.2881,1.2881,1.2881,1.2881,1.2881,1.2666,1.2138,1.1466,1.0965,1.1266,1.1922,1.2666,1.2881,1.2871,1.2666,1.2608,1.2452,1.1724,1.203,1.2501,1.1922,1.2344,1.2881,1.2881,1.3115,1.334,1.334,1.3662,1.3965,1.3965,1.4307,1.4609,1.4609,1.5059,1.569,1.6641,1.6368,1.6743,1.8768,1.8555,1.8608,1.9695,1.9798,1.9748,1.9597,1.9737,1.957,1.9012,1.9071,1.9435,2.0161,2.0142,2.0039,1.9798,2.0039,1.9864,1.9288,1.9954,2.04,2.0634,2.055,2.0385,0.0,0.0,0.0,1.2264,0.0,0.0,0.0,0.0,0.9184,0.0,0.0,0.0,0.0,1.1683,1.1782,1.1648,1.231,0.0,0.0,1.2875,1.4047,1.7271,1.7796,0.0,0.0,1.8454,1.8352,1.8829,1.8887,1.8688,1.8185,1.8612,1.8419,1.7353,1.7312,1.7034,1.6522,1.6522,1.6522,1.6479,1.5287,1.4698,1.4663,1.343,1.2881,1.2881,1.2881,1.2881,1.2881,1.2881,1.2881,1.2881,1.2881,1.2881,1.2822,1.208,1.1416,1.0813,1.0813,1.1266,1.1922,1.2666,1.2881,1.2774,1.203,1.1814,1.1715,1.1015,1.1316,1.1814,1.1814,1.2344,1.2881,1.2881,1.2891,1.29,1.29,1.3232,1.3525,1.3525,1.3867,1.4107,1.4107,1.4853,1.5911,1.7357,1.7523,1.807,1.9579,1.9747,1.9747,1.9798,1.9798,1.9597,1.9046,1.951,1.9555,1.8932,1.9401,1.9643,1.963,1.9696,1.9909,2.028,1.9909,1.9909,2.028,2.028,2.0732,2.1552,2.115,2.0715,0.0,0.0,0.9013,0.9933,0.0,0.0,0.0,0.0,0.0,0.0,0.0,0.0,0.0,0.8606,0.8871,0.893,0.9577,1.007,0.0,1.0439,1.1447,1.3478,1.5215,1.6661,0.0,0.0,1.7733,1.8299,1.8366,1.8302,1.8106,1.7947,1.7666,1.7312,1.6951,1.668,1.6522,1.6522,1.6522,1.6479,1.5287,1.4698,1.4663,1.343,1.2881,1.2881,1.2881,1.2881,1.2881,1.2881,1.2881,1.2881,1.2881,1.2608,1.2138,1.1873,1.1366,1.0813,1.0813,1.1266,1.1922,1.2666,1.2881,1.2774,1.203,1.2138,1.2295,1.1124,1.1633,1.2403,1.1922,1.2344,1.2881,1.2881,1.2881,1.2881,1.2881,1.2998,1.3096,1.3096,1.3437,1.3721,1.3721,1.4563,1.5378,1.585,1.6256,1.6979,1.8358,1.8512,1.8741,1.9233,1.8957,1.8681,1.8505,1.8629,1.8957,1.9401,1.9566,1.9918,2.0501,2.0565,2.0632,2.0764,2.0632,2.0465,2.0314,2.0862,2.1321,2.1612,2.1943,2.1782,0.8791,0.881,0.0,0.8791,0.8006,0.0,0.7289,0.0,0.4765,0.0,0.0,0.0,0.0,0.6367,0.6503,0.6908,0.7312,0.7676,0.0,0.8534,0.9364,1.0495,1.2952,1.4891,1.5849,1.6547,1.6995,1.719,1.7773,1.8031,0.0,0.0,1.7545,1.7346,1.6985,1.6722,1.6522,1.6522,1.638,1.6194,1.5152,1.4606,1.4329,1.3334,1.2881,1.2881,1.2881,1.2881,1.2881,1.2881,1.2881,1.2881,1.2881,1.2452,1.1765,1.1516,1.1166,1.0813,1.1065,1.1625,1.2295,1.2774,1.2715,1.2403,1.1922,1.1981,1.1999,1.1325,1.1832,1.2452,1.2236,1.2559,1.2881,1.2881,1.2881,1.2881,1.2881,1.2881,1.2881,1.2881,1.3096,1.3331,1.3561,1.4193,1.4847,1.5431,1.597,1.6728,1.7881,1.7992,1.8203,1.8682,1.8417,1.8257,1.8429,1.8266,1.8645,1.9853,1.9861,2.0249,2.1181,2.0926,2.0829,2.0991,2.0829,2.0682,2.055,2.1259,2.1715,2.1989,2.2485,2.2361]}]]